[[{"header":{"parameterUnit":"m.s-1","parameterCategory":1,"la1":30.6,"la2":29.2853,"lo1":-89.7004,"lo2":-87.6739,"dy":0.0162,"dx":0.0183,"nx":112,"ny":82,"refTime":"2024-03-29T06:00:00:Z","depth":0,"parameterNumber":2,"parameterNumberName":"U-component_of_WINDS"},"data":[0.0,0.0,0.0,0.0,0.0,0.0,0.0,0.0,0.0,0.0,0.0,0.0,0.0,0.0,0.0,0.0,0.0,0.0,0.0,0.0,0.0,0.0,0.0,0.0,0.0,0.0,0.0,0.0,0.0,0.0,0.0,0.0,0.0,0.0,0.0,0.0,0.0,0.0,0.0,0.0,0.0,0.0,0.0,0.0,0.0,0.0,0.0,0.0,0.0,0.0,0.0,0.0,0.0,0.0,0.0,0.0,0.0,0.0,0.0,0.0,0.0,0.0,0.0,0.0,0.0,0.0,0.0,0.0,0.0,0.0,0.0,0.0,0.0,0.0,0.0,0.0,0.0,0.0,0.0,0.0,0.0,0.0,0.0,0.0,0.0,0.0,0.0,0.0,0.0,0.0,-5.9012,-6.2218,-6.7751,-7.0855,-6.9969,-6.9526,-6.6319,-5.9312,0.0,0.0,0.0,0.0,0.0,0.0,0.0,0.0,0.0,0.0,0.0,0.0,0.0,0.0,0.0,0.0,0.0,0.0,0.0,0.0,0.0,0.0,0.0,0.0,0.0,0.0,0.0,0.0,0.0,0.0,0.0,0.0,0.0,0.0,0.0,0.0,0.0,0.0,0.0,0.0,0.0,0.0,0.0,0.0,0.0,0.0,0.0,0.0,0.0,0.0,0.0,0.0,0.0,0.0,0.0,0.0,0.0,0.0,0.0,0.0,0.0,0.0,0.0,0.0,0.0,0.0,0.0,0.0,0.0,0.0,0.0,0.0,0.0,0.0,0.0,0.0,0.0,0.0,0.0,0.0,0.0,0.0,0.0,0.0,0.0,0.0,0.0,0.0,0.0,0.0,0.0,0.0,0.0,0.0,0.0,0.0,0.0,0.0,0.0,0.0,0.0,0.0,0.0,0.0,-6.1045,-6.7097,-6.9828,-7.0855,-6.9969,-6.842,-6.5487,-6.0762,0.0,0.0,0.0,0.0,0.0,0.0,0.0,0.0,0.0,0.0,0.0,0.0,0.0,0.0,0.0,0.0,0.0,0.0,0.0,0.0,0.0,0.0,0.0,0.0,0.0,0.0,0.0,0.0,0.0,0.0,0.0,0.0,0.0,0.0,0.0,0.0,0.0,0.0,0.0,0.0,0.0,0.0,0.0,0.0,0.0,0.0,0.0,0.0,0.0,0.0,0.0,0.0,0.0,0.0,0.0,0.0,0.0,0.0,0.0,0.0,0.0,0.0,0.0,0.0,0.0,0.0,0.0,0.0,0.0,0.0,0.0,0.0,0.0,0.0,0.0,0.0,0.0,0.0,0.0,0.0,0.0,0.0,0.0,0.0,0.0,0.0,0.0,0.0,0.0,0.0,0.0,0.0,0.0,0.0,0.0,0.0,0.0,0.0,0.0,0.0,0.0,0.0,0.0,-5.9927,-6.3138,-6.7472,-6.9417,-7.0232,-6.9832,-6.7281,-6.4369,-6.1102,-5.8809,0.0,0.0,0.0,0.0,0.0,0.0,0.0,0.0,0.0,0.0,0.0,0.0,0.0,0.0,0.0,0.0,0.0,0.0,0.0,0.0,0.0,0.0,0.0,0.0,0.0,0.0,0.0,0.0,0.0,0.0,0.0,0.0,0.0,0.0,0.0,0.0,0.0,0.0,0.0,0.0,0.0,0.0,0.0,0.0,0.0,0.0,0.0,0.0,0.0,0.0,0.0,0.0,0.0,0.0,0.0,0.0,0.0,0.0,0.0,0.0,0.0,0.0,0.0,0.0,0.0,0.0,0.0,0.0,0.0,0.0,0.0,0.0,0.0,0.0,0.0,0.0,0.0,0.0,0.0,0.0,0.0,0.0,0.0,0.0,0.0,0.0,0.0,0.0,0.0,0.0,0.0,0.0,0.0,0.0,0.0,0.0,0.0,0.0,0.0,0.0,0.0,0.0,-6.1772,-6.4687,-6.6602,-6.8552,-6.9475,-6.8859,-6.6013,-6.3238,-6.0817,-5.8382,0.0,0.0,0.0,0.0,0.0,0.0,0.0,0.0,0.0,0.0,0.0,0.0,0.0,0.0,0.0,0.0,0.0,0.0,0.0,0.0,0.0,0.0,0.0,0.0,0.0,0.0,0.0,0.0,0.0,0.0,0.0,0.0,0.0,0.0,0.0,0.0,0.0,0.0,0.0,0.0,0.0,0.0,0.0,0.0,0.0,0.0,0.0,0.0,0.0,0.0,0.0,0.0,0.0,0.0,0.0,0.0,0.0,0.0,0.0,0.0,0.0,0.0,0.0,0.0,0.0,0.0,0.0,0.0,0.0,0.0,0.0,0.0,0.0,0.0,0.0,0.0,0.0,0.0,0.0,0.0,0.0,0.0,0.0,0.0,0.0,0.0,0.0,0.0,0.0,0.0,0.0,0.0,0.0,0.0,0.0,0.0,0.0,0.0,0.0,0.0,0.0,0.0,-6.2245,-6.5037,-6.5884,-6.8205,-6.8744,-6.6359,-6.4474,-6.232,-5.9765,-5.8095,0.0,0.0,0.0,0.0,0.0,0.0,0.0,0.0,0.0,0.0,0.0,0.0,0.0,0.0,0.0,0.0,0.0,0.0,0.0,0.0,0.0,0.0,0.0,0.0,0.0,0.0,0.0,0.0,0.0,0.0,0.0,0.0,0.0,0.0,0.0,0.0,0.0,0.0,0.0,0.0,0.0,0.0,0.0,0.0,0.0,0.0,0.0,0.0,0.0,0.0,0.0,0.0,0.0,0.0,0.0,0.0,0.0,0.0,0.0,0.0,0.0,0.0,0.0,0.0,0.0,0.0,0.0,0.0,0.0,0.0,0.0,0.0,0.0,0.0,0.0,0.0,0.0,0.0,0.0,0.0,0.0,0.0,0.0,0.0,0.0,0.0,0.0,0.0,0.0,0.0,0.0,0.0,0.0,0.0,0.0,0.0,0.0,0.0,0.0,0.0,0.0,0.0,-6.1354,-6.3713,0.0,-6.6436,-6.6936,-6.5974,-6.332,-6.1089,-5.9588,0.0,0.0,0.0,0.0,0.0,0.0,0.0,0.0,0.0,0.0,0.0,0.0,0.0,0.0,0.0,0.0,0.0,0.0,0.0,0.0,0.0,0.0,0.0,0.0,0.0,0.0,0.0,0.0,0.0,0.0,0.0,0.0,0.0,0.0,0.0,0.0,0.0,0.0,0.0,0.0,0.0,0.0,0.0,0.0,0.0,0.0,0.0,0.0,0.0,0.0,0.0,0.0,0.0,0.0,0.0,0.0,0.0,0.0,0.0,0.0,0.0,0.0,0.0,0.0,0.0,0.0,0.0,0.0,0.0,0.0,0.0,0.0,0.0,0.0,0.0,0.0,0.0,0.0,0.0,0.0,0.0,0.0,0.0,0.0,0.0,0.0,0.0,0.0,0.0,0.0,0.0,0.0,0.0,0.0,0.0,0.0,0.0,0.0,0.0,0.0,0.0,0.0,-5.8506,-6.0777,-6.2645,0.0,-6.482,-6.5282,-6.4743,-6.205,-6.0012,-5.9165,0.0,0.0,0.0,0.0,0.0,0.0,0.0,0.0,0.0,0.0,0.0,0.0,0.0,0.0,0.0,0.0,0.0,0.0,0.0,0.0,0.0,0.0,0.0,0.0,0.0,0.0,0.0,0.0,0.0,0.0,0.0,0.0,0.0,0.0,0.0,0.0,0.0,0.0,0.0,0.0,0.0,0.0,0.0,0.0,0.0,0.0,0.0,0.0,0.0,0.0,0.0,0.0,0.0,0.0,0.0,0.0,0.0,0.0,0.0,0.0,0.0,0.0,0.0,0.0,0.0,0.0,0.0,0.0,0.0,0.0,0.0,0.0,0.0,0.0,0.0,0.0,0.0,0.0,0.0,0.0,0.0,0.0,0.0,0.0,0.0,0.0,0.0,0.0,0.0,0.0,0.0,0.0,0.0,0.0,0.0,0.0,0.0,0.0,0.0,0.0,0.0,0.0,-5.857,-6.0664,-6.2101,-6.2101,-6.3589,-6.3897,-6.2255,-6.0512,-5.9165,0.0,0.0,0.0,0.0,0.0,0.0,0.0,0.0,0.0,0.0,0.0,0.0,0.0,0.0,0.0,0.0,0.0,0.0,0.0,0.0,0.0,0.0,0.0,0.0,0.0,0.0,0.0,0.0,0.0,0.0,0.0,0.0,0.0,0.0,0.0,0.0,0.0,0.0,0.0,0.0,0.0,0.0,0.0,0.0,0.0,0.0,0.0,0.0,0.0,0.0,0.0,0.0,0.0,0.0,0.0,0.0,0.0,0.0,0.0,0.0,0.0,0.0,0.0,0.0,0.0,0.0,0.0,0.0,0.0,0.0,0.0,0.0,0.0,0.0,0.0,0.0,0.0,0.0,0.0,0.0,0.0,0.0,0.0,0.0,0.0,0.0,0.0,0.0,0.0,0.0,0.0,0.0,0.0,0.0,0.0,0.0,0.0,0.0,0.0,0.0,0.0,0.0,0.0,-5.838,-5.957,-6.0742,-6.1985,-6.2563,-6.2627,-6.2139,-6.0512,-5.9165,-5.8357,0.0,0.0,0.0,0.0,0.0,0.0,0.0,0.0,0.0,0.0,0.0,0.0,0.0,0.0,0.0,0.0,0.0,0.0,0.0,0.0,0.0,0.0,0.0,0.0,0.0,0.0,0.0,0.0,0.0,0.0,0.0,0.0,0.0,0.0,0.0,0.0,0.0,0.0,0.0,0.0,0.0,0.0,0.0,0.0,0.0,0.0,0.0,0.0,0.0,0.0,0.0,0.0,0.0,0.0,0.0,0.0,0.0,0.0,0.0,0.0,0.0,0.0,0.0,0.0,0.0,0.0,0.0,0.0,0.0,0.0,0.0,0.0,0.0,0.0,0.0,0.0,0.0,0.0,0.0,0.0,0.0,0.0,0.0,0.0,0.0,0.0,0.0,0.0,0.0,0.0,0.0,0.0,0.0,0.0,0.0,0.0,0.0,0.0,0.0,0.0,0.0,0.0,-5.8294,-5.8806,-5.9665,-6.1408,-6.1601,-6.1601,-6.1601,-6.0281,-5.9165,-5.8357,0.0,0.0,0.0,0.0,0.0,0.0,0.0,0.0,0.0,0.0,0.0,0.0,0.0,0.0,0.0,0.0,0.0,0.0,0.0,0.0,0.0,0.0,0.0,0.0,0.0,0.0,0.0,0.0,0.0,0.0,0.0,0.0,0.0,0.0,0.0,0.0,0.0,0.0,0.0,0.0,0.0,0.0,0.0,0.0,0.0,0.0,0.0,0.0,0.0,0.0,0.0,0.0,0.0,0.0,0.0,0.0,0.0,0.0,0.0,0.0,0.0,0.0,0.0,0.0,0.0,0.0,0.0,0.0,0.0,0.0,0.0,0.0,0.0,0.0,0.0,0.0,0.0,0.0,0.0,0.0,0.0,0.0,0.0,0.0,0.0,0.0,0.0,0.0,0.0,0.0,0.0,0.0,0.0,0.0,0.0,0.0,0.0,0.0,0.0,0.0,0.0,0.0,-5.8258,-5.8361,-5.8934,-6.0627,-6.0742,-6.0704,-6.0781,-5.9935,-5.9088,-5.8357,0.0,0.0,0.0,0.0,0.0,0.0,0.0,0.0,0.0,0.0,0.0,0.0,0.0,0.0,0.0,0.0,0.0,0.0,0.0,0.0,0.0,0.0,0.0,0.0,0.0,0.0,0.0,0.0,0.0,0.0,0.0,0.0,0.0,0.0,0.0,0.0,0.0,0.0,0.0,0.0,0.0,0.0,0.0,0.0,0.0,0.0,0.0,0.0,0.0,0.0,0.0,0.0,0.0,0.0,0.0,0.0,0.0,0.0,0.0,0.0,-6.1755,0.0,0.0,0.0,0.0,0.0,0.0,0.0,0.0,0.0,0.0,0.0,0.0,0.0,0.0,0.0,0.0,0.0,0.0,0.0,0.0,0.0,0.0,0.0,0.0,0.0,0.0,0.0,0.0,0.0,0.0,0.0,0.0,0.0,0.0,0.0,0.0,0.0,0.0,0.0,0.0,0.0,-5.8137,-5.8303,-5.8934,-6.0627,-6.0204,-6.005,-6.0742,-5.9435,-5.8473,-5.8319,-5.7473,0.0,0.0,0.0,0.0,0.0,0.0,0.0,0.0,0.0,0.0,0.0,0.0,0.0,0.0,0.0,0.0,0.0,0.0,0.0,0.0,0.0,0.0,0.0,0.0,0.0,0.0,0.0,0.0,0.0,0.0,0.0,0.0,0.0,0.0,0.0,0.0,0.0,0.0,0.0,0.0,0.0,0.0,0.0,0.0,0.0,0.0,0.0,0.0,0.0,0.0,0.0,0.0,0.0,0.0,0.0,0.0,0.0,0.0,0.0,0.0,-6.2897,0.0,0.0,0.0,0.0,0.0,0.0,0.0,0.0,0.0,0.0,0.0,0.0,0.0,0.0,0.0,0.0,0.0,0.0,0.0,0.0,0.0,0.0,0.0,0.0,0.0,0.0,0.0,0.0,0.0,0.0,0.0,0.0,0.0,0.0,0.0,0.0,0.0,0.0,0.0,0.0,-5.8138,-5.8627,-5.9358,-6.0666,-6.0012,-5.9665,-6.0127,-5.9011,-5.8127,-5.7703,-5.7253,0.0,0.0,0.0,0.0,0.0,0.0,0.0,0.0,0.0,0.0,0.0,0.0,0.0,0.0,0.0,0.0,0.0,0.0,0.0,0.0,0.0,0.0,0.0,0.0,0.0,0.0,0.0,0.0,0.0,0.0,0.0,0.0,0.0,0.0,0.0,0.0,0.0,0.0,0.0,0.0,0.0,0.0,0.0,0.0,0.0,0.0,0.0,0.0,0.0,0.0,0.0,0.0,0.0,-6.6654,-6.7423,-6.8244,-6.8975,-6.9667,-7.0167,-6.6474,-6.4589,-6.4128,0.0,0.0,0.0,0.0,0.0,0.0,0.0,0.0,0.0,0.0,0.0,0.0,0.0,0.0,0.0,0.0,0.0,0.0,0.0,0.0,0.0,0.0,0.0,0.0,0.0,-6.0781,-6.0856,0.0,0.0,0.0,0.0,0.0,0.0,0.0,0.0,0.0,0.0,0.0,0.0,-5.8204,-5.9011,-5.9819,-6.0704,-5.9896,-5.9358,-5.9473,-5.8473,-5.7588,-5.706,-5.6868,-5.6423,0.0,0.0,0.0,0.0,0.0,0.0,0.0,0.0,0.0,0.0,0.0,0.0,0.0,0.0,0.0,0.0,0.0,0.0,0.0,0.0,0.0,0.0,0.0,0.0,0.0,0.0,0.0,0.0,0.0,0.0,0.0,0.0,-6.0384,-6.0422,0.0,0.0,0.0,0.0,0.0,0.0,0.0,0.0,0.0,0.0,0.0,0.0,0.0,0.0,-6.7808,-6.9073,-7.0191,-7.1094,-7.1223,-7.1751,-7.2668,-7.2783,-7.2899,-7.2937,-7.1591,0.0,-6.7615,-6.6051,0.0,0.0,0.0,0.0,0.0,0.0,0.0,0.0,0.0,0.0,0.0,0.0,0.0,0.0,0.0,0.0,0.0,0.0,0.0,0.0,0.0,0.0,-6.0781,-6.0781,-6.0781,-6.0804,0.0,-6.0845,-6.0845,-6.0845,0.0,0.0,0.0,0.0,0.0,0.0,0.0,0.0,-5.8204,-5.9011,-5.9819,-6.0704,-5.9396,-5.8742,-5.9435,-5.7396,-5.6319,-5.6945,-5.6291,-5.5818,-5.5692,-5.5649,0.0,0.0,0.0,0.0,0.0,0.0,0.0,0.0,0.0,0.0,0.0,0.0,0.0,0.0,0.0,0.0,0.0,0.0,0.0,0.0,0.0,0.0,0.0,0.0,0.0,0.0,0.0,0.0,0.0,-6.0561,-6.0905,-6.046,-6.079,-6.0919,0.0,0.0,0.0,0.0,0.0,0.0,0.0,0.0,0.0,-6.7108,-6.8778,-7.0072,-7.0946,-7.1728,-7.2548,-7.3461,-7.3899,-7.4605,-7.548,-7.5987,-7.6217,-7.6133,-7.5311,-7.3774,-7.1579,-6.8012,-6.5859,-6.4589,0.0,0.0,0.0,0.0,0.0,-6.2974,-6.4282,-6.4436,0.0,0.0,0.0,0.0,0.0,0.0,0.0,0.0,0.0,0.0,0.0,0.0,0.0,-6.0781,-6.0781,-6.0781,-6.0781,-6.0781,-6.0781,0.0,-6.0089,-5.9396,-5.905,0.0,0.0,0.0,0.0,-5.855,-5.8934,-5.9704,-6.0358,-6.0742,-5.9319,-5.8434,-5.8819,-5.6862,-5.5813,-5.6198,-5.5819,-5.5593,-5.5508,-5.5593,-5.5593,0.0,0.0,0.0,0.0,0.0,0.0,0.0,0.0,0.0,0.0,0.0,0.0,0.0,0.0,0.0,0.0,0.0,0.0,0.0,0.0,0.0,0.0,0.0,0.0,0.0,0.0,0.0,0.0,-6.1211,-6.1784,-6.0537,-6.1478,-6.1784,0.0,0.0,0.0,0.0,0.0,0.0,-6.4508,-6.6514,-6.8464,-7.0209,-7.1876,-7.3172,-7.4101,-7.4331,-7.4883,-7.5759,-7.6372,-7.7117,-7.7993,-7.8711,-7.8848,-7.8568,-7.7752,-7.6408,-7.4465,-7.0134,-6.7614,-6.6295,-6.4155,-6.3091,-6.2834,-6.3847,-6.4065,-6.4142,-6.5884,-6.5923,-6.5039,-6.418,0.0,-6.1848,-6.1003,0.0,0.0,0.0,0.0,-6.0734,-6.0757,0.0,-6.0769,-6.0781,-6.0781,-6.0781,-6.0781,-6.0781,-6.0781,0.0,-6.0281,-5.9742,-5.955,0.0,0.0,0.0,0.0,-5.9511,-5.9511,-6.0242,-6.0704,-6.0473,-5.9165,-5.8204,-5.7973,-5.6516,-5.5638,-5.5615,-5.5531,-5.5511,-5.5413,-5.5485,-5.5497,-5.5413,0.0,0.0,0.0,0.0,0.0,0.0,0.0,0.0,0.0,0.0,0.0,0.0,0.0,0.0,0.0,0.0,0.0,0.0,0.0,0.0,0.0,0.0,0.0,0.0,0.0,0.0,0.0,0.0,0.0,-6.069,-6.2562,0.0,0.0,0.0,0.0,-6.39,-6.4764,-6.6292,-6.8738,-6.9731,-7.103,-7.2766,-7.4448,-7.5709,-7.6512,-7.7353,-7.8229,-7.9139,-7.9177,-7.971,-8.0601,-8.0639,-8.0217,-7.9374,-7.8585,-7.7226,-7.5424,-7.2778,-7.0292,-6.8084,-6.7055,-6.5726,-6.4551,-6.6134,-6.6183,-6.5723,-6.7487,-6.7487,-6.6657,-6.5761,-6.3806,-6.1671,-6.0866,-6.0597,0.0,0.0,-6.0597,-6.061,-6.0685,-6.0697,-6.071,-6.0769,-6.0781,-6.0781,-6.0781,-6.0781,-6.0781,0.0,-6.0742,-6.0473,-5.9627,0.0,-5.9165,-5.8396,-5.8973,-5.9511,-5.9511,-6.0242,-6.0473,-5.9665,-5.8819,-5.7973,-5.7137,-5.6203,-5.5682,-5.5577,-5.5615,-5.5543,-5.5485,-5.5425,-5.5463,-5.5473,-5.5485,0.0,0.0,0.0,0.0,0.0,0.0,0.0,0.0,0.0,0.0,0.0,0.0,0.0,0.0,0.0,0.0,0.0,0.0,0.0,0.0,0.0,0.0,0.0,0.0,0.0,0.0,0.0,0.0,-6.3021,-6.5528,0.0,-6.5375,-6.549,-6.6139,-6.7324,-6.8165,-6.9502,-7.1527,-7.2941,-7.4469,-7.615,-7.7335,-7.8328,-7.913,-7.9436,-7.976,-8.0103,-8.0103,-8.0274,-8.0616,-8.0632,-8.0211,-7.9371,-7.9118,-7.799,-7.6216,-7.4784,-7.2493,-6.9702,-6.8254,-6.7027,-6.612,-6.6681,-6.6706,-6.6591,-6.7779,-6.8024,-6.7487,-6.6054,-6.4266,-6.2502,-6.1748,-6.1876,-6.2043,-6.1005,-6.1144,-6.1452,-6.0899,-6.0757,-6.0757,-6.0781,-6.0781,-6.0781,-6.0781,-6.0781,-6.0781,-6.0781,-6.0781,-6.0704,-6.0396,-6.0319,-6.0242,-5.9935,-6.0165,-6.0319,-6.0319,-6.0127,-5.9858,-5.955,-5.828,-5.7319,-5.7022,-5.617,-5.5626,-5.552,-5.5511,-5.5463,-5.544,-5.5415,-5.5415,-5.5428,-5.5439,-5.5476,0.0,0.0,0.0,0.0,0.0,0.0,0.0,0.0,0.0,0.0,0.0,0.0,0.0,0.0,0.0,0.0,0.0,0.0,0.0,0.0,0.0,0.0,0.0,0.0,0.0,0.0,-6.6598,-6.633,-6.9043,-7.0457,-6.9273,-6.9425,-7.0075,-7.1221,-7.2329,-7.359,-7.5042,-7.6418,-7.7564,-7.8404,-7.9245,-7.9971,-8.0506,-8.0506,-8.0506,-8.0506,-8.0506,-8.0506,-8.0506,-8.0542,-8.0121,-7.9302,-7.905,-7.8094,-7.6647,-7.5806,-7.4078,-7.1727,-7.0003,-6.8831,-6.8157,-6.8089,-6.7936,-6.7706,-6.8012,-6.8089,-6.7782,-6.5791,-6.4374,-6.3316,-6.2527,-6.2464,-6.2438,-6.1365,-6.1275,-6.139,-6.0839,-6.0685,-6.0697,-6.071,-6.0722,-6.0722,-6.0722,-6.0722,-6.0722,-6.0722,-6.0757,-6.0781,-6.0781,-6.0781,-6.0781,-6.0781,-6.0781,-6.0781,-6.0781,-6.005,-5.9396,-5.9127,-5.7819,-5.6857,-5.6566,-5.6236,-5.5911,-5.5499,-5.5744,-5.5721,-5.5403,-5.5403,-5.5403,-5.5403,-5.5403,-5.5439,-5.552,0.0,0.0,0.0,0.0,0.0,0.0,0.0,0.0,0.0,0.0,0.0,0.0,0.0,0.0,0.0,0.0,0.0,0.0,0.0,0.0,0.0,0.0,0.0,-6.293,-6.6636,-6.9655,-7.0495,-7.2826,-7.3743,-7.21,-7.2711,-7.3934,-7.5577,-7.7182,-7.8481,-7.9378,-8.0124,-8.0162,-7.9416,-8.0086,-8.0506,-8.0506,-8.0506,-8.0506,-8.0506,-8.0506,-8.0506,-8.0506,-8.0506,-8.0047,-7.9225,-7.8366,-7.7487,-7.6609,-7.5768,-7.4966,-7.4049,-7.2367,-7.127,-7.0608,-7.0435,-6.9884,-6.9082,-6.8203,-6.7859,-6.7439,-6.5046,-6.4244,-6.4053,-6.3159,-6.2319,-6.1631,-6.1593,-6.1072,-6.0474,-6.0504,-6.048,-6.0506,-6.0559,-6.0585,-6.0585,-6.0585,-6.0585,-6.0623,-6.0623,-6.0697,-6.0781,-6.0781,-6.0781,-6.0781,-6.0781,-6.0781,0.0,-6.0742,-5.9973,-5.9127,-5.8385,-5.7511,-5.6643,-5.5742,-5.6478,-5.656,-5.5477,-5.6254,-5.6344,-5.5441,-5.5403,-5.5403,-5.5403,-5.5403,-5.5465,-5.5577,0.0,0.0,0.0,0.0,0.0,0.0,0.0,0.0,0.0,0.0,0.0,0.0,0.0,0.0,0.0,0.0,0.0,0.0,0.0,0.0,0.0,-6.3121,-6.3847,-6.3847,-6.9043,-7.2711,-7.2329,-7.6112,-7.8366,-7.7314,-7.7946,-7.8901,-7.9971,-8.0506,-8.1117,-8.1939,-8.1652,-8.1347,-8.1117,-8.0697,-8.0506,-8.0506,-8.0506,-8.0506,-8.0506,-8.0506,-8.0506,-8.0506,-8.0506,-7.9704,-7.8328,-7.8099,-7.7182,-7.5768,-7.4927,-7.4431,-7.4087,-7.3055,-7.2117,-7.1331,-7.0648,-6.9884,-6.9082,-6.8203,-6.7515,-6.6827,-6.549,-6.4688,-6.4053,-6.3231,-6.2825,-6.2494,-6.1898,-6.1605,-6.1337,-6.0737,-6.0559,-6.0597,-6.061,-6.0623,-6.066,-6.066,-6.0697,-6.0734,-6.0734,-6.0757,-6.0757,-6.066,-6.0635,-6.0635,-6.0635,-6.0147,0.0,-5.9727,-5.8457,-5.7762,-5.8174,-5.7455,-5.6829,-5.6548,-5.679,-5.6502,-5.5465,-5.5631,-5.5682,-5.5403,-5.5403,-5.5403,-5.5403,-5.5403,-5.5427,0.0,0.0,0.0,0.0,0.0,0.0,0.0,0.0,0.0,0.0,0.0,0.0,0.0,0.0,0.0,0.0,0.0,0.0,0.0,0.0,0.0,0.0,-6.5643,-6.7492,-6.7836,-7.1833,-7.5348,-7.6991,-7.978,-8.1499,-8.1385,-8.1805,-8.2302,-8.2798,-8.2837,-8.3066,-8.3524,-8.2455,-8.1805,-8.1805,-8.0964,-8.0506,-8.0506,-8.0506,-8.0506,-8.0506,-8.0506,-8.0315,-8.0009,-8.0009,-7.9283,0.0,-7.7602,-7.6914,-7.5921,-7.4698,-7.4201,0.0,0.0,0.0,0.0,0.0,-6.9387,-6.8508,-6.7706,-6.7095,-6.656,-6.5681,-6.507,-6.455,-6.3753,-6.3499,-6.3246,-6.2049,-6.1718,-6.1579,-6.0723,-6.0531,-6.0531,-6.0531,-6.0533,-6.0572,-6.0572,-6.0597,-6.0623,-6.0623,0.0,0.0,-6.0559,-6.061,-6.0673,-6.0673,-6.0287,-5.9991,-5.9917,-5.8765,-5.7997,-5.8189,-5.7397,-5.6683,-5.6314,-5.6644,0.0,0.0,0.0,-5.5772,-5.5441,-5.5403,0.0,0.0,0.0,-5.558,-5.5924,0.0,0.0,0.0,-5.5544,-5.5143,0.0,0.0,0.0,0.0,0.0,0.0,0.0,0.0,0.0,0.0,0.0,0.0,0.0,0.0,0.0,0.0,-6.8814,-7.2291,-7.3667,-7.5195,-7.7831,-8.2187,-8.3028,-8.3563,-8.4212,-8.4365,-8.4441,-8.4441,-8.4441,-8.4403,-8.4289,0.0,0.0,0.0,0.0,-8.0506,-8.0506,-8.0506,-8.0506,-8.0506,-8.0506,-8.0086,-7.9302,-7.9378,-7.8863,-7.7831,-7.7144,-7.6723,-7.6418,-7.4775,-7.3972,-7.3628,-7.2253,-7.1642,-7.1336,-6.9769,-6.8661,0.0,0.0,0.0,0.0,-6.5566,-6.5184,-6.4993,-6.4267,-6.3938,-6.348,-6.2013,-6.1516,-6.1287,-6.0599,-6.0422,-6.0422,-6.0422,-6.0422,-6.0422,-6.0422,-6.0436,-6.0398,-6.0398,-6.0491,-6.0493,-6.0493,-6.0648,-6.0757,-6.0757,-6.0692,-6.0654,-6.0654,-5.9761,-5.888,-5.8265,0.0,0.0,-5.5796,-5.6381,-5.6433,-5.5607,-5.6193,-5.6193,-5.5441,-5.5403,-5.5403,-5.5403,-5.5492,-5.5912,-5.669,-5.6855,-5.7352,-5.8054,-5.6579,-5.5918,0.0,0.0,0.0,0.0,0.0,0.0,0.0,0.0,0.0,0.0,0.0,0.0,0.0,0.0,0.0,-6.8508,-7.1183,-7.4201,-7.8443,-7.9933,-8.0697,-8.0964,-8.3372,-8.4824,-8.4327,-8.49,-8.5282,-8.5282,-8.5282,-8.4976,-8.4327,-8.3333,0.0,-8.1805,-8.0964,-8.0506,-8.0506,-8.0506,-8.0506,-8.0506,0.0,0.0,-7.934,-7.9971,-7.9054,-7.6991,-7.7526,-7.6991,-7.5577,-7.3934,-7.2406,-7.1183,-7.1565,-7.1259,-7.0533,-6.954,-6.8661,-6.7782,-6.698,-6.6254,-6.5528,-6.4688,-6.3962,-6.335,-6.3197,-6.2204,0.0,-6.1516,-6.1134,-6.0599,-6.046,-6.0422,-6.0422,-6.0422,-6.0425,-6.0466,-6.0466,-6.0506,-6.0546,-6.0546,-6.0559,-6.0559,-6.0559,-6.0597,-6.0623,-6.0623,-6.0097,-5.9648,-5.9599,-5.828,-5.7574,-5.815,-5.7409,-5.709,-5.7616,-5.7119,-5.6688,-5.6448,-5.5938,-5.5568,-5.5403,-5.5403,-5.5403,-5.5403,-5.6027,-5.646,-5.6613,-5.7405,-5.7889,-5.8092,-5.7808,-5.7689,0.0,0.0,0.0,0.0,0.0,0.0,0.0,0.0,0.0,0.0,0.0,-6.0752,-6.2051,0.0,-6.7935,-7.168,-7.4087,-7.6685,-8.0009,-8.1232,-8.1958,-8.234,-8.425,-8.5358,-8.4938,-8.5282,-8.532,-8.4938,-8.4518,-8.4059,-8.3677,-8.2416,-8.1767,-8.1805,-8.0964,-8.0506,-8.0506,-8.0506,-8.0506,-8.0506,-8.0506,-8.0086,-7.9302,-7.9245,-7.8328,-7.6685,-7.6723,-7.6265,-7.5403,-7.4125,-7.2597,-7.1107,-7.1527,-7.0916,-6.9693,-6.8852,-6.8012,-6.7171,-6.633,-6.549,-6.4726,-6.432,-6.3618,-6.2815,-6.2395,-6.1975,-6.1554,-6.1134,-6.0981,-6.0905,-6.0485,-6.0422,-6.0422,-6.0422,-6.045,-6.0464,-6.0464,-6.0491,-6.048,-6.048,-6.0545,-6.0533,-6.0533,-6.0597,-6.0585,-6.0585,-6.0265,-6.0009,-5.9933,-5.9204,-5.8552,-5.8131,-5.8017,-5.7851,-5.7429,-5.6983,-5.6677,-5.6652,-5.5836,-5.5403,-5.5403,-5.5403,-5.5594,-5.5976,-5.6435,-5.7047,-5.7848,-5.8373,-5.8847,-5.9307,-5.937,-5.8983,0.0,0.0,0.0,0.0,0.0,0.0,0.0,-5.8498,-5.9147,-6.0981,-6.2013,-6.3121,-6.484,-6.8356,-7.1756,-7.4087,-7.6609,-7.8787,-8.0277,-8.1232,-8.2302,-8.3639,-8.4518,-8.5129,-8.5473,-8.5206,-8.4824,-8.4327,-8.3486,-8.2913,-8.276,-8.1499,-8.1003,-8.1538,-8.085,-8.0506,-8.0506,-8.0506,-8.0506,-8.0506,-8.0506,-7.9971,-7.9016,-7.8672,-7.7755,-7.6418,-7.5768,-7.5386,-7.5195,-7.4507,-7.3208,-7.168,-7.168,-7.0763,-6.9311,-6.847,-6.763,-6.6827,-6.5948,-6.5108,-6.442,-6.442,-6.3847,-6.3006,-6.2319,-6.2357,-6.2357,-6.1019,-6.0981,-6.1211,-6.0575,-6.0422,-6.0422,-6.0422,-6.0422,-6.0422,-6.0422,-6.0422,-6.0422,-6.0422,-6.0425,-6.0466,-6.0466,-6.0545,-6.0546,-6.061,-6.0585,-6.0585,-6.0585,-6.0418,-5.9727,-5.8387,-5.8641,-5.8334,-5.6996,-5.7034,-5.7034,-5.6855,-5.6091,-5.5632,-5.5632,-5.5479,-5.5785,-5.6587,-5.6805,-5.7634,-5.9095,-5.933,-5.9829,-6.048,-6.0559,-5.9969,-5.7221,-5.6229,-5.5746,-5.632,-5.6511,-5.7199,0.0,-6.0676,-6.1898,-6.4344,-6.5528,-6.6636,-6.8317,-7.0877,-7.3284,-7.508,-7.7487,-7.9474,-8.0353,-8.1232,-8.1881,-8.2073,-8.2798,-8.3868,-8.5358,-8.4136,-8.3563,-8.425,-8.3486,-8.2684,-8.1958,-8.1767,-8.1347,-8.0659,-8.0544,-8.0506,-8.0506,-8.0506,-8.0506,-8.0506,-8.0506,-7.9665,-7.8175,-7.9589,-7.8519,-7.5633,-7.5556,-7.5042,-7.4354,-7.424,-7.3208,-7.168,-7.168,-7.1107,-7.019,-6.9349,-6.8508,-6.763,-6.6827,-6.5987,-6.5261,-6.5261,-6.4726,-6.4053,-6.3938,-6.2892,-6.1707,-6.1516,-6.1019,-6.0485,-6.0408,-6.0422,-6.0422,-6.0422,-6.0422,-6.0422,-6.0422,-6.0422,-6.0422,-6.0422,-6.0422,-6.0422,-6.0422,-6.0436,-6.0439,-6.0559,-6.0585,-6.0585,-6.0585,-5.992,-5.9371,-5.9179,-5.8604,-5.8119,-5.7877,-5.8489,-5.8578,-5.781,-5.6931,-5.6473,-5.6473,-5.5785,-5.5785,-5.6587,-5.7365,-5.8192,-5.9095,-5.9942,-6.0403,-6.048,-6.0623,-6.0608,-5.6931,-5.6358,-5.6282,-5.716,-5.8421,-5.9911,-6.1516,-6.3274,-6.4993,-6.6522,-6.7935,-6.9387,-7.1107,-7.3476,-7.5692,0.0,-7.8978,-8.0277,-8.1156,-8.0735,-8.0353,-8.0353,-7.9742,-8.0582,-8.3754,-8.341,-8.2951,-8.2837,-8.2493,-8.192,-8.1079,-8.1041,-8.0888,-8.0506,-8.0506,-8.0506,-8.0506,-8.0506,-8.0506,-8.0506,-8.0506,-8.0124,-7.9436,-7.9169,-7.7755,-7.5518,-7.5518,-7.5004,-7.4201,-7.4201,-7.3208,-7.168,-7.168,-7.1183,-7.0304,-6.9502,-6.8661,-6.7782,-6.698,-6.5834,-6.4688,-6.4688,-6.4114,-6.335,-6.2853,-6.2166,-6.1516,-6.1019,-6.0637,-6.0422,-6.0422,-6.0422,-6.0422,-6.0422,-6.0422,-6.0422,-6.0422,-6.0422,-6.0422,-6.0422,-6.0422,-6.0422,-6.0422,-6.0422,-6.0436,-6.0491,-6.0466,-6.0466,-6.0466,-6.016,-5.9917,-5.9917,-5.919,-5.8679,-5.8653,-5.85,-5.8079,-5.7199,-5.6778,-5.6587,-5.6587,-5.674,-5.7237,-5.8039,-5.8421,-5.8994,-5.9873,-6.0259,-6.0439,-6.048,-6.0546,-6.0623,-5.6765,-5.6778,-5.7275,-5.8574,-6.0637,-6.2662,-6.4,-6.6063,-6.8012,-6.9082,-7.0457,-7.1909,-7.3399,-7.5539,-7.7487,-7.8748,-7.9818,-8.0621,-8.1041,-7.9627,-7.8499,-7.827,-7.6494,-7.6685,-8.0238,-8.1003,-8.1308,-8.1423,-8.1232,-8.0926,-8.0506,-8.0506,-8.0506,-8.0506,-8.0506,-8.0506,-8.0506,-8.0506,-8.0506,-8.0506,-8.0506,-8.0277,-7.9742,-7.8061,-7.6761,-7.5806,-7.5594,-7.5119,-7.4545,-7.4545,-7.3552,-7.2062,-7.2062,-7.1374,-7.0342,-6.9769,-6.8852,-6.7782,-6.698,-6.5757,-6.4535,-6.4535,-6.4114,-6.3465,-6.2853,-6.2471,-6.2204,-6.1607,-6.1249,-6.1096,-6.1096,-6.1096,-6.1096,-6.1096,-6.0905,-6.0714,-6.0714,-6.0561,-6.0422,-6.0422,-6.0422,-6.0422,-6.0422,-6.0422,-6.0422,-6.0422,-6.0422,-6.0422,-6.0422,-6.0422,-6.0422,-6.0422,-5.9835,-5.9376,-5.9109,-5.8574,-5.7963,-5.7313,-5.7084,-5.7046,-5.7275,-5.7695,-5.8268,-5.9057,-5.9123,-5.9543,-6.0422,-6.045,-6.0491,-6.048,-6.052,-6.0585,-5.6521,-5.7199,-5.8421,-6.0867,-6.2815,-6.4779,-6.7171,-6.9082,-7.0763,-7.2482,-7.3514,-7.4354,-7.5271,-7.68,-7.7984,-7.8022,-7.9436,-8.0238,-7.9493,-7.787,-7.6494,-7.5692,-7.3399,-7.252,0.0,-7.5959,-7.7908,-8.0353,-7.9818,-7.9704,-8.0468,-8.0506,-8.0506,-8.0506,-8.0506,-8.0506,-8.0506,-8.0506,-8.0506,-8.0506,-8.0506,-7.9665,-7.8022,-7.6341,-7.5959,-7.6609,-7.5844,-7.548,-7.548,-7.548,-7.4469,-7.2941,-7.2941,-7.1909,-7.0419,-7.0381,-6.9311,-6.7782,-6.698,-6.6101,-6.5375,-6.5375,-6.5337,-6.5337,-6.5299,-6.4726,-6.4129,-6.4091,-6.3465,-6.2815,-6.2815,-6.2815,-6.2815,-6.2815,-6.2166,-6.1554,-6.1554,-6.0943,-6.0422,-6.0422,-6.0422,-6.0422,-6.0422,-6.0422,-6.0422,-6.0422,-6.0422,-6.0422,-6.0422,-6.0422,-6.0422,-6.0422,-6.037,-6.0026,-5.9185,-5.9071,-5.9057,-5.9033,-5.8307,-5.823,-5.8994,-5.8307,-5.8268,-5.9057,-5.9138,-5.9611,-6.0422,-6.0506,-6.0546,-6.048,-6.0623,-6.0648,-5.7248,-5.888,-6.0828,-6.2815,-6.5452,-6.7859,-6.9234,-7.0877,-7.2138,-7.2138,-7.1871,-7.1603,-7.1374,-7.2215,-7.3514,-7.5195,-7.6876,-7.8481,-7.9895,-7.913,-7.7258,-7.4201,-7.3093,0.0,0.0,0.0,0.0,-7.8596,-7.8596,-7.9054,-8.043,-8.0506,-8.0506,-8.0506,-8.0506,-8.0506,-8.0506,-8.0506,-8.0506,-8.0506,-7.9971,-7.9092,-7.7946,-7.68,-7.5844,-7.508,-7.5348,-7.4868,-7.3858,-7.4431,-7.3628,-7.2138,-7.2138,-7.1412,-7.0419,-7.0419,-6.9731,-6.8623,-6.7782,-6.656,-6.5413,-6.5413,-6.5413,-6.5299,-6.4764,-6.4435,-6.4091,-6.3503,-6.3121,-6.2892,-6.2892,-6.2892,-6.2892,-6.2892,-6.2701,-6.2471,-6.2471,-6.2242,-6.1898,-6.1325,-6.1211,-6.1019,-6.0499,-6.0422,-6.0422,-6.0422,-6.0422,-6.0422,-6.0422,-6.0422,-6.0422,-6.0422,-6.0422,-6.0064,-5.9185,-5.9095,-5.888,-5.8345,-5.8536,-5.8842,-5.9095,-5.9415,-5.9682,-5.995,-5.9977,-6.013,-6.0422,-6.0464,-6.0477,-6.045,-6.0506,-6.0559,-5.8776,-6.0828,-6.3006,-6.5008,-6.7821,-7.0228,-7.0763,-7.1985,-7.2673,-7.1489,-7.0304,-6.9273,-6.8432,-6.8967,-7.0037,-7.168,-7.3361,-7.5348,-7.7908,-7.6761,-7.5004,-7.3208,-7.1909,-7.0763,0.0,0.0,0.0,-7.6838,-7.7678,-7.8596,-8.0009,-8.0353,-8.0506,-8.0506,-8.0506,-8.0506,-8.0506,-8.0506,-8.0353,-8.0047,-7.9207,-7.8366,-7.7526,-7.6647,-7.5692,-7.4698,-7.5271,-7.4889,-7.3934,-7.4431,-7.3667,-7.2176,-7.2482,-7.168,-7.0457,-7.0763,-7.0151,-6.912,-6.8547,-6.7439,-6.6254,-6.5948,-6.5872,-6.5719,-6.4879,-6.4611,-6.4496,-6.3962,-6.3809,-6.3809,-6.3809,-6.3809,-6.3809,-6.3809,-6.3579,-6.335,-6.335,-6.3121,-6.2739,-6.2166,-6.2051,-6.1898,-6.1363,-6.1019,-6.0714,-6.046,-6.0422,-6.0422,-6.0422,-6.0422,-6.0422,-6.0422,-6.0422,-6.0064,-5.9185,-5.9095,-5.888,-5.8345,-5.8803,-5.9262,-5.9568,-6.0102,-6.0422,-6.0422,-6.0398,-6.0398,-6.0422,-6.0464,-6.0477,-6.045,-6.048,-6.0584,-6.0948,-6.3083,-6.5008,-6.7362,-6.9884,-7.1718,-7.1603,-7.2215,-7.2291,-7.0457,-6.8738,-6.7324,-6.6522,0.0,-6.763,-6.7973,-6.9349,-7.1374,-7.4125,-7.1756,-7.0572,0.0,0.0,0.0,0.0,0.0,0.0,-7.5251,0.0,-7.829,-7.9302,-8.0086,-8.0506,-8.0506,-8.0506,-8.0506,-8.0506,-8.0506,-8.0124,-7.934,-7.8443,-7.7564,-7.6723,-7.5883,-7.548,-7.5442,-7.548,-7.5462,-7.5442,-7.548,-7.4507,-7.3093,-7.3858,-7.2597,-7.0495,-7.1336,-7.061,-6.9273,-6.9273,-6.8661,-6.7782,-6.7018,-6.6751,-6.6598,-6.5796,-6.5528,-6.5528,-6.549,-6.5452,-6.5452,-6.5413,-6.5413,-6.5413,-6.5413,-6.4802,-6.4282,-6.4282,-6.3618,-6.3006,-6.2968,-6.293,-6.2892,-6.2892,-6.2166,-6.1325,-6.0575,-6.0422,-6.0422,-6.0422,-6.0422,-6.0422,-6.0422,-6.0422,-6.0064,-5.9262,-5.9185,-5.9185,-5.9185,-5.9185,-5.9529,-6.0384,-6.0422,-6.0422,-6.0422,-6.0439,-6.0439,-6.0422,-6.0545,-6.0584,-6.0518,-6.0546,-6.061,-6.2801,-6.5681,-6.8088,-6.8699,-7.0763,-7.2176,-7.0266,-6.9999,-6.9311,-6.6369,-6.442,-6.2968,-6.2128,-6.2166,-6.3962,-6.8967,-7.0113,0.0,-7.8099,-7.764,0.0,-7.5021,-7.4622,-7.3896,-7.2482,-7.3284,0.0,0.0,-7.6227,-7.7296,-8.0047,-8.0391,-8.0506,-8.0506,-8.0506,-8.0506,-8.0506,-8.0506,-8.0391,-8.0162,-7.871,-7.787,-7.764,-7.615,-7.5157,-7.4584,-7.5233,-7.5119,-7.4584,-7.5233,-7.4507,-7.3017,-7.3246,-7.2138,-7.0419,-7.0648,-7.0457,-7.0113,-7.0113,-6.912,-6.7859,-6.7668,-6.7591,-6.7553,-6.7324,-6.7247,-6.7133,-6.656,-6.6369,-6.6216,-6.5566,-6.5413,-6.5413,-6.5413,-6.5222,-6.507,-6.507,-6.4917,-6.4573,-6.3962,-6.335,-6.2892,-6.2892,-6.2166,-6.1516,-6.1325,-6.079,-6.0422,-6.0422,-6.0422,-6.0422,-6.0422,-6.0422,-6.0293,-6.0102,-6.0064,-6.0064,-6.0064,-6.0064,-6.0179,-6.0384,-6.0422,-6.0422,-6.0422,-6.0436,-6.0436,-6.0422,-6.0412,-6.0425,-6.045,-6.048,-6.0533,-6.6139,-6.8585,-7.0304,-7.0304,-7.1068,-7.1183,-6.8661,-6.7515,-6.6139,-6.3174,-6.1172,-5.9835,-5.9376,-5.93,-6.1019,-6.6254,0.0,0.0,-7.6303,-7.6494,-7.5959,-7.5997,-7.6418,0.0,-7.4775,-7.5462,-7.6532,0.0,-7.7429,-7.8002,-7.9856,-8.0315,-8.0506,-8.0506,-8.0506,-8.0506,-8.0506,-8.0506,-8.0315,-7.9971,-7.9016,-7.8175,-7.7411,-7.6456,-7.5577,-7.4813,0.0,-7.5233,-7.4813,-7.531,-7.4698,-7.3552,-7.3934,-7.3055,-7.1565,-7.1947,-7.1603,-7.103,-7.1412,-7.0686,-6.9425,-6.8699,-6.847,-6.8394,-6.8012,-6.7897,-6.7706,-6.6942,-6.6713,-6.6522,-6.5643,-6.5681,-6.5872,-6.549,-6.5681,-6.5872,-6.549,-6.5413,-6.5261,-6.4802,-6.4344,-6.3885,-6.3541,-6.3045,-6.2471,-6.1707,-6.1211,-6.079,-6.046,-6.0422,-6.0422,-6.0422,-6.0422,-6.0422,-6.0422,-6.0422,-6.0422,-6.0422,-6.0422,-6.0422,-6.0422,-6.0422,-6.0422,-6.0422,-6.0422,-6.0422,-6.0422,-6.0422,-6.0422,-6.0422,-6.045,-6.048,-6.9693,-7.1298,-7.1985,-7.1773,-7.103,-6.9693,-6.698,-6.507,-6.3097,-6.046,-5.8727,-5.7772,-5.7886,-5.7886,-5.9185,-6.3121,-6.4267,-6.6789,-7.2826,-7.3017,-7.3667,-7.6685,-7.7144,-7.7182,-7.7182,-7.7182,-7.7831,-7.934,-7.9454,-7.9454,-7.9454,-8.0124,-8.0506,-8.0506,-8.0506,-8.0506,-8.0506,-8.0506,-8.0162,-7.9454,-7.934,-7.8519,-7.7029,-7.6914,-7.6418,-7.5653,0.0,0.0,-7.5518,-7.5518,-7.5004,-7.4278,-7.5042,-7.4354,-7.3093,-7.3781,-7.3055,-7.1811,-7.2559,-7.2253,-7.1298,-6.996,-6.954,-6.9349,-6.8508,-6.8241,-6.805,-6.7247,-6.7018,-6.6827,-6.5948,-6.6292,-6.6674,-6.591,-6.6216,-6.6483,-6.5757,-6.549,-6.5413,-6.5413,-6.5413,-6.5184,-6.4458,-6.4282,-6.3709,-6.2166,-6.1745,-6.1363,-6.0637,-6.0446,-6.0422,-6.0422,-6.0422,-6.0422,-6.0422,-6.0422,-6.0422,-6.0422,-6.0422,-6.0422,-6.0422,-6.0422,-6.0422,-6.0422,-6.0422,-6.0422,-6.0422,-6.0422,-6.0422,-6.0422,-6.0422,-6.045,-7.0724,-7.2597,-7.3437,-7.2062,-7.103,-6.9387,-6.5528,-6.3274,-6.1134,-5.7925,-5.7008,-5.7046,-5.7772,-5.7886,-6.0141,-6.698,-6.763,-6.9578,-7.6188,-7.6991,-7.7373,0.0,-7.9436,-7.9856,-7.9856,-7.9856,0.0,0.0,0.0,-8.0277,-8.0277,-8.043,-8.0506,-8.0506,-8.0506,-8.0506,-8.0506,-8.0506,-8.043,-8.0277,-7.9627,-7.9149,-7.8825,-7.8099,-7.7296,-7.6494,0.0,0.0,-7.5518,-7.5518,-7.5004,-7.424,-7.4393,-7.3858,-7.3017,-7.317,-7.2559,-7.1735,-7.1871,-7.1336,-7.0686,-7.1145,-7.1259,-7.1107,-7.0228,-6.996,-6.9807,-6.9005,-6.8776,-6.8585,-6.7668,-6.7591,-6.763,-6.7477,-6.7056,-6.6674,-6.6522,-6.591,-6.5413,-6.5413,-6.5413,-6.5375,-6.5222,-6.4649,-6.4091,-6.3785,-6.251,-6.1554,-6.1402,-6.079,-6.0422,-6.0422,-6.0422,-6.0422,-6.0422,-6.0422,-6.0422,-6.0422,-6.0422,-6.0422,-6.0422,-6.0422,-6.0422,-6.0422,-6.0422,-6.0422,-6.0422,-6.0422,-6.0422,-6.0422,-6.0422,-6.045,-7.3361,-7.4584,-7.4469,-7.2788,-7.0724,-6.8012,-6.3809,-6.1211,-5.8956,-5.6473,-5.5976,-5.6243,-5.7084,-5.7581,-5.9644,-6.507,-6.5948,-6.7859,-7.3284,-7.5195,-7.6494,-7.7793,-7.9092,-8.0047,-8.0468,-8.0124,-8.0047,0.0,0.0,-8.0506,-8.0506,-8.0506,-8.0506,-8.0506,-8.0506,-8.0506,-8.0506,-8.0506,-8.0506,-8.0506,-8.0086,-7.9704,-7.9302,-7.8863,-7.8213,-7.7335,-7.6914,0.0,-7.6074,-7.5671,-7.5233,-7.4889,-7.4889,-7.4622,-7.4278,-7.4278,-7.3476,-7.2444,-7.2864,-7.2176,-7.1145,-7.1565,-7.1374,-7.0954,-7.0533,-7.0419,-7.0228,-6.9425,-6.9196,-6.9005,-6.8126,-6.8241,-6.8356,-6.7477,-6.6636,-6.6025,-6.6025,-6.5719,-6.5413,-6.5413,-6.5413,-6.5413,-6.5413,-6.507,-6.4688,-6.4282,-6.3465,-6.2624,-6.1707,-6.1249,-6.0867,-6.046,-6.0422,-6.0422,-6.0422,-6.0422,-6.0422,-6.0422,-6.0422,-6.0422,-6.0422,-6.0422,-6.0422,-6.0422,-6.0422,-6.0422,-6.0422,-6.0422,-6.0422,-6.0422,-6.0422,-6.0436,-7.5157,-7.5844,-7.5042,-7.317,-7.0266,-6.6789,-6.2548,-5.9682,-5.7428,-5.5747,-5.5556,-5.5899,-5.674,-5.7581,-5.9262,-6.2624,-6.3732,-6.5643,-6.9807,-7.2444,-7.4545,-7.6227,-7.7946,0.0,-8.0162,-7.9665,0.0,0.0,0.0,0.0,-8.0506,-8.0506,-8.0506,-8.0506,-8.0506,-8.0506,-8.0506,-8.0506,-8.0506,-8.0506,-8.0506,-8.0162,-7.9569,-7.9569,-7.9092,-7.8213,-7.7373,0.0,0.0,-7.5806,-7.5518,-7.5518,-7.5518,-7.5518,-7.5518,-7.5518,-7.4545,-7.3323,-7.3781,-7.2941,-7.168,-7.1489,-7.1068,-7.0648,-7.0457,-7.0419,-7.0266,-6.9616,-6.9464,-6.9311,-6.8623,-6.8929,-6.9043,-6.7362,-6.6598,-6.6063,-6.5528,-6.5681,-6.5872,-6.5719,-6.5681,-6.5681,-6.5681,-6.5528,-6.5184,-6.4535,-6.432,-6.3632,-6.2089,-6.1898,-6.1516,-6.0485,-6.0422,-6.0422,-6.0422,-6.0422,-6.0422,-6.0422,-6.0422,-6.0422,-6.0422,-6.0422,-6.0422,-6.0422,-6.0422,-6.0422,-6.0422,-6.0422,-6.0422,-6.0422,-6.0422,-6.0422,-7.3896,-7.4966,-7.4889,-7.2444,-6.9846,-6.6789,-6.2548,-5.9682,-5.7428,-5.5747,-5.5976,-5.674,-5.7619,-5.8459,-6.0102,-6.3541,-6.4167,-6.5643,-6.9807,-7.1947,-7.3743,-7.5386,0.0,0.0,-7.934,-7.934,0.0,0.0,0.0,0.0,-8.0506,-8.0506,-8.0506,-8.0506,-8.0506,-8.0506,-8.0506,-8.0506,-8.0506,-8.0506,-8.0506,-8.0468,-8.0391,-8.0391,-7.9933,-7.9149,0.0,0.0,0.0,-7.5806,-7.5518,-7.5518,-7.5518,-7.5518,-7.5518,-7.5518,-7.4889,-7.401,-7.3323,-7.2482,-7.1565,-7.0801,-7.0992,-7.1412,-7.0648,-7.0419,-7.0364,-7.0304,-7.0304,-7.0266,-7.019,-7.0228,-6.9884,-6.8203,-6.8317,-6.8203,-6.591,-6.6598,-6.7439,-6.6713,-6.6598,-6.6598,-6.6598,-6.591,-6.5375,-6.5299,-6.4649,-6.3847,-6.2892,-6.2777,-6.2166,-6.0575,-6.0422,-6.0422,-6.0422,-6.0422,-6.0422,-6.0422,-6.0422,-6.0422,-6.0422,-6.0422,-6.0422,-6.0422,-6.0422,-6.0422,-6.0422,-6.0422,-6.0422,-6.0422,-6.0422,-6.0422,-7.3323,-7.4851,-7.4907,-7.2346,-6.9769,-6.6789,-6.2548,-5.9682,-5.7695,-5.7046,-5.674,-5.6855,-5.7734,-5.8574,-5.9568,-6.0905,-6.1554,-6.2815,-6.5528,-6.7362,-6.9616,-7.2826,-7.424,0.0,0.0,0.0,0.0,0.0,0.0,0.0,-8.0506,-8.0506,-8.0506,-8.0506,-8.0506,-8.0506,-8.0506,-8.0506,-8.0506,-8.0506,-8.0506,-8.0506,-8.0506,-8.0506,-8.0315,-7.9933,0.0,0.0,0.0,-7.6036,-7.5518,-7.5518,-7.5518,-7.5518,-7.5518,-7.5518,-7.4966,-7.4163,-7.3819,-7.2826,-7.1642,-7.1298,-7.1068,-7.0839,-7.0533,-7.0419,-7.0419,-7.0419,-7.0419,-7.0419,-7.0419,-7.0037,-6.9502,-6.8852,-6.8547,-6.8126,-6.7133,-6.7439,-6.7821,-6.7477,-6.74,-6.74,-6.74,-6.6713,-6.6178,-6.6178,-6.5452,-6.4611,-6.377,-6.3694,-6.3236,-6.2013,-6.144,-6.0943,-6.046,-6.0422,-6.0422,-6.0422,-6.0422,-6.0422,-6.0422,-6.0422,-6.0422,-6.0422,-6.0422,-6.0422,-6.0422,-6.0422,-6.0422,-6.0422,-6.0422,-6.0422,-7.1718,-7.3514,-7.376,-7.1221,-6.9043,-6.6445,-6.2204,-5.9682,-5.8192,-5.7963,-5.7581,-5.7542,-5.8154,-5.8918,-5.9491,-5.9491,-5.9988,-6.0981,-6.2662,-6.4153,-6.633,-6.9807,0.0,-7.3132,0.0,0.0,0.0,0.0,0.0,0.0,0.0,-8.0506,-8.0506,-8.0506,-8.0506,-8.0506,-8.0506,-8.0506,-8.0506,-8.0506,-8.0506,-8.0506,-8.0506,-8.0238,-8.0162,-8.0047,0.0,0.0,0.0,-7.6074,-7.5518,-7.5518,-7.5518,-7.5518,-7.5518,-7.5518,-7.5119,-7.4545,-7.4278,-7.3437,-7.2367,-7.1871,-7.1259,-7.0724,-7.0495,-7.0419,-7.0457,-7.0724,-7.0801,-7.0724,-7.0495,-6.9999,-6.9502,-6.9273,-6.889,-6.8508,-6.8012,-6.8279,-6.8585,-6.8317,-6.8279,-6.8279,-6.8279,-6.7591,-6.698,-6.6751,-6.6178,-6.5413,-6.4359,-6.4435,-6.4114,-6.3006,-6.2586,-6.2051,-6.1211,-6.0905,-6.0752,-6.0752,-6.0537,-6.0422,-6.0422,-6.0422,-6.0422,-6.0422,-6.0422,-6.0422,-6.0422,-6.0422,-6.0422,-6.0422,-6.0422,-6.0422,-6.8547,-7.0457,-7.1107,-6.8585,-6.7324,-6.5605,-6.1363,-5.972,-5.888,-5.8077,-5.8536,-5.9071,-5.9095,-5.9797,-6.0384,-6.0384,-6.0384,-6.0981,-6.2662,-6.3656,-6.484,0.0,0.0,-6.9616,0.0,0.0,0.0,0.0,0.0,0.0,0.0,-8.0506,-8.0506,-8.0506,-8.0506,-8.0506,-8.0506,-8.0506,-8.0506,-8.0506,-8.0506,-8.0506,-8.0468,-7.9684,-7.9302,0.0,0.0,0.0,0.0,-7.5844,-7.5518,-7.5518,-7.5518,-7.5518,-7.5518,-7.5518,-7.548,-7.5348,-7.4507,-7.4201,-7.3896,-7.2253,-7.168,-7.1527,-7.0648,-7.0419,-7.0572,-7.145,-7.168,-7.1489,-7.061,-7.0381,-7.019,-6.9387,-6.9807,-6.9922,-6.8241,-6.9196,-7.0151,-6.9349,-6.9196,-6.9196,-6.9196,-6.847,-6.763,-6.6827,-6.6713,-6.6063,-6.4435,-6.4879,-6.4764,-6.3083,-6.3656,-6.3809,-6.2968,-6.2089,-6.1593,-6.1593,-6.0828,-6.0422,-6.0422,-6.0422,-6.0422,-6.0422,-6.0422,-6.0422,-6.0422,-6.0422,-6.0422,-6.0422,-6.0422,-6.0422,-6.5222,-6.7416,-6.8623,-6.6674,-6.5605,-6.4344,-6.1784,-6.0141,-5.9224,-5.9529,-5.9338,-5.93,-5.9873,-6.0217,-6.0422,-6.0422,-6.0422,-6.0613,0.0,0.0,0.0,-6.7095,-7.1833,-7.5348,0.0,0.0,0.0,0.0,0.0,0.0,0.0,-8.0506,-8.0506,-8.0506,-8.0506,-8.0506,-8.0506,-8.0506,-8.0506,-8.0506,-8.0506,-8.0506,-8.0468,-7.9665,0.0,0.0,0.0,0.0,0.0,-7.5806,-7.5518,-7.5518,-7.5518,-7.5518,-7.5518,-7.5518,-7.5518,-7.548,-7.5157,-7.4698,-7.401,-7.2941,-7.2176,-7.1527,-7.0648,-7.0419,-7.0457,-7.0724,-7.1221,-7.1489,-7.0648,-7.0419,-7.0342,-7.0075,-7.0228,-7.0266,-6.9731,-7.0037,-7.0342,-7.0075,-7.0037,-7.0037,-7.0037,-6.9349,-6.8508,-6.763,-6.7515,-6.7133,-6.6063,-6.6139,-6.6101,-6.5566,-6.5222,-6.4458,-6.3006,-6.2089,-6.1593,-6.1593,-6.0828,-6.0422,-6.0422,-6.0422,-6.0422,-6.0422,-6.0422,-6.0422,-6.0422,-6.0422,-6.0422,-6.0422,-6.0422,-6.0422,-6.2204,-6.4344,-6.5681,-6.4305,-6.3847,-6.3274,-6.1554,-6.0332,-5.9759,-6.0307,-5.995,-5.9759,-6.0307,-6.0422,-6.0422,-6.0422,-6.0422,-6.0422,0.0,0.0,0.0,-6.7439,0.0,0.0,0.0,0.0,0.0,0.0,0.0,0.0,0.0,0.0,-8.0506,-8.0506,-8.0506,-8.0506,-8.0506,-8.0506,-8.0506,-8.0506,-8.0506,-8.0353,-8.0009,-7.9169,0.0,0.0,0.0,0.0,0.0,-7.5692,-7.5518,-7.5518,-7.5518,-7.5518,-7.5518,-7.5518,-7.5518,-7.5518,-7.5518,-7.5119,-7.4545,-7.3705,-7.2673,-7.1527,-7.0648,-7.0648,-7.0839,-7.0495,-7.103,-7.1489,-7.0648,-7.0419,-7.0419,-7.0419,-7.0419,-7.0419,-7.0419,-7.0419,-7.0419,-7.0419,-7.0419,-7.0419,-7.0419,-6.9999,-6.9387,-6.8508,-6.8394,-6.8088,-6.7247,-6.6904,-6.6713,-6.6713,-6.591,-6.4993,-6.3923,-6.3083,-6.2433,-6.2128,-6.1325,-6.0714,-6.0422,-6.0422,-6.0422,-6.0422,-6.0422,-6.0422,-6.0422,-6.0422,-6.0422,-6.0422,-6.0422,-6.0422,0.0,-6.1287,-6.2357,-6.1631,-6.2051,-6.2242,-6.0752,-6.0422,0.0,-6.0422,-6.0422,-6.0422,-6.0422,-6.0422,-6.0422,-6.0422,-6.0422,0.0,0.0,-6.2051,0.0,0.0,0.0,0.0,0.0,0.0,0.0,0.0,0.0,0.0,0.0,0.0,-8.0391,-8.0391,-8.0353,-8.0353,-8.0391,-8.0353,-8.0353,-8.0391,-8.0353,-7.9971,-7.9263,-7.8328,0.0,0.0,0.0,0.0,0.0,-7.5518,-7.5518,-7.5518,-7.5518,-7.5518,-7.5518,-7.5518,-7.5518,-7.5518,-7.5518,-7.5518,-7.5348,-7.4431,-7.3017,-7.1527,-7.0648,-7.1068,-7.1603,-7.0648,-7.1068,-7.1565,-7.0648,-7.0419,-7.0419,-7.0419,-7.0419,-7.0419,-7.0495,-7.0457,-7.0419,-7.0495,-7.0457,-7.0419,-7.0419,-7.0419,-7.0151,-6.9311,-6.9234,-6.8967,-6.8088,-6.7324,-6.6904,-6.6904,-6.6063,-6.549,-6.549,-6.4688,-6.3847,-6.3045,-6.2166,-6.1325,-6.0523,-6.0499,-6.046,-6.0422,-6.046,-6.0499,-6.0499,-6.0499,-6.046,-6.0422,-6.046,-6.0499,-5.6587,0.0,-5.9185,-5.9568,-5.9835,-6.0064,0.0,-6.0422,-6.0422,-6.0422,-6.0422,-6.0422,-6.0422,-6.0422,-6.0422,-6.0422,0.0,0.0,-6.0422,0.0,0.0,-6.8699,0.0,0.0,0.0,0.0,0.0,0.0,0.0,0.0,0.0,0.0,-7.9589,-7.9589,-7.8939,-7.8901,-7.9589,-7.8901,-7.8901,-7.9551,-7.8901,-7.8825,-7.9263,-7.7717,0.0,0.0,0.0,0.0,-7.5518,-7.5518,-7.5518,-7.5518,-7.5518,-7.5518,-7.5518,-7.5518,-7.5518,-7.5518,-7.5518,-7.5518,-7.5251,-7.3781,-7.2559,-7.1527,-7.0648,-7.1489,-7.2367,-7.0839,-7.1527,-7.2329,-7.0801,-7.0419,-7.0419,-7.0419,-7.0419,-7.0572,-7.1259,-7.0877,-7.061,-7.1259,-7.0877,-7.0419,-7.0419,-7.0419,-7.0151,-6.9311,-6.9731,-6.9807,-6.9005,-6.8738,-6.8623,-6.8623,-6.7286,-6.6407,-6.6407,-6.5031,-6.4129,-6.3885,-6.3083,-6.2204,-6.1363,-6.1325,-6.1019,-6.0422,-6.0981,-6.1325,-6.1325,-6.1325,-6.0981,-6.0422,-6.1019,-6.1325,-5.5632,-5.6625,-5.8001,-5.8459,-5.9147,-5.9835,-6.0307,-6.0422,-6.0422,-6.0422,-6.0422,-6.0422,-6.0422,-6.0422,-6.0422,-6.0422,-6.0422,0.0,0.0,0.0,-6.7362,-7.0572,0.0,0.0,0.0,0.0,0.0,0.0,0.0,0.0,0.0,0.0,-7.9111,-7.871,-7.787,-7.7831,-7.871,-7.8252,-7.8252,-7.871,-7.8213,-7.8022,-7.8061,-7.7144,0.0,0.0,0.0,0.0,-7.5518,-7.5518,-7.5518,-7.5518,-7.5518,-7.5518,-7.5518,-7.5518,-7.5518,-7.5518,-7.5518,-7.5518,-7.5271,-7.3972,-7.2979,-7.2138,-7.1259,-7.1642,-7.21,-7.0801,-7.1374,-7.21,-7.0763,-7.0686,-7.0916,-7.0495,-7.0419,-7.0533,-7.0992,-7.0724,-7.0533,-7.0992,-7.0724,-7.0419,-7.0419,-7.0419,-7.0266,-6.9807,-7.0113,-7.0228,-6.9807,-6.9425,-6.9196,-6.9196,-6.8012,-6.7247,-6.7247,-6.6063,-6.5031,-6.4244,-6.377,-6.3121,-6.2242,-6.2204,-6.1975,-6.1554,-6.1975,-6.2204,-6.2204,-6.2204,-6.1975,-6.1554,-6.1975,-6.2204,-5.5785,-5.6702,-5.7886,-5.7886,-5.9071,-6.0231,-6.037,-6.0422,-6.0422,-6.0422,-6.0422,-6.0422,-6.0422,-6.0422,-6.0422,0.0,0.0,0.0,-6.3388,-6.4535,-6.7095,0.0,0.0,0.0,0.0,0.0,0.0,0.0,0.0,0.0,0.0,0.0,0.0,-7.7831,-7.6953,-7.6876,-7.7602,-7.764,-7.7678,-7.7793,-7.7678,-7.7296,-7.6685,-7.657,-7.615,0.0,0.0,0.0,-7.5518,-7.5518,-7.5518,-7.5518,-7.5518,-7.5518,-7.5518,-7.5518,-7.5518,-7.5518,-7.5518,-7.5386,-7.5157,-7.4316,-7.3476,-7.2635,-7.1756,-7.1489,-7.1336,-7.061,-7.1107,-7.1718,-7.0992,-7.1259,-7.1489,-7.0763,-7.0495,-7.0457,-7.0572,-7.0495,-7.0457,-7.0572,-7.0495,-7.0419,-7.0419,-7.0419,-7.0419,-7.0419,-7.0419,-7.0419,-7.0419,-6.9807,-6.9387,-6.9387,-6.8623,-6.8088,-6.8088,-6.7362,-6.6216,-6.4702,-6.4473,-6.4,-6.3121,-6.2968,-6.2968,-6.3121,-6.3121,-6.3121,-6.3121,-6.3121,-6.3045,-6.2892,-6.3045,-6.3121,-5.6434,-5.7122,-5.7886,-5.7886,-5.8612,-5.9491,-6.0217,-6.0422,-6.0422,-6.0422,-6.0422,-6.0422,-6.0422,-6.0422,-6.0422,0.0,0.0,-6.3618,0.0,0.0,0.0,0.0,0.0,0.0,0.0,0.0,0.0,0.0,0.0,0.0,0.0,0.0,0.0,-7.6914,-7.6112,-7.573,-7.5883,-7.5883,-7.6227,-7.6876,-7.6188,-7.615,-7.6685,-7.5997,-7.5633,0.0,0.0,-7.5518,-7.5518,-7.5518,-7.5518,-7.5518,-7.5518,-7.5518,-7.5518,-7.5518,-7.5518,-7.5518,-7.5518,-7.5004,-7.4278,-7.3437,-7.2597,-7.1718,-7.0877,-7.061,-7.0572,-7.0457,-7.1565,-7.275,-7.2635,-7.2138,-7.1696,-7.1527,-7.0954,-7.061,-7.1336,-7.0916,-7.061,-7.1374,-7.0916,-7.0419,-7.0419,-7.0419,-7.0419,-7.0419,-7.0419,-7.0419,-7.0419,-7.0304,-7.0228,-7.0228,-6.9502,-6.9005,-6.9005,-6.8203,-6.7324,-6.6369,-6.5605,-6.484,-6.4038,-6.3274,-6.3236,-6.4,-6.4,-6.4,-6.4,-6.4,-6.3618,-6.293,-6.3656,-6.4,-5.6013,-5.6747,-5.7616,-5.7846,-5.8842,-5.9911,-6.0293,-6.0422,-6.0422,-6.0422,-6.0422,-6.0422,-6.0422,-6.0752,-6.1363,-6.2295,0.0,-6.549,0.0,0.0,0.0,0.0,0.0,0.0,0.0,0.0,0.0,0.0,0.0,0.0,0.0,0.0,0.0,0.0,-7.5692,-7.5518,-7.5518,-7.5518,-7.5692,-7.6036,-7.5671,-7.5692,-7.6036,-7.5671,-7.5518,-7.5518,0.0,-7.5518,-7.5518,-7.5518,-7.5518,-7.5518,-7.5518,-7.5518,-7.5518,-7.5518,-7.5518,-7.5518,-7.5518,-7.4927,-7.4125,-7.3781,-7.275,-7.1642,-7.1221,-7.0763,-7.061,-7.1527,-7.2024,-7.2176,-7.1718,-7.1642,-7.1565,-7.1107,-7.0686,-7.0533,-7.0916,-7.0686,-7.0533,-7.0916,-7.0686,-7.0419,-7.0419,-7.0419,-7.0419,-7.0419,-7.0419,-7.0419,-7.0419,-7.0419,-7.0419,-7.0419,-7.0075,-6.9846,-6.9846,-6.9082,-6.805,-6.6789,-6.5872,-6.5222,-6.484,-6.4458,-6.4458,-6.484,-6.484,-6.484,-6.484,-6.484,-6.4649,-6.4267,-6.4649,-6.484,-5.6011,-5.6497,-5.721,-5.8009,-5.93,-6.0422,-6.0422,-6.0422,-6.0422,-6.0422,-6.0422,-6.0422,-6.0422,-6.1058,0.0,-6.4153,-6.5872,0.0,0.0,0.0,0.0,0.0,0.0,0.0,0.0,0.0,0.0,0.0,0.0,0.0,0.0,0.0,0.0,0.0,-7.5195,-7.5195,-7.5195,-7.5004,-7.5136,-7.5518,-7.5518,-7.5518,-7.5518,-7.5518,-7.5518,-7.5518,-7.5518,-7.5518,-7.5518,-7.5518,-7.5518,-7.548,-7.5271,-7.5195,-7.5233,-7.5424,-7.5518,-7.5518,-7.5518,-7.4813,-7.3972,-7.4125,-7.2941,-7.1412,-7.1642,-7.1221,-7.0992,-7.2329,-7.2367,-7.1947,-7.168,-7.1947,-7.2062,-7.1221,-7.0839,-7.0648,-7.0457,-7.0419,-7.0419,-7.0419,-7.0419,-7.0419,-7.0419,-7.0419,-7.0419,-7.0419,-7.0572,-7.0686,-7.0686,-7.0686,-7.0686,-7.0686,-7.0533,-7.0419,-7.0419,-6.9655,-6.8661,-6.7362,-6.6292,-6.5719,-6.5719,-6.5528,-6.5413,-6.5413,-6.5413,-6.5413,-6.5413,-6.5413,-6.5413,-6.5413,-6.5413,-6.5413,-5.7437,-5.6954,-5.6641,-5.8543,-5.972,-6.0422,-6.0422,-6.0422,-6.0422,-6.0422,-6.0422,-6.0422,-6.0422,-6.1058,-6.2433,-6.4917,-6.6713,0.0,0.0,0.0,0.0,0.0,0.0,0.0,0.0,0.0,0.0,0.0,0.0,0.0,0.0,0.0,0.0,0.0,0.0,-7.4278,-7.4278,-7.3552,-7.3972,-7.5518,-7.5518,-7.5518,-7.5518,-7.5518,-7.5518,-7.5518,-7.5518,-7.5518,-7.5518,-7.5518,-7.5518,-7.5424,-7.4622,-7.4278,-7.4393,-7.5195,-7.5518,-7.5518,-7.5518,-7.4431,-7.3208,-7.3972,-7.252,-7.0648,-7.145,-7.1658,-7.1642,-7.1773,-7.2329,-7.3246,-7.4736,-7.4584,-7.3819,-7.3017,-7.2176,-7.1374,-7.0572,-7.0419,-7.0419,-7.0419,-7.0419,-7.0419,-7.0419,-7.0419,-7.0419,-7.0419,-7.1107,-7.1603,-7.1603,-7.1603,-7.1603,-7.1603,-7.0877,-7.0419,-7.0419,-6.9655,-6.9158,-6.9043,-6.7515,-6.6598,-6.6598,-6.5834,-6.5413,-6.5413,-6.5413,-6.5413,-6.5413,-6.5413,-6.5413,-6.5413,-6.5413,-6.5413,-5.5978,-5.639,-5.7097,-5.8086,-5.9376,-6.0537,-6.1019,-6.134,-6.1438,-6.1206,-6.1797,-6.2237,-6.2008,0.0,-6.3885,-6.5872,0.0,0.0,0.0,0.0,0.0,0.0,0.0,0.0,0.0,0.0,0.0,0.0,0.0,0.0,0.0,0.0,0.0,0.0,0.0,-7.3437,-7.3437,-7.3132,-7.3323,-7.3934,-7.4431,-7.4698,-7.4698,-7.5233,-7.5195,-7.4698,-7.4698,-7.4698,-7.4698,-7.4698,-7.4698,-7.466,-7.4316,-7.4201,-7.4316,-7.5157,-7.5157,-7.4775,-7.531,-7.4736,-7.3705,-7.3514,-7.2444,-7.1259,-7.1603,-7.168,-7.1909,-7.2941,-7.3476,-7.3781,-7.3896,-7.3705,-7.3361,-7.3055,-7.275,-7.2406,-7.21,-7.2024,-7.2024,-7.2024,-7.1565,-7.1374,-7.1909,-7.1565,-7.1374,-7.1947,-7.1833,-7.168,-7.168,-7.1221,-7.1107,-7.1642,-7.1412,-7.1221,-7.1221,-7.0419,-6.996,-6.996,-6.7897,-6.6942,-6.7439,-6.6139,-6.5643,-6.6216,-6.5681,-6.5681,-6.6216,-6.6216,-6.6483,-6.6942,-6.6942,-6.6942,-5.6027,-5.6169,-5.6671,-5.7943,-5.8849,-5.9845,-6.1431,-6.2026,-6.2138,-6.1858,-6.2617,-6.3231,-6.2962,-6.3388,0.0,0.0,0.0,0.0,0.0,0.0,0.0,0.0,0.0,0.0,0.0,0.0,0.0,0.0,0.0,0.0,0.0,0.0,0.0,0.0,0.0,-7.2597,-7.2597,-7.2329,-7.2329,-7.2597,-7.3132,-7.3552,-7.3858,-7.4431,-7.4393,-7.3819,-7.3819,-7.3819,-7.3858,-7.4087,-7.4049,-7.3819,-7.3819,-7.3819,-7.3934,-7.4775,-7.4889,-7.4698,-7.5271,-7.4927,-7.4163,-7.3896,-7.3017,-7.2138,-7.2406,-7.2482,-7.2711,-7.3896,-7.4393,-7.4469,-7.3934,-7.3781,-7.3705,-7.3437,-7.3361,-7.3323,-7.3055,-7.2979,-7.2979,-7.2979,-7.2711,-7.2597,-7.2941,-7.2711,-7.2597,-7.2941,-7.2711,-7.2482,-7.2482,-7.1985,-7.1718,-7.2062,-7.1603,-7.1412,-7.168,-7.0916,-7.0419,-7.0419,-6.8585,-6.7744,-6.8279,-6.6942,-6.6483,-6.7056,-6.6483,-6.6483,-6.7095,-6.7095,-6.7362,-6.7897,-6.7897,-6.7897,-5.8175,-5.6425,-5.5082,-5.8268,-5.8219,-5.8186,-6.1536,-6.2222,-6.2222,-6.2328,-6.2642,-6.293,-6.293,-6.293,0.0,0.0,0.0,0.0,0.0,0.0,0.0,0.0,0.0,0.0,0.0,0.0,0.0,0.0,0.0,0.0,0.0,0.0,0.0,0.0,0.0,0.0,-7.168,-7.0839,-7.0839,-7.168,-7.168,-7.2138,-7.2979,-7.2979,-7.2979,-7.2979,-7.2979,-7.2979,-7.3055,-7.3858,-7.3705,-7.2979,-7.2979,-7.2979,-7.3093,-7.3896,-7.4736,-7.548,-7.548,-7.4927,-7.4354,-7.5195,-7.4354,-7.317,-7.3972,-7.4201,-7.4201,-7.4201,-7.4813,-7.5518,-7.5518,-7.5518,-7.5271,-7.4431,-7.4201,-7.401,-7.3208,-7.3017,-7.3017,-7.3017,-7.3667,-7.3972,-7.317,-7.3705,-7.3972,-7.317,-7.3705,-7.4201,-7.4201,-7.4201,-7.3896,-7.3093,-7.145,-7.0763,-7.1642,-7.0916,-7.0419,-7.0419,-6.9655,-6.9196,-6.9196,-6.8356,-6.7897,-6.7897,-6.7897,-6.7897,-6.7897,-6.7897,-6.7897,-6.7897,-6.7897,-6.7897,-5.6937,-5.6352,-5.6307,-5.7846,-5.8623,-5.9332,-6.0676,-6.1375,-6.2353,-6.4476,-6.4758,-6.484,-6.5452,-6.5566,0.0,0.0,0.0,0.0,0.0,0.0,0.0,0.0,0.0,0.0,0.0,0.0,0.0,0.0,0.0,0.0,0.0,0.0,0.0,0.0,0.0,0.0,-7.0801,-7.0533,-7.0533,-7.0801,-7.0801,-7.1221,-7.21,-7.2711,-7.2673,-7.21,-7.21,-7.21,-7.21,-7.2329,-7.2673,-7.2941,-7.2329,-7.21,-7.2176,-7.3055,-7.3132,-7.2902,-7.3514,-7.3934,-7.4163,-7.3819,-7.3781,-7.3896,-7.4125,-7.4201,-7.4316,-7.4927,-7.531,-7.5518,-7.5518,-7.5518,-7.5442,-7.5157,-7.5119,-7.5042,-7.4813,-7.4736,-7.4927,-7.5501,-7.5348,-7.5424,-7.6341,-7.6227,-7.5883,-7.5653,-7.531,-7.4698,-7.3514,-7.3361,-7.3246,-7.3017,-7.1985,-7.1412,-7.168,-7.0916,-7.0419,-7.0419,-7.019,-7.0037,-7.0037,-6.8661,-6.8203,-6.8814,-6.8203,-6.8203,-6.8814,-6.8814,-6.912,-6.9655,-6.9655,-6.9655,-5.75,-5.7089,-5.7149,-5.8354,-5.9083,-5.9714,-6.068,-6.2049,-6.3952,-6.6919,-6.6754,-6.626,-6.6793,-6.6484,0.0,0.0,0.0,0.0,0.0,0.0,0.0,0.0,0.0,0.0,0.0,0.0,0.0,0.0,0.0,0.0,0.0,0.0,0.0,0.0,0.0,0.0,-6.9922,-6.9922,-7.0075,-7.0419,-7.0075,-7.0381,-7.1183,-7.1718,-7.168,-7.1183,-7.1183,-7.1374,-7.168,-7.1336,-7.168,-7.2406,-7.1527,-7.1412,-7.1773,-7.2291,-7.2367,-7.2291,-7.2826,-7.3323,-7.3705,-7.3514,-7.3819,-7.4278,-7.4622,-7.4736,-7.4813,-7.5348,-7.5518,-7.5518,-7.5518,-7.5518,-7.5518,-7.5518,-7.5518,-7.5518,-7.5518,-7.5518,-7.573,-7.6532,-7.657,-7.6685,-7.7373,-7.7335,-7.6991,-7.6303,-7.5806,-7.5119,-7.4125,-7.3705,-7.359,-7.3972,-7.2597,-7.1833,-7.2176,-7.1107,-7.0419,-7.0419,-7.0419,-7.0419,-7.0419,-6.9425,-6.9158,-6.9655,-6.9158,-6.9158,-6.9693,-6.9693,-6.9922,-7.0419,-7.0419,-7.0419,-5.9075,-5.8363,-5.781,-5.9333,-5.9488,-5.9778,-6.1599,-6.3798,-6.6156,-6.8906,-6.8395,-6.7391,-6.7278,-6.6309,0.0,0.0,0.0,0.0,0.0,0.0,0.0,0.0,0.0,0.0,0.0,0.0,0.0,0.0,0.0,0.0,0.0,0.0,0.0,0.0,0.0,0.0,-6.9082,-6.9158,-6.9578,0.0,-6.954,-6.9578,-7.0304,-7.0381,-7.0419,-7.0419,-7.0419,-7.0839,-7.1527,-7.0724,-7.0877,-7.1489,-7.0724,-7.0877,-7.1565,-7.1565,-7.2062,-7.275,-7.275,-7.2826,-7.3017,-7.3819,-7.4163,-7.4354,-7.5233,-7.5518,-7.5518,-7.5518,-7.5518,-7.5518,-7.5518,-7.5518,-7.5518,-7.5518,-7.5518,-7.5518,-7.5518,-7.5556,-7.5844,-7.6647,-7.7449,-7.7755,-7.7067,-7.7526,-7.7449,-7.5844,-7.5556,-7.5518,-7.5518,-7.4736,-7.4507,-7.531,-7.3246,-7.2138,-7.2941,-7.1565,-7.0648,-7.0648,-7.0572,-7.0572,-7.0648,-7.0495,-7.0419,-7.0419,-7.0419,-7.0419,-7.0419,-7.0419,-7.0419,-7.0419,-7.0495,-7.0533,-5.9115,-5.8916,-5.8725,-5.8774,-5.9703,-6.1288,-6.3998,-6.5018,-6.5665,-6.6616,-6.8091,-6.8963,-6.7909,0.0,0.0,0.0,0.0,0.0,0.0,0.0,0.0,0.0,0.0,0.0,0.0,0.0,0.0,0.0,0.0,0.0,0.0,0.0,0.0,0.0,0.0,-6.8165,-6.8165,-6.8852,-6.9273,0.0,-6.9273,-6.9273,-6.9464,-7.0113,-7.0419,-7.0419,-7.0419,-7.0533,-7.0686,-7.0495,-7.0533,-7.0648,-7.0495,-7.0533,-7.0686,-7.0686,-7.0801,-7.0954,-7.0954,-7.1412,-7.21,-7.2979,-7.3705,-7.4354,-7.5233,-7.5518,-7.5518,-7.5518,-7.5518,-7.5518,-7.5518,-7.5518,-7.5518,-7.5518,-7.5518,-7.5518,-7.5518,-7.5997,-7.6685,-7.7564,-7.787,-7.8175,-7.8634,-7.8328,-7.764,-7.6609,-7.5883,-7.5518,-7.5518,-7.4736,-7.4278,-7.4469,-7.3437,-7.2788,-7.2979,-7.2673,-7.2444,-7.2444,-7.1794,-7.1718,-7.2406,-7.1145,-7.0419,-7.0419,-7.0419,-7.0419,-7.0419,-7.0419,-7.0419,-7.0419,-7.1107,-7.1412,-5.8887,-5.8959,-5.925,-5.9849,-6.0326,-6.1374,-6.3904,-6.478,-6.5144,-6.5332,-6.691,-6.8005,0.0,0.0,0.0,0.0,0.0,0.0,0.0,0.0,0.0,0.0,0.0,0.0,0.0,0.0,0.0,0.0,0.0,0.0,0.0,0.0,0.0,0.0,-6.7324,-6.7324,-6.7324,-6.7782,-6.8203,-6.8585,-6.8203,-6.8203,-6.8585,-6.9005,-6.9655,-7.0381,-6.9999,-7.0037,-7.0419,-7.0419,-7.0419,-7.0419,-7.0419,-7.0419,-7.0419,-7.0419,-7.0419,-7.0419,-7.0419,-7.0686,-7.1221,-7.21,-7.2941,-7.3781,-7.4622,-7.5157,-7.5518,-7.5518,-7.5518,-7.5518,-7.5518,-7.5518,-7.5518,-7.5518,-7.5518,-7.5518,-7.5518,-7.6112,-7.6838,-7.7296,-7.8061,-7.8481,-7.8099,-7.7373,-7.6761,-7.6723,-7.6341,-7.6074,-7.6074,-7.6036,-7.5883,-7.5424,-7.466,-7.401,-7.3628,-7.3208,-7.2979,-7.2979,-7.2559,-7.252,-7.2979,-7.2138,-7.1642,-7.1642,-7.1642,-7.1642,-7.1642,-7.1642,-7.1642,-7.168,-7.21,-7.2329,-5.8524,-5.8646,-5.9376,-6.1319,-6.1106,-6.0953,-6.3119,-6.4041,-6.4502,-6.4584,-6.5596,0.0,0.0,0.0,0.0,0.0,0.0,0.0,0.0,0.0,0.0,0.0,0.0,0.0,0.0,0.0,0.0,0.0,0.0,0.0,0.0,0.0,-6.5505,-6.6445,-6.6483,-6.6483,-6.6483,-6.6636,-6.7018,-6.7668,-6.7018,-6.7056,-6.7668,-6.7553,-6.8394,-6.996,-6.9425,-6.9578,-7.019,-7.0342,-7.0419,-7.0419,-7.0419,-7.0419,-7.0419,-7.0419,-7.0419,-7.0419,-7.0419,-7.0419,-7.0533,-7.1412,-7.2176,-7.2941,-7.3896,-7.4698,-7.531,-7.548,-7.5518,-7.5518,-7.5518,-7.5518,-7.5518,-7.5518,-7.5518,-7.5518,-7.5518,-7.6112,-7.6685,-7.6685,-7.787,-7.8443,-7.7144,-7.6227,-7.5921,-7.6609,-7.6685,-7.6647,-7.6494,-7.7105,-7.7296,-7.657,-7.5883,-7.5195,-7.4507,-7.3819,-7.3437,-7.3437,-7.3284,-7.3284,-7.3437,-7.3284,-7.3284,-7.3437,-7.3132,-7.2979,-7.2979,-7.2979,-7.2979,-7.2979,-7.3132,-7.3208,-5.8176,-5.8022,-5.8798,-6.1919,-6.1537,-6.1047,-6.3493,-6.3835,-6.3773,0.0,0.0,0.0,0.0,0.0,0.0,0.0,0.0,0.0,0.0,0.0,0.0,0.0,0.0,0.0,0.0,0.0,0.0,0.0,0.0,0.0,0.0,-6.4313,-6.4367,-6.5551,-6.5566,-6.5566,-6.5566,-6.633,-6.6751,-6.6865,-6.6751,-6.6751,-6.6827,-6.6063,-6.6636,-6.8279,-6.8929,-6.9273,-6.9425,-7.0113,-7.0419,-7.0419,-7.0419,-7.0419,-7.0419,-7.0419,-7.0419,-7.0419,-7.0419,-7.0419,-7.0533,-7.1412,-7.1756,-7.2138,-7.3743,-7.4278,-7.4545,-7.5271,-7.5518,-7.5518,-7.5518,-7.5518,-7.5518,-7.5518,-7.5518,-7.5518,-7.5518,-7.6112,-7.6685,-7.6685,-7.6876,-7.722,-7.7755,-7.7105,-7.657,-7.6685,-7.6685,-7.6456,-7.573,-7.5786,-7.5768,-7.5671,-7.5539,-7.5442,-7.5365,-7.5233,-7.5174,-7.5174,-7.4469,-7.4393,-7.5119,-7.4431,-7.4393,-7.5174,-7.3743,-7.2979,-7.2979,-7.2979,-7.2979,-7.3017,-7.3705,-7.4049,-5.7044,-5.7392,-5.8315,-6.005,-6.0433,-6.0796,-6.2345,-6.2905,-6.3033,-6.2761,0.0,0.0,0.0,0.0,0.0,0.0,0.0,0.0,0.0,0.0,0.0,0.0,0.0,0.0,0.0,0.0,0.0,0.0,0.0,0.0,-6.3031,-6.3399,-6.3937,-6.4688,-6.5146,-6.5413,-6.5413,-6.5796,-6.5855,-6.5639,-6.5639,-6.5483,-6.5252,-6.5356,-6.6292,-6.7897,-6.7821,-6.8317,-6.9234,-6.9578,-6.9999,-7.0419,-7.0419,-7.0419,-7.0419,-7.0419,-7.0419,-7.0419,-7.0419,-7.0419,-7.0457,-7.0839,-7.1298,-7.1833,-7.2559,-7.3132,-7.3705,-7.4545,-7.4775,-7.4889,-7.5348,-7.5518,-7.5518,-7.5518,-7.5518,-7.5518,-7.5518,-7.6112,-7.6991,-7.7946,-7.7373,-7.7144,-7.8481,-7.7602,-7.6685,-7.6685,-7.6685,-7.657,-7.6227,-7.6609,-7.6723,-7.6227,-7.615,-7.5997,-7.5556,-7.5518,-7.5518,-7.5518,-7.5119,-7.508,-7.548,-7.5119,-7.5119,-7.548,-7.4775,-7.4393,-7.4393,-7.4393,-7.4393,-7.4393,-7.4775,-7.4927,-5.611,-5.6673,-5.751,-5.8495,-5.9322,-6.0227,-6.1362,0.0,-6.2071,0.0,0.0,0.0,0.0,0.0,0.0,0.0,0.0,0.0,0.0,0.0,0.0,0.0,0.0,0.0,0.0,0.0,0.0,0.0,0.0,0.0,-6.1713,-6.2615,-6.336,-6.3847,-6.484,-6.5299,-6.5108,-6.5222,-6.5035,-6.4593,-6.4739,-6.4538,-6.4116,-6.4981,-6.6017,-6.7098,-6.6834,-6.7515,-6.889,-6.912,-6.9655,-7.0419,-7.0419,-7.0419,-7.0419,-7.0419,-7.0419,-7.0419,-7.0419,-7.0419,-7.0419,-7.0419,-7.0992,-7.168,-7.168,-7.2291,-7.317,-7.3972,-7.4201,-7.4393,-7.5271,-7.5653,-7.5806,-7.5806,-7.5959,-7.5997,-7.5594,-7.5959,-7.6838,-7.8328,-7.7411,-7.6953,-7.8672,-7.7717,-7.6761,-7.6991,-7.6838,-7.6761,-7.6991,-7.722,-7.7296,-7.7067,-7.6647,-7.6227,-7.5844,-7.5633,-7.5518,-7.5518,-7.5518,-7.5518,-7.5518,-7.5518,-7.5518,-7.5518,-7.5518,-7.5518,-7.5518,-7.5518,-7.5518,-7.5518,-7.5518,-7.5518,-5.5883,-5.588,-5.6176,-5.8521,-5.8868,-5.9223,0.0,0.0,0.0,0.0,0.0,0.0,0.0,0.0,0.0,0.0,0.0,0.0,0.0,0.0,0.0,0.0,0.0,0.0,0.0,0.0,0.0,0.0,0.0,0.0,-6.1599,-6.1751,-6.2156,-6.2939,-6.4535,-6.5031,-6.4282,-6.4638,-6.4613,-6.4136,-6.4613,-6.4538,-6.4116,-6.4981,-6.5242,-6.5034,-6.6189,-6.7171,-6.8012,-6.8852,-6.9655,-7.0419,-7.0419,-7.0419,-7.0419,-7.0419,-7.0419,-7.0419,-7.0419,-7.0419,-7.0419,-7.0419,-7.0992,-7.168,-7.168,-7.2291,-7.317,-7.3972,-7.4201,-7.4393,-7.5271,-7.6074,-7.6647,-7.6647,-7.7258,-7.7449,-7.5844,-7.5556,-7.5806,-7.6685,-7.615,-7.6074,-7.7793,-7.7296,-7.6991,-7.7831,-7.722,-7.6991,-7.7831,-7.657,-7.6227,-7.7755,-7.6494,-7.5844,-7.657,-7.5921,-7.5518,-7.5518,-7.5518,-7.5518,-7.5518,-7.5518,-7.5518,-7.5518,-7.5518,-7.5518,-7.5518,-7.5518,-7.5518,-7.5518,-7.5518,-7.5518,-5.5185,-5.539,-5.5706,-5.6551,-5.7302,-5.8016,-5.9027,-5.9452,0.0,0.0,0.0,0.0,0.0,0.0,0.0,0.0,0.0,0.0,0.0,0.0,0.0,0.0,0.0,0.0,0.0,0.0,0.0,0.0,0.0,0.0,-6.006,-6.1131,-6.2045,-6.2862,-6.4296,-6.471,-6.4159,-6.4024,-6.3867,-6.3718,-6.3888,-6.3718,-6.3308,-6.4483,-6.4775,-6.4445,-6.6015,-6.6865,-6.7171,-6.8012,-6.8852,-6.9693,-7.019,-7.0419,-7.0419,-7.0419,-7.0419,-7.0419,-7.0419,-7.0419,-7.0419,-7.0419,-7.061,-7.0877,-7.0877,-7.145,-7.2329,-7.317,-7.3819,-7.4393,-7.5271,-7.6112,-7.6838,-7.7411,-7.7335,-7.6991,-7.6379,-7.6265,-7.6532,-7.7373,-7.6838,-7.6456,-7.7067,-7.7373,-7.7296,-7.6494,-7.657,-7.6647,-7.6418,-7.5844,-7.573,-7.6341,-7.6303,-7.6188,-7.5959,-7.615,-7.6036,-7.5556,-7.5518,-7.5518,-7.5518,-7.5518,-7.573,-7.6265,-7.5768,-7.573,-7.6265,-7.573,-7.5768,-7.6265,-7.573,-7.5518,-5.4745,-5.5065,-5.5538,-5.5658,-5.6087,-5.6732,-5.7546,0.0,0.0,0.0,0.0,0.0,0.0,0.0,0.0,0.0,0.0,0.0,0.0,0.0,0.0,0.0,0.0,0.0,0.0,0.0,0.0,0.0,0.0,0.0,-5.8988,-6.0581,-6.2052,-6.3258,-6.385,-6.4086,-6.3871,-6.3609,-6.3422,-6.3275,-6.3422,-6.3238,-6.2855,-6.4457,-6.4954,-6.4645,-6.6383,-6.7095,-6.7171,-6.8012,-6.8852,-6.9655,-7.019,-7.0419,-7.0419,-7.0419,-7.0419,-7.0419,-7.0419,-7.0419,-7.0419,-7.0419,-7.0801,-7.1221,-7.0916,-7.1642,-7.2673,-7.3246,-7.3781,-7.4469,-7.5615,-7.6723,-7.7793,-7.8634,-7.8404,-7.7984,-7.7984,-7.7105,-7.6456,-7.7067,-7.6685,-7.6303,-7.6303,-7.6761,-7.6953,-7.6418,-7.6532,-7.68,-7.7144,-7.6685,-7.6532,-7.7105,-7.7144,-7.7029,-7.6817,-7.6991,-7.6761,-7.5959,-7.5883,-7.5768,-7.5518,-7.5786,-7.615,-7.6685,-7.6188,-7.6303,-7.7144,-7.6036,-7.5768,-7.6303,-7.6036,-7.6036,0.0,0.0,0.0,-5.5973,-5.5503,-5.5298,-5.6935,0.0,0.0,0.0,0.0,0.0,0.0,0.0,0.0,0.0,0.0,0.0,0.0,0.0,0.0,0.0,0.0,0.0,0.0,0.0,0.0,0.0,0.0,-5.8223,-5.8566,-6.0205,-6.2018,-6.4019,-6.3306,-6.3102,-6.349,-6.3468,-6.3275,-6.2805,-6.3238,-6.3252,-6.2892,-6.4963,-6.571,-6.5451,-6.7165,-6.7881,-6.7958,-6.8852,-6.9655,-7.0381,-7.0381,-7.0419,-7.0419,-7.0419,-7.0419,-7.0419,-7.0419,-7.0419,-7.0419,-7.0419,-7.1527,-7.275,-7.1947,-7.2864,-7.4163,-7.4201,-7.424,-7.466,-7.6341,-7.8022,-7.9493,-8.0315,-8.0468,-8.0468,-8.043,-7.7831,-7.5556,-7.5577,-7.5556,-7.5556,-7.5556,-7.5594,-7.615,-7.7755,-7.7296,-7.764,-8.0124,-7.9016,-7.8634,-8.0238,-7.8978,-7.8366,-7.9187,-7.8519,-7.7678,-7.68,-7.6723,-7.6379,-7.5615,-7.6303,-7.6761,-7.6761,-7.6761,-7.7182,-7.8022,-7.6341,-7.5518,-7.5556,-7.6341,-7.7182,-5.5183,0.0,0.0,0.0,0.0,0.0,-5.5117,-5.5124,0.0,0.0,0.0,0.0,0.0,0.0,0.0,0.0,0.0,0.0,0.0,0.0,0.0,0.0,0.0,0.0,0.0,0.0,0.0,0.0,-5.8547,-5.879,-5.8603,-6.0458,-6.2184,-6.3615,-6.3466,-6.3222,-6.299,-6.299,-6.2929,-6.2805,-6.2953,-6.2929,-6.283,-6.3781,-6.4454,-6.4979,-6.636,-6.7314,-6.792,-6.8828,-6.9311,-6.9578,-7.019,-7.0419,-7.0419,-7.0419,-7.0419,-7.0419,-7.0419,-7.0419,-7.0419,-7.0419,-7.0724,-7.1183,-7.1565,-7.2444,-7.3437,-7.4049,-7.508,-7.6418,-7.8137,-7.8958,-7.9493,-8.0315,-8.0047,-7.9436,-7.8825,-7.7487,-7.6532,-7.7182,-7.68,-7.6379,-7.6379,-7.7411,-7.8175,-7.8022,-7.8328,-7.8596,-7.8672,-7.829,-7.8175,-7.8634,-7.8825,-7.8787,-7.8404,-7.871,-7.8557,-7.7717,-7.764,-7.7526,-7.7335,-7.7526,-7.7946,-7.8557,-7.7946,-7.8061,-7.8939,-7.6626,-7.5806,-7.6379,-7.6609,-7.7182,-5.5809,-5.6199,-5.6543,-5.6157,0.0,0.0,-5.4836,-5.463,-5.4464,0.0,0.0,0.0,0.0,0.0,0.0,0.0,0.0,0.0,0.0,0.0,0.0,0.0,0.0,0.0,0.0,0.0,0.0,0.0,-5.8767,-5.9398,-5.9841,-6.0995,-6.2131,-6.3191,-6.3228,-6.3062,-6.2805,-6.278,-6.278,-6.278,-6.278,-6.278,-6.2842,-6.4025,-6.4813,-6.5334,-6.6946,-6.7926,-6.8382,-6.8925,-6.915,-6.9225,-7.0074,-7.0281,-7.0161,-7.0353,-7.0419,-7.0419,-7.0419,-7.0419,-7.0419,-7.0419,-7.0648,-7.1107,-7.1985,-7.2826,-7.3667,-7.4507,-7.5959,-7.7564,-7.8958,-7.9569,-7.9895,-8.0391,-8.0124,-7.9665,-7.9169,-7.8366,-7.7717,-7.7487,-7.6761,-7.6418,-7.7105,-7.7793,-7.829,-7.8519,-7.8978,-7.9245,-7.9054,-7.9054,-7.9054,-7.9054,-7.9513,-7.9589,-7.9092,-7.9513,-7.9436,-7.8596,-7.8519,-7.8366,-7.8022,-7.8366,-7.8787,-7.9302,-7.8787,-7.8596,-7.8748,-7.6876,-7.6418,-7.7258,-7.7258,-7.7908,-5.6489,-5.6796,-5.7381,-5.7044,-5.5794,0.0,-5.5486,-5.4987,-5.4363,0.0,0.0,0.0,0.0,0.0,0.0,0.0,0.0,0.0,0.0,0.0,0.0,0.0,0.0,0.0,0.0,-5.7997,-5.7997,-5.7997,-5.8767,-5.9942,-6.163,-6.163,-6.1961,-6.2743,-6.278,-6.278,-6.278,-6.278,-6.278,-6.278,-6.278,-6.278,-6.2879,-6.4866,-6.5821,-6.603,-6.7972,-6.8862,-6.8937,-6.9003,-6.9047,-6.9176,-6.9963,-7.0055,-6.9759,-7.0144,-7.0281,-7.0315,-7.0315,-7.0348,-7.0419,-7.0419,-7.0916,-7.1718,-7.2597,-7.3437,-7.4278,-7.5348,-7.6761,-7.8213,-7.9054,-7.9895,-8.0506,-8.0506,-8.0506,-8.043,-8.0277,-7.9742,-7.8787,-7.7144,-7.6341,-7.6341,-7.7755,-7.7526,-7.764,-7.9207,-7.9454,-7.9665,-8.0391,-8.0506,-8.0506,-8.0506,-8.0506,-8.0506,-8.0506,-8.0506,-8.02,-7.9493,-7.9454,-7.9054,-7.8175,-7.8901,-7.9302,-7.9302,-7.9378,-7.9016,-7.8137,-7.7258,-7.7296,-7.8137,-7.8137,-7.8978,0.0,0.0,0.0,0.0,0.0,0.0,-5.5684,-5.4987,-5.4216,0.0,0.0,0.0,0.0,0.0,0.0,0.0,0.0,0.0,0.0,0.0,0.0,0.0,0.0,0.0,0.0,-5.7997,-5.7997,-5.7997,-5.8767,-6.0175,-6.2475,-6.1961,-6.1961,-6.2743,-6.278,-6.278,-6.278,-6.278,-6.278,-6.278,-6.278,-6.278,-6.2842,-6.3959,-6.4818,-6.5518,-6.654,-6.7366,-6.7982,-6.837,-6.8757,-6.9112,-6.9282,-6.9303,-6.924,-6.9323,-6.9566,-6.9928,-6.9928,-7.0126,-7.0419,-7.0419,-7.0533,-7.0839,-7.168,-7.2559,-7.3705,-7.5844,-7.722,-7.8213,-7.9054,-7.9895,-8.0506,-8.0506,-8.0506,-8.0124,-7.8787,-7.8901,-7.8978,-7.7946,-7.8175,-7.8443,-7.8061,-7.8978,-7.9856,-8.02,-8.0277,-8.0315,-8.0468,-8.0506,-8.0506,-8.0506,-8.0506,-8.0506,-8.0506,-8.0506,-8.043,-8.0277,-8.0277,-7.9895,-7.9054,-7.9225,-7.9302,-7.9302,-7.9933,-7.9856,-7.9016,-7.8175,-7.8175,-7.9054,-7.9054,-7.9551,0.0,0.0,0.0,-5.851,0.0,0.0,0.0,-5.5868,-5.4876,0.0,0.0,0.0,0.0,0.0,0.0,0.0,0.0,0.0,0.0,0.0,0.0,0.0,0.0,0.0,0.0,-5.7997,-5.818,-5.8584,-5.9355,-6.0493,-6.2108,-6.2218,-6.2401,-6.2805,-6.278,-6.278,-6.278,-6.278,-6.278,-6.278,-6.278,-6.278,-6.2842,-6.4127,-6.4934,-6.5375,-6.6549,-6.732,-6.7714,-6.7967,-6.821,-6.8467,-6.8915,-6.8959,-6.878,-6.9003,-6.924,-6.9463,-6.9463,-6.9566,-6.9778,-6.9999,-7.0109,-7.0372,-7.1897,-7.3246,-7.466,-7.6761,-7.7335,-7.7755,-7.9436,-7.9895,-8.0009,-8.0391,-8.02,-7.978,-7.9321,-7.8939,-7.8634,-7.8634,-7.8978,-7.9283,-7.9245,-7.9589,-8.0047,-8.043,-8.0506,-8.0506,-8.0506,-8.0506,-8.0506,-8.0506,-8.0506,-8.0506,-8.0506,-8.0506,-8.0506,-8.0506,-8.0506,-8.0315,-7.9895,-7.9895,-7.9895,-7.9895,-8.0277,-8.0315,-7.9895,-7.9474,-7.9283,-7.9302,-7.9704,-8.0086,0.0,0.0,0.0,0.0,0.0,-5.7423,0.0,0.0,0.0,0.0,0.0,0.0,0.0,0.0,0.0,0.0,0.0,0.0,0.0,0.0,0.0,0.0,0.0,0.0,0.0,-5.7997,-5.8327,-5.9148,-5.9942,-6.075,-6.1557,-6.2365,-6.278,-6.278,-6.278,-6.278,-6.278,-6.2989,-6.2989,-6.278,-6.2989,-6.3062,-6.3099,-6.4604,-6.5375,-6.5632,-6.7063,-6.7687,-6.7687,-6.7687,-6.7687,-6.7794,-6.8538,-6.8609,-6.8297,-6.8688,-6.887,-6.8959,-6.8959,-6.9025,-6.9155,-6.9544,-6.9776,-7.0251,-7.2146,-7.3852,-7.547,-7.7149,-7.728,-7.7411,-7.9474,-7.978,-7.9589,-7.9933,-7.9627,-7.9436,-7.9895,-7.9092,-7.8443,-7.9187,-7.9454,-7.9627,-7.9971,-7.9627,-7.9436,-7.9933,-8.0162,-8.0277,-8.0277,-8.0391,-8.0506,-8.0506,-8.0506,-8.0506,-8.0506,-8.0506,-8.0506,-8.0506,-8.0506,-8.043,-8.0277,-8.0277,-8.0277,-8.0277,-8.043,-8.0506,-8.0506,-8.0506,-8.0162,-7.9569,-8.02,-8.0506,0.0,0.0,0.0,0.0,-6.0029,0.0,0.0,0.0,0.0,0.0,0.0,0.0,0.0,0.0,0.0,0.0,0.0,0.0,0.0,0.0,0.0,0.0,0.0,0.0,0.0,0.0,0.0,-5.9148,-5.9942,-6.075,-6.1557,-6.2365,-6.278,-6.278,-6.278,-6.278,-6.278,-6.3576,-6.3576,-6.278,-6.3576,-6.3943,-6.398,-6.4897,-6.5705,-6.6402,-6.7283,-6.7687,-6.7687,-6.7687,-6.7687,-6.7714,-6.781,-6.781,-6.7794,-6.7836,-6.8134,-6.849,-6.849,-6.8734,-6.9112,-6.9155,-6.9644,-7.0417,-7.1385,-7.2604,-7.4083,-7.5772,-7.7036,-7.7908,-7.8213,-7.9321,-8.0009,-7.8634,-7.8787,-7.9111,-7.8443,-7.8748,-7.9187,-7.9302,-7.9856,-7.9933,-7.8519,-7.8863,-7.9054,-7.8404,-7.8939,-7.9454,-7.9454,-8.0047,-8.0506,-8.0506,-8.0506,-8.0506,-8.0506,-8.0506,-8.0506,-8.0506,-8.0506,-8.0162,-7.9493,-7.9454,-7.9454,-7.9454,-8.0124,-8.0506,-8.0506,-8.0506,-8.043,-8.0353,-8.0468,-8.0506,0.0,0.0,0.0,0.0,0.0,0.0,-6.0347,0.0,-5.8634,0.0,0.0,0.0,0.0,0.0,0.0,0.0,0.0,0.0,0.0,0.0,0.0,0.0,0.0,0.0,0.0,0.0,0.0,0.0,0.0,-6.0566,-6.0896,-6.2108,-6.278,-6.278,-6.278,-6.3062,-6.3539,-6.3429,-6.3429,-6.3539,-6.3429,-6.3613,-6.4127,-6.4934,-6.5742,-6.6549,-6.7357,-6.7687,-6.7687,-6.7687,-6.7687,-6.7687,-6.7687,-6.7687,-6.7687,-6.7687,-6.781,-6.7982,-6.7982,-6.8134,-6.8321,-6.8633,-6.9731,-7.1081,-7.1381,-7.2567,-7.4039,-7.5268,-7.6217,-7.7073,-7.8024,-7.8481,-7.8654,-7.8731,-7.8428,-7.8255,-7.8673,-7.8634,-7.8825,-7.9818,-7.9895,-7.9589,-7.8863,-7.9436,-7.9856,-7.9513,-7.9742,-8.0009,-8.0009,-8.0277,-8.0506,-8.0506,-8.0506,-8.0506,-8.0506,-8.0506,-8.0506,-8.0506,-8.0506,-8.0353,-8.0009,-8.0009,-8.0009,-8.0009,-8.0315,-8.0506,-8.0506,-8.0506,-8.0506,-8.0506,-8.0506,-8.0506,-5.9931,0.0,0.0,0.0,0.0,0.0,0.0,0.0,0.0,0.0,0.0,0.0,0.0,0.0,0.0,0.0,0.0,0.0,0.0,0.0,0.0,0.0,0.0,0.0,0.0,0.0,0.0,0.0,-5.9281,0.0,-6.0382,-6.1741,-6.2585,-6.278,-6.3025,-6.3356,-6.3723,-6.3576,-6.3686,-6.409,-6.3686,-6.3943,-6.4787,-6.5375,-6.6072,-6.6843,-6.743,-6.7687,-6.7687,-6.7687,-6.7687,-6.7687,-6.7687,-6.7687,-6.7687,-6.7687,-6.7687,-6.7687,-6.7687,-6.7834,-6.8098,-6.8416,-6.9855,-7.1451,-7.1451,-7.2542,-7.4009,-7.4833,-7.5562,-7.6355,-7.736,-7.7679,-7.7863,-7.8275,-7.7984,-7.7938,-7.9056,-7.8787,-7.8787,-8.02,-8.0009,-7.9646,-7.9646,-7.9933,-8.0086,-7.9856,-8.0009,-8.0162,-8.0162,-8.0353,-8.0506,-8.0506,-8.0506,-8.0506,-8.0506,-8.0506,-8.0506,-8.0506,-8.0506,-8.0506,-8.0506,-8.0506,-8.0506,-8.0506,-8.0506,-8.0506,-8.0506,-8.0506,-8.0506,-8.0506,-8.0506,-8.0506,0.0,0.0,0.0,-6.2229,0.0,0.0,0.0,0.0,-6.0114,0.0,0.0,0.0,0.0,0.0,0.0,-5.5772,0.0,0.0,0.0,0.0,0.0,0.0,0.0,0.0,0.0,0.0,0.0,-5.7997,-5.8767,-5.9588,-6.0382,-6.119,-6.1998,-6.278,-6.3613,-6.3686,-6.2853,-6.442,-6.4861,-6.409,-6.4861,-6.5632,-6.6402,-6.6439,-6.688,-6.765,-6.7687,-6.7687,-6.7687,-6.7687,-6.7687,-6.7687,-6.7687,-6.7687,-6.7687,-6.7687,-6.7687,-6.7687,-6.7687,-6.8201,-6.8862,-6.8889,-6.9991,-7.1341,-7.1341,-7.2243,-7.3473,-7.4316,-7.5446,-7.6324,-7.5596,-7.7137,-7.8384,-7.6554,-7.7303,-7.8622,-7.9171,-7.9302,-7.9493,-8.0353,-8.0468,-8.0468,-8.0468,-7.9818,-7.9054,-7.8213,-7.8787,-7.934,-7.934,-8.0009,-8.0506,-8.0506,-8.0506,-8.0506,-8.0506,-8.0506,-8.0506,-8.0506,-8.0506,-8.0506,-8.0506,-8.0506,-8.0506,-8.0506,-8.0506,-8.0506,-8.0506,-8.0506,-8.0506,-8.0506,-8.0506,-8.0506,0.0,0.0,-6.2705,-6.2603,0.0,0.0,0.0,0.0,0.0,0.0,0.0,0.0,0.0,0.0,-5.9328,-5.7728,-5.8103,0.0,0.0,0.0,0.0,0.0,0.0,0.0,0.0,0.0,0.0,-5.7997,-5.8767,-5.9551,0.0,-6.1153,-6.1961,-6.2743,-6.3099,-6.3392,-6.3649,-6.4237,-6.464,-6.4897,-6.5191,-6.5742,-6.6512,-6.6512,-6.6953,-6.7687,-6.7687,-6.7687,-6.7687,-6.7687,-6.7687,-6.7724,-6.8274,-6.8495,-6.8421,-6.7907,-6.8017,-6.8568,-6.9082,-6.9449,-6.9706,-6.9706,-7.044,-7.1293,-7.1293,-7.2381,-7.3618,-7.3876,-7.4947,-7.6028,-7.6301,-7.6843,-7.7344,-7.7592,-7.8099,-7.8642,-7.9171,-7.9704,-8.0162,-8.043,-8.0506,-8.0506,-8.0506,-8.0277,-7.9971,-7.9704,-7.9895,-8.0086,-8.0086,-8.0315,-8.0506,-8.0506,-8.0506,-8.0506,-8.0506,-8.0506,-8.0506,-8.0506,-8.0506,-8.0506,-8.0506,-8.0506,-8.0506,-8.0506,-8.0506,-8.0506,-8.0506,-8.0506,-8.0506,-8.0506,-8.0506,-8.0506,-6.1691,-6.2107,0.0,-6.2654,-6.2629,0.0,-6.2475,0.0,0.0,0.0,0.0,0.0,0.0,0.0,0.0,-5.9092,-5.8729,-5.8232,0.0,-5.7442,0.0,0.0,0.0,0.0,0.0,0.0,-5.781,-5.7997,-5.8427,-5.9197,0.0,0.0,-6.1667,-6.2743,-6.3099,-6.3392,-6.3649,-6.4237,-6.464,-6.4897,-6.5448,-6.5999,-6.6512,-6.6806,-6.721,-6.7724,-6.7981,-6.8128,-6.8128,-6.8128,-6.8128,-6.8164,-6.8715,-6.8898,-6.8862,-6.8641,-6.8862,-6.9412,-6.9926,-7.0293,-7.055,-7.055,-7.1064,-7.1725,-7.1725,-7.2642,-7.3523,-7.2642,-7.4097,-7.5708,-7.5079,-7.5835,-7.7001,-7.7748,-7.8154,-7.8565,-7.93,-7.9838,-8.0258,-8.0449,-8.0506,-8.0506,-8.0506,-8.0506,-8.0506,-8.0506,-8.0506,-8.0506,-8.0506,-8.0506,-8.0506,-8.0506,-8.0506,-8.0506,-8.0506,-8.0506,-8.0506,-8.0506,-8.0506,-8.0506,-8.0506,-8.0506,-8.0926,-8.1843,-8.0964,-8.0964,-8.1843,-8.0926,-8.0506,-8.0506,-8.0506,-8.0506]},{"header":{"parameterUnit":"m.s-1","parameterCategory":1,"la1":30.6,"la2":29.2853,"lo1":-89.7004,"lo2":-87.6739,"dy":0.0162,"dx":0.0183,"nx":112,"ny":82,"refTime":"2024-03-29T06:00:00:Z","depth":0,"parameterNumber":3,"parameterNumberName":"V-component_of_WINDS"},"data":[0.0,0.0,0.0,0.0,0.0,0.0,0.0,0.0,0.0,0.0,0.0,0.0,0.0,0.0,0.0,0.0,0.0,0.0,0.0,0.0,0.0,0.0,0.0,0.0,0.0,0.0,0.0,0.0,0.0,0.0,0.0,0.0,0.0,0.0,0.0,0.0,0.0,0.0,0.0,0.0,0.0,0.0,0.0,0.0,0.0,0.0,0.0,0.0,0.0,0.0,0.0,0.0,0.0,0.0,0.0,0.0,0.0,0.0,0.0,0.0,0.0,0.0,0.0,0.0,0.0,0.0,0.0,0.0,0.0,0.0,0.0,0.0,0.0,0.0,0.0,0.0,0.0,0.0,0.0,0.0,0.0,0.0,0.0,0.0,0.0,0.0,0.0,0.0,0.0,0.0,0.445,0.5033,0.8169,1.0037,0.96,1.1245,1.1247,0.8798,0.0,0.0,0.0,0.0,0.0,0.0,0.0,0.0,0.0,0.0,0.0,0.0,0.0,0.0,0.0,0.0,0.0,0.0,0.0,0.0,0.0,0.0,0.0,0.0,0.0,0.0,0.0,0.0,0.0,0.0,0.0,0.0,0.0,0.0,0.0,0.0,0.0,0.0,0.0,0.0,0.0,0.0,0.0,0.0,0.0,0.0,0.0,0.0,0.0,0.0,0.0,0.0,0.0,0.0,0.0,0.0,0.0,0.0,0.0,0.0,0.0,0.0,0.0,0.0,0.0,0.0,0.0,0.0,0.0,0.0,0.0,0.0,0.0,0.0,0.0,0.0,0.0,0.0,0.0,0.0,0.0,0.0,0.0,0.0,0.0,0.0,0.0,0.0,0.0,0.0,0.0,0.0,0.0,0.0,0.0,0.0,0.0,0.0,0.0,0.0,0.0,0.0,0.0,0.0,0.5005,0.6608,0.8883,1.0037,0.96,1.099,1.1473,1.0373,0.0,0.0,0.0,0.0,0.0,0.0,0.0,0.0,0.0,0.0,0.0,0.0,0.0,0.0,0.0,0.0,0.0,0.0,0.0,0.0,0.0,0.0,0.0,0.0,0.0,0.0,0.0,0.0,0.0,0.0,0.0,0.0,0.0,0.0,0.0,0.0,0.0,0.0,0.0,0.0,0.0,0.0,0.0,0.0,0.0,0.0,0.0,0.0,0.0,0.0,0.0,0.0,0.0,0.0,0.0,0.0,0.0,0.0,0.0,0.0,0.0,0.0,0.0,0.0,0.0,0.0,0.0,0.0,0.0,0.0,0.0,0.0,0.0,0.0,0.0,0.0,0.0,0.0,0.0,0.0,0.0,0.0,0.0,0.0,0.0,0.0,0.0,0.0,0.0,0.0,0.0,0.0,0.0,0.0,0.0,0.0,0.0,0.0,0.0,0.0,0.0,0.0,0.0,0.5243,0.6915,0.9408,1.0684,1.1281,1.106,1.141,1.1061,0.9746,0.9973,0.0,0.0,0.0,0.0,0.0,0.0,0.0,0.0,0.0,0.0,0.0,0.0,0.0,0.0,0.0,0.0,0.0,0.0,0.0,0.0,0.0,0.0,0.0,0.0,0.0,0.0,0.0,0.0,0.0,0.0,0.0,0.0,0.0,0.0,0.0,0.0,0.0,0.0,0.0,0.0,0.0,0.0,0.0,0.0,0.0,0.0,0.0,0.0,0.0,0.0,0.0,0.0,0.0,0.0,0.0,0.0,0.0,0.0,0.0,0.0,0.0,0.0,0.0,0.0,0.0,0.0,0.0,0.0,0.0,0.0,0.0,0.0,0.0,0.0,0.0,0.0,0.0,0.0,0.0,0.0,0.0,0.0,0.0,0.0,0.0,0.0,0.0,0.0,0.0,0.0,0.0,0.0,0.0,0.0,0.0,0.0,0.0,0.0,0.0,0.0,0.0,0.0,0.7175,0.8732,1.1444,1.2088,1.225,1.2142,1.164,1.0724,0.9293,0.9443,0.0,0.0,0.0,0.0,0.0,0.0,0.0,0.0,0.0,0.0,0.0,0.0,0.0,0.0,0.0,0.0,0.0,0.0,0.0,0.0,0.0,0.0,0.0,0.0,0.0,0.0,0.0,0.0,0.0,0.0,0.0,0.0,0.0,0.0,0.0,0.0,0.0,0.0,0.0,0.0,0.0,0.0,0.0,0.0,0.0,0.0,0.0,0.0,0.0,0.0,0.0,0.0,0.0,0.0,0.0,0.0,0.0,0.0,0.0,0.0,0.0,0.0,0.0,0.0,0.0,0.0,0.0,0.0,0.0,0.0,0.0,0.0,0.0,0.0,0.0,0.0,0.0,0.0,0.0,0.0,0.0,0.0,0.0,0.0,0.0,0.0,0.0,0.0,0.0,0.0,0.0,0.0,0.0,0.0,0.0,0.0,0.0,0.0,0.0,0.0,0.0,0.0,0.8126,0.9865,1.1469,1.2026,1.2121,1.1701,1.1369,1.0989,1.0404,0.9007,0.0,0.0,0.0,0.0,0.0,0.0,0.0,0.0,0.0,0.0,0.0,0.0,0.0,0.0,0.0,0.0,0.0,0.0,0.0,0.0,0.0,0.0,0.0,0.0,0.0,0.0,0.0,0.0,0.0,0.0,0.0,0.0,0.0,0.0,0.0,0.0,0.0,0.0,0.0,0.0,0.0,0.0,0.0,0.0,0.0,0.0,0.0,0.0,0.0,0.0,0.0,0.0,0.0,0.0,0.0,0.0,0.0,0.0,0.0,0.0,0.0,0.0,0.0,0.0,0.0,0.0,0.0,0.0,0.0,0.0,0.0,0.0,0.0,0.0,0.0,0.0,0.0,0.0,0.0,0.0,0.0,0.0,0.0,0.0,0.0,0.0,0.0,0.0,0.0,0.0,0.0,0.0,0.0,0.0,0.0,0.0,0.0,0.0,0.0,0.0,0.0,0.0,0.8009,0.9735,0.0,1.1714,1.1803,1.1633,1.1165,1.0772,1.0507,0.0,0.0,0.0,0.0,0.0,0.0,0.0,0.0,0.0,0.0,0.0,0.0,0.0,0.0,0.0,0.0,0.0,0.0,0.0,0.0,0.0,0.0,0.0,0.0,0.0,0.0,0.0,0.0,0.0,0.0,0.0,0.0,0.0,0.0,0.0,0.0,0.0,0.0,0.0,0.0,0.0,0.0,0.0,0.0,0.0,0.0,0.0,0.0,0.0,0.0,0.0,0.0,0.0,0.0,0.0,0.0,0.0,0.0,0.0,0.0,0.0,0.0,0.0,0.0,0.0,0.0,0.0,0.0,0.0,0.0,0.0,0.0,0.0,0.0,0.0,0.0,0.0,0.0,0.0,0.0,0.0,0.0,0.0,0.0,0.0,0.0,0.0,0.0,0.0,0.0,0.0,0.0,0.0,0.0,0.0,0.0,0.0,0.0,0.0,0.0,0.0,0.0,0.6149,0.8204,0.9992,0.0,1.143,1.1511,1.1416,1.0941,1.0582,1.0432,0.0,0.0,0.0,0.0,0.0,0.0,0.0,0.0,0.0,0.0,0.0,0.0,0.0,0.0,0.0,0.0,0.0,0.0,0.0,0.0,0.0,0.0,0.0,0.0,0.0,0.0,0.0,0.0,0.0,0.0,0.0,0.0,0.0,0.0,0.0,0.0,0.0,0.0,0.0,0.0,0.0,0.0,0.0,0.0,0.0,0.0,0.0,0.0,0.0,0.0,0.0,0.0,0.0,0.0,0.0,0.0,0.0,0.0,0.0,0.0,0.0,0.0,0.0,0.0,0.0,0.0,0.0,0.0,0.0,0.0,0.0,0.0,0.0,0.0,0.0,0.0,0.0,0.0,0.0,0.0,0.0,0.0,0.0,0.0,0.0,0.0,0.0,0.0,0.0,0.0,0.0,0.0,0.0,0.0,0.0,0.0,0.0,0.0,0.0,0.0,0.0,0.0,0.6285,0.8999,1.088,1.088,1.1212,1.1267,1.0907,1.067,1.0432,0.0,0.0,0.0,0.0,0.0,0.0,0.0,0.0,0.0,0.0,0.0,0.0,0.0,0.0,0.0,0.0,0.0,0.0,0.0,0.0,0.0,0.0,0.0,0.0,0.0,0.0,0.0,0.0,0.0,0.0,0.0,0.0,0.0,0.0,0.0,0.0,0.0,0.0,0.0,0.0,0.0,0.0,0.0,0.0,0.0,0.0,0.0,0.0,0.0,0.0,0.0,0.0,0.0,0.0,0.0,0.0,0.0,0.0,0.0,0.0,0.0,0.0,0.0,0.0,0.0,0.0,0.0,0.0,0.0,0.0,0.0,0.0,0.0,0.0,0.0,0.0,0.0,0.0,0.0,0.0,0.0,0.0,0.0,0.0,0.0,0.0,0.0,0.0,0.0,0.0,0.0,0.0,0.0,0.0,0.0,0.0,0.0,0.0,0.0,0.0,0.0,0.0,0.0,0.7556,0.9435,1.0711,1.086,1.0961,1.1043,1.0887,1.067,1.0432,1.029,0.0,0.0,0.0,0.0,0.0,0.0,0.0,0.0,0.0,0.0,0.0,0.0,0.0,0.0,0.0,0.0,0.0,0.0,0.0,0.0,0.0,0.0,0.0,0.0,0.0,0.0,0.0,0.0,0.0,0.0,0.0,0.0,0.0,0.0,0.0,0.0,0.0,0.0,0.0,0.0,0.0,0.0,0.0,0.0,0.0,0.0,0.0,0.0,0.0,0.0,0.0,0.0,0.0,0.0,0.0,0.0,0.0,0.0,0.0,0.0,0.0,0.0,0.0,0.0,0.0,0.0,0.0,0.0,0.0,0.0,0.0,0.0,0.0,0.0,0.0,0.0,0.0,0.0,0.0,0.0,0.0,0.0,0.0,0.0,0.0,0.0,0.0,0.0,0.0,0.0,0.0,0.0,0.0,0.0,0.0,0.0,0.0,0.0,0.0,0.0,0.0,0.0,0.8193,0.9511,1.0521,1.0759,1.0793,1.0793,1.0793,1.0629,1.0432,1.029,0.0,0.0,0.0,0.0,0.0,0.0,0.0,0.0,0.0,0.0,0.0,0.0,0.0,0.0,0.0,0.0,0.0,0.0,0.0,0.0,0.0,0.0,0.0,0.0,0.0,0.0,0.0,0.0,0.0,0.0,0.0,0.0,0.0,0.0,0.0,0.0,0.0,0.0,0.0,0.0,0.0,0.0,0.0,0.0,0.0,0.0,0.0,0.0,0.0,0.0,0.0,0.0,0.0,0.0,0.0,0.0,0.0,0.0,0.0,0.0,0.0,0.0,0.0,0.0,0.0,0.0,0.0,0.0,0.0,0.0,0.0,0.0,0.0,0.0,0.0,0.0,0.0,0.0,0.0,0.0,0.0,0.0,0.0,0.0,0.0,0.0,0.0,0.0,0.0,0.0,0.0,0.0,0.0,0.0,0.0,0.0,0.0,0.0,0.0,0.0,0.0,0.0,0.8447,0.957,1.0392,1.069,1.0711,1.0704,1.0717,1.0568,1.0419,1.029,0.0,0.0,0.0,0.0,0.0,0.0,0.0,0.0,0.0,0.0,0.0,0.0,0.0,0.0,0.0,0.0,0.0,0.0,0.0,0.0,0.0,0.0,0.0,0.0,0.0,0.0,0.0,0.0,0.0,0.0,0.0,0.0,0.0,0.0,0.0,0.0,0.0,0.0,0.0,0.0,0.0,0.0,0.0,0.0,0.0,0.0,0.0,0.0,0.0,0.0,0.0,0.0,0.0,0.0,0.0,0.0,0.0,0.0,0.0,0.0,1.082,0.0,0.0,0.0,0.0,0.0,0.0,0.0,0.0,0.0,0.0,0.0,0.0,0.0,0.0,0.0,0.0,0.0,0.0,0.0,0.0,0.0,0.0,0.0,0.0,0.0,0.0,0.0,0.0,0.0,0.0,0.0,0.0,0.0,0.0,0.0,0.0,0.0,0.0,0.0,0.0,0.0,0.9729,1.0149,1.0392,1.069,1.0616,1.0588,1.0711,1.048,1.031,1.0283,1.0134,0.0,0.0,0.0,0.0,0.0,0.0,0.0,0.0,0.0,0.0,0.0,0.0,0.0,0.0,0.0,0.0,0.0,0.0,0.0,0.0,0.0,0.0,0.0,0.0,0.0,0.0,0.0,0.0,0.0,0.0,0.0,0.0,0.0,0.0,0.0,0.0,0.0,0.0,0.0,0.0,0.0,0.0,0.0,0.0,0.0,0.0,0.0,0.0,0.0,0.0,0.0,0.0,0.0,0.0,0.0,0.0,0.0,0.0,0.0,0.0,1.109,0.0,0.0,0.0,0.0,0.0,0.0,0.0,0.0,0.0,0.0,0.0,0.0,0.0,0.0,0.0,0.0,0.0,0.0,0.0,0.0,0.0,0.0,0.0,0.0,0.0,0.0,0.0,0.0,0.0,0.0,0.0,0.0,0.0,0.0,0.0,0.0,0.0,0.0,0.0,0.0,1.0186,1.0337,1.0466,1.0697,1.0582,1.0521,1.0602,1.0405,1.0249,1.0175,1.0031,0.0,0.0,0.0,0.0,0.0,0.0,0.0,0.0,0.0,0.0,0.0,0.0,0.0,0.0,0.0,0.0,0.0,0.0,0.0,0.0,0.0,0.0,0.0,0.0,0.0,0.0,0.0,0.0,0.0,0.0,0.0,0.0,0.0,0.0,0.0,0.0,0.0,0.0,0.0,0.0,0.0,0.0,0.0,0.0,0.0,0.0,0.0,0.0,0.0,0.0,0.0,0.0,0.0,1.1828,1.1964,1.2033,1.2162,1.2284,1.2372,1.1721,1.1389,1.1307,0.0,0.0,0.0,0.0,0.0,0.0,0.0,0.0,0.0,0.0,0.0,0.0,0.0,0.0,0.0,0.0,0.0,0.0,0.0,0.0,0.0,0.0,0.0,0.0,0.0,1.0717,1.0047,0.0,0.0,0.0,0.0,0.0,0.0,0.0,0.0,0.0,0.0,0.0,0.0,1.0263,1.0405,1.0548,1.0704,1.0561,1.0466,1.0487,1.031,1.0154,0.9997,0.9963,1.0012,0.0,0.0,0.0,0.0,0.0,0.0,0.0,0.0,0.0,0.0,0.0,0.0,0.0,0.0,0.0,0.0,0.0,0.0,0.0,0.0,0.0,0.0,0.0,0.0,0.0,0.0,0.0,0.0,0.0,0.0,0.0,0.0,1.2766,1.2774,0.0,0.0,0.0,0.0,0.0,0.0,0.0,0.0,0.0,0.0,0.0,0.0,0.0,0.0,1.3104,1.3348,1.3326,1.3176,1.312,1.3056,1.2813,1.2834,1.2854,1.2861,1.2623,0.0,1.1998,1.1647,0.0,0.0,0.0,0.0,0.0,0.0,0.0,0.0,0.0,0.0,0.0,0.0,0.0,0.0,0.0,0.0,0.0,0.0,0.0,0.0,0.0,0.0,1.0717,1.0717,1.0717,1.0585,0.0,1.0114,1.0114,1.0114,0.0,0.0,0.0,0.0,0.0,0.0,0.0,0.0,1.0263,1.0405,1.0548,1.0704,1.0473,1.0358,1.048,1.012,0.993,0.9977,0.9862,0.9842,0.9883,1.0126,0.0,0.0,0.0,0.0,0.0,0.0,0.0,0.0,0.0,0.0,0.0,0.0,0.0,0.0,0.0,0.0,0.0,0.0,0.0,0.0,0.0,0.0,0.0,0.0,0.0,0.0,0.0,0.0,0.0,1.2873,1.2946,1.2782,1.2921,1.2879,0.0,0.0,0.0,0.0,0.0,0.0,0.0,0.0,0.0,1.3425,1.3837,1.3938,1.3951,1.4024,1.4102,1.4113,1.4114,1.4164,1.416,1.3998,1.404,1.4282,1.3788,1.3507,1.3347,1.2222,1.1613,1.1389,0.0,0.0,0.0,0.0,0.0,1.1104,1.1335,1.1362,0.0,0.0,0.0,0.0,0.0,0.0,0.0,0.0,0.0,0.0,0.0,0.0,0.0,1.0717,1.0717,1.0717,1.0717,1.0717,1.0717,0.0,1.0595,1.0473,1.0412,0.0,0.0,0.0,0.0,1.0324,1.0392,1.0527,1.0643,1.0711,1.046,1.0304,1.0371,1.0218,1.0093,1.0162,1.0282,1.0429,1.0664,1.0429,1.0429,0.0,0.0,0.0,0.0,0.0,0.0,0.0,0.0,0.0,0.0,0.0,0.0,0.0,0.0,0.0,0.0,0.0,0.0,0.0,0.0,0.0,0.0,0.0,0.0,0.0,0.0,0.0,0.0,1.3011,1.3133,1.2798,1.3068,1.3133,0.0,0.0,0.0,0.0,0.0,0.0,1.3271,1.3986,1.4396,1.4444,1.4869,1.497,1.4908,1.4954,1.498,1.4983,1.5105,1.5165,1.516,1.4944,1.5059,1.5272,1.4762,1.4507,1.4475,1.2998,1.2227,1.1839,1.1601,1.1338,1.1221,1.1545,1.1657,1.1671,1.1914,1.1921,1.1761,1.1678,0.0,1.1184,1.1031,0.0,0.0,0.0,0.0,1.0982,1.085,0.0,1.0784,1.0717,1.0717,1.0717,1.0717,1.0717,1.0717,0.0,1.0629,1.0534,1.05,0.0,0.0,0.0,0.0,1.0493,1.0493,1.0622,1.0704,1.0663,1.0432,1.0263,1.0222,1.0156,1.0186,1.0308,1.0543,1.0853,1.1148,1.0785,1.0725,1.1148,0.0,0.0,0.0,0.0,0.0,0.0,0.0,0.0,0.0,0.0,0.0,0.0,0.0,0.0,0.0,0.0,0.0,0.0,0.0,0.0,0.0,0.0,0.0,0.0,0.0,0.0,0.0,0.0,0.0,1.2831,1.3227,0.0,0.0,0.0,0.0,1.351,1.3766,1.4091,1.4611,1.4822,1.5098,1.5384,1.574,1.6006,1.6176,1.6354,1.6361,1.6011,1.6019,1.5946,1.5667,1.5675,1.5593,1.5429,1.5186,1.5011,1.4661,1.4147,1.3425,1.2695,1.2882,1.2553,1.2037,1.2706,1.2865,1.2775,1.3118,1.3118,1.2881,1.2783,1.2403,1.1918,1.1762,1.171,0.0,0.0,1.171,1.1644,1.1247,1.1181,1.1115,1.0784,1.0717,1.0717,1.0717,1.0717,1.0717,0.0,1.0711,1.0663,1.0514,0.0,1.0432,1.0297,1.0399,1.0493,1.0493,1.0622,1.0663,1.0521,1.0371,1.0222,1.0011,0.991,0.9943,1.0301,1.0308,1.0482,1.0785,1.1088,1.1095,1.0846,1.0785,0.0,0.0,0.0,0.0,0.0,0.0,0.0,0.0,0.0,0.0,0.0,0.0,0.0,0.0,0.0,0.0,0.0,0.0,0.0,0.0,0.0,0.0,0.0,0.0,0.0,0.0,0.0,0.0,1.3324,1.3928,0.0,1.3896,1.392,1.4058,1.431,1.4489,1.4773,1.5204,1.5504,1.5829,1.6186,1.6438,1.6649,1.682,1.6885,1.6863,1.6753,1.6753,1.6697,1.6585,1.6313,1.6228,1.6238,1.5917,1.5779,1.568,1.547,1.4584,1.3391,1.3267,1.3029,1.2778,1.2962,1.3042,1.3019,1.3252,1.3222,1.3118,1.2914,1.2492,1.2149,1.1723,1.1678,1.1639,1.1238,1.1126,1.1182,1.0944,1.085,1.085,1.0717,1.0717,1.0717,1.0717,1.0717,1.0717,1.0717,1.0717,1.0704,1.0649,1.0636,1.0622,1.0568,1.0609,1.0636,1.0636,1.0602,1.0555,1.05,1.0276,1.0107,0.999,1.0094,1.0247,1.0604,1.0853,1.1095,1.1405,1.1337,1.1337,1.1466,1.1216,1.1035,0.0,0.0,0.0,0.0,0.0,0.0,0.0,0.0,0.0,0.0,0.0,0.0,0.0,0.0,0.0,0.0,0.0,0.0,0.0,0.0,0.0,0.0,0.0,0.0,0.0,0.0,1.4156,1.4099,1.4676,1.4976,1.4724,1.4757,1.4895,1.5139,1.5374,1.5642,1.5951,1.6243,1.6487,1.6665,1.6844,1.6998,1.7112,1.7112,1.7112,1.7112,1.7112,1.7112,1.7112,1.6753,1.6665,1.6766,1.6442,1.6244,1.6292,1.6113,1.5408,1.443,1.4083,1.3769,1.3557,1.3698,1.3667,1.3621,1.3683,1.3698,1.3637,1.3236,1.2951,1.2666,1.2225,1.2142,1.2066,1.165,1.1495,1.1517,1.1276,1.1247,1.1181,1.1115,1.1049,1.1049,1.1049,1.1049,1.1049,1.1049,1.085,1.0717,1.0717,1.0717,1.0717,1.0717,1.0717,1.0717,1.0717,1.0588,1.0473,1.0426,1.0195,1.0025,1.0101,1.0169,1.0426,1.0914,1.1088,1.14,1.1776,1.1587,1.1587,1.1776,1.1587,1.1216,1.0604,0.0,0.0,0.0,0.0,0.0,0.0,0.0,0.0,0.0,0.0,0.0,0.0,0.0,0.0,0.0,0.0,0.0,0.0,0.0,0.0,0.0,0.0,0.0,1.3376,1.4164,1.4806,1.4984,1.548,1.5675,1.5325,1.5455,1.5715,1.6064,1.6405,1.6682,1.6782,1.7031,1.7039,1.679,1.7023,1.7112,1.7112,1.7112,1.7112,1.7112,1.7112,1.7112,1.7112,1.7112,1.7015,1.675,1.6657,1.647,1.6284,1.6105,1.5934,1.574,1.5382,1.4905,1.4446,1.4891,1.4854,1.4684,1.4497,1.4424,1.4335,1.3752,1.3582,1.3542,1.3425,1.3246,1.31,1.3092,1.2912,1.2716,1.2379,1.2305,1.2173,1.1909,1.1776,1.1776,1.1776,1.1776,1.1784,1.1784,1.1181,1.0717,1.0717,1.0717,1.0717,1.0717,1.0717,0.0,1.0711,1.0575,1.0426,1.036,1.0141,1.0115,1.0268,1.0149,1.0355,1.1224,1.1126,1.1272,1.1784,1.1776,1.1776,1.1776,1.1776,1.1285,1.0301,0.0,0.0,0.0,0.0,0.0,0.0,0.0,0.0,0.0,0.0,0.0,0.0,0.0,0.0,0.0,0.0,0.0,0.0,0.0,0.0,0.0,1.3417,1.3571,1.3571,1.4676,1.5455,1.5374,1.6178,1.6657,1.6346,1.6568,1.6771,1.6998,1.7112,1.7242,1.7323,1.7356,1.7291,1.7242,1.7153,1.7112,1.7112,1.7112,1.7112,1.7112,1.7112,1.7112,1.7112,1.7112,1.6942,1.6649,1.66,1.6405,1.6105,1.5926,1.5821,1.5748,1.5528,1.5247,1.4999,1.5017,1.4854,1.4684,1.4497,1.4351,1.4205,1.392,1.375,1.3542,1.308,1.2925,1.2786,1.2383,1.2254,1.2201,1.2013,1.1909,1.1916,1.185,1.1578,1.138,1.138,1.1181,1.0982,1.0982,1.085,1.085,1.138,1.1512,1.1512,1.1512,1.1148,0.0,1.1272,1.0834,1.051,1.0651,1.0454,1.0404,1.0417,1.0397,1.0663,1.1285,1.1255,1.1392,1.1776,1.1776,1.1776,1.1776,1.1587,1.1277,0.0,0.0,0.0,0.0,0.0,0.0,0.0,0.0,0.0,0.0,0.0,0.0,0.0,0.0,0.0,0.0,0.0,0.0,0.0,0.0,0.0,0.0,1.3953,1.4269,1.4342,1.5268,1.6016,1.6365,1.6958,1.7323,1.7299,1.7388,1.7494,1.7599,1.7607,1.7656,1.7754,1.7526,1.7388,1.7388,1.721,1.7112,1.7112,1.7112,1.7112,1.7112,1.7112,1.7071,1.7006,1.7006,1.6852,0.0,1.6495,1.6349,1.6137,1.5878,1.5772,0.0,0.0,0.0,0.0,0.0,1.4749,1.4562,1.4391,1.4261,1.4148,1.3961,1.3831,1.3647,1.3261,1.3136,1.3011,1.2624,1.2487,1.2388,1.2285,1.2246,1.2246,1.2246,1.2041,1.1843,1.1843,1.171,1.1578,1.1578,0.0,0.0,1.1909,1.1644,1.1314,1.1314,1.1038,1.0916,1.1105,1.0891,1.0749,1.0785,1.0767,1.0762,1.0819,1.0754,0.0,0.0,0.0,1.1537,1.1784,1.1776,0.0,0.0,0.0,1.1308,1.1378,0.0,0.0,0.0,1.0044,0.9847,0.0,0.0,0.0,0.0,0.0,0.0,0.0,0.0,0.0,0.0,0.0,0.0,0.0,0.0,0.0,0.0,1.4627,1.5366,1.5658,1.5983,1.6544,1.7469,1.7648,1.7762,1.79,1.7932,1.7949,1.7949,1.7949,1.794,1.7916,0.0,0.0,0.0,0.0,1.7112,1.7112,1.7112,1.7112,1.7112,1.7112,1.7023,1.6766,1.6782,1.6763,1.6544,1.6397,1.6308,1.6243,1.5894,1.5723,1.565,1.5358,1.5228,1.5163,1.483,1.4594,0.0,0.0,0.0,0.0,1.3937,1.3855,1.3815,1.366,1.3518,1.3421,1.3181,1.3076,1.3027,1.2881,1.2774,1.2774,1.2774,1.2774,1.2774,1.2774,1.2708,1.27,1.27,1.2444,1.2239,1.2239,1.1446,1.085,1.085,1.077,1.0763,1.0763,1.0874,1.0913,1.0799,0.0,0.0,1.1225,1.1087,1.1225,1.1756,1.1624,1.1624,1.1784,1.1776,1.1776,1.1776,1.1542,1.1439,1.1534,1.1309,1.1213,1.1285,1.0678,1.0175,0.0,0.0,0.0,0.0,0.0,0.0,0.0,0.0,0.0,0.0,0.0,0.0,0.0,0.0,0.0,1.4562,1.513,1.5772,1.6674,1.699,1.7153,1.721,1.7721,1.803,1.7924,1.8046,1.8127,1.8127,1.8127,1.8062,1.7924,1.7713,0.0,1.7388,1.721,1.7112,1.7112,1.7112,1.7112,1.7112,0.0,0.0,1.6774,1.6998,1.6803,1.6365,1.6479,1.6365,1.6064,1.5715,1.539,1.513,1.5212,1.5147,1.4992,1.4781,1.4594,1.4408,1.4237,1.4083,1.3928,1.375,1.3595,1.3465,1.3433,1.3222,0.0,1.3076,1.2994,1.2881,1.2782,1.2774,1.2774,1.2774,1.2568,1.2371,1.2371,1.2173,1.1975,1.1975,1.1909,1.1909,1.1909,1.171,1.1578,1.1578,1.1206,1.1055,1.1315,1.0933,1.0671,1.0777,1.0705,1.071,1.0874,1.0974,1.1147,1.1549,1.1699,1.1748,1.1776,1.1776,1.1776,1.1776,1.1845,1.1872,1.1905,1.1744,1.1515,1.1292,1.091,1.0692,0.0,0.0,0.0,0.0,0.0,0.0,0.0,0.0,0.0,0.0,0.0,1.2913,1.3189,0.0,1.444,1.5236,1.5748,1.63,1.7006,1.7266,1.7421,1.7502,1.7908,1.8144,1.8054,1.8127,1.8135,1.8054,1.7965,1.7867,1.7786,1.7518,1.738,1.7388,1.721,1.7112,1.7112,1.7112,1.7112,1.7112,1.7112,1.7023,1.6766,1.6844,1.6649,1.63,1.6308,1.6211,1.5942,1.5756,1.5431,1.5114,1.5204,1.5074,1.4814,1.4635,1.4456,1.4278,1.4099,1.392,1.3758,1.3598,1.3522,1.3352,1.3262,1.3173,1.3084,1.2994,1.2962,1.2946,1.2856,1.2774,1.2774,1.2774,1.2642,1.2576,1.2576,1.2444,1.2305,1.2305,1.218,1.2041,1.2041,1.1916,1.1776,1.1776,1.1578,1.1461,1.165,1.1508,1.1381,1.1299,1.1474,1.1507,1.1423,1.1464,1.1596,1.1719,1.1805,1.1776,1.1776,1.1776,1.1817,1.1898,1.1803,1.1931,1.2296,1.2075,1.1906,1.1797,1.1473,1.0998,0.0,0.0,0.0,0.0,0.0,0.0,0.0,1.2434,1.2572,1.2962,1.3181,1.3417,1.3782,1.4529,1.5252,1.5748,1.6284,1.6747,1.7063,1.7266,1.7494,1.7778,1.7965,1.8095,1.8168,1.8111,1.803,1.7924,1.7746,1.7624,1.7591,1.7323,1.7218,1.7331,1.7185,1.7112,1.7112,1.7112,1.7112,1.7112,1.7112,1.6998,1.6795,1.6722,1.6527,1.6243,1.6105,1.6024,1.5983,1.5837,1.5561,1.5236,1.5236,1.5041,1.4732,1.4554,1.4375,1.4205,1.4018,1.3839,1.3693,1.3693,1.3571,1.3392,1.3246,1.3254,1.3254,1.297,1.2962,1.3011,1.2807,1.2774,1.2774,1.2774,1.2774,1.2774,1.2774,1.2774,1.2774,1.2774,1.2568,1.2371,1.2371,1.218,1.1975,1.185,1.1776,1.1776,1.1776,1.2018,1.2084,1.1813,1.2131,1.2266,1.1985,1.1993,1.1993,1.2085,1.1922,1.1825,1.1825,1.1792,1.1857,1.2028,1.1751,1.1988,1.2628,1.2273,1.2172,1.2305,1.1909,1.125,1.2424,1.2208,1.204,1.1971,1.2012,1.2158,0.0,1.2897,1.3157,1.3677,1.3928,1.4164,1.4521,1.5065,1.5577,1.5959,1.647,1.6893,1.708,1.7266,1.7404,1.7445,1.7599,1.7827,1.8144,1.7884,1.7762,1.7908,1.7746,1.7575,1.7421,1.738,1.7291,1.7145,1.712,1.7112,1.7112,1.7112,1.7112,1.7112,1.7112,1.6933,1.6617,1.6917,1.669,1.599,1.5974,1.5951,1.5804,1.578,1.5561,1.5236,1.5236,1.5114,1.4919,1.4741,1.4562,1.4375,1.4205,1.4026,1.3872,1.3872,1.3758,1.3542,1.3518,1.3368,1.3116,1.3076,1.297,1.2856,1.284,1.2774,1.2774,1.2774,1.2774,1.2774,1.2774,1.2774,1.2774,1.2774,1.2774,1.2774,1.2774,1.2708,1.2503,1.1909,1.1776,1.1776,1.1776,1.1715,1.1675,1.1637,1.1524,1.1561,1.1775,1.19,1.2051,1.2288,1.2101,1.2004,1.2004,1.1857,1.1857,1.2028,1.2128,1.2369,1.2628,1.24,1.2289,1.2305,1.1578,1.1233,1.2101,1.1979,1.1963,1.215,1.2418,1.2735,1.3076,1.3449,1.3815,1.414,1.444,1.4749,1.5114,1.5618,1.6089,0.0,1.6787,1.7063,1.725,1.7161,1.708,1.708,1.695,1.7128,1.7802,1.7729,1.7632,1.7607,1.7534,1.7413,1.7234,1.7226,1.7193,1.7112,1.7112,1.7112,1.7112,1.7112,1.7112,1.7112,1.7112,1.7031,1.6885,1.6828,1.6527,1.5966,1.5966,1.5943,1.5772,1.5772,1.5561,1.5236,1.5236,1.513,1.4944,1.4773,1.4594,1.4408,1.4237,1.3993,1.375,1.375,1.3628,1.3465,1.336,1.3214,1.3076,1.297,1.2889,1.2774,1.2774,1.2774,1.2774,1.2774,1.2774,1.2774,1.2774,1.2774,1.2774,1.2774,1.2774,1.2774,1.2774,1.2774,1.2708,1.2444,1.2371,1.2371,1.2371,1.2308,1.2326,1.2326,1.2177,1.2139,1.2267,1.2235,1.2147,1.2158,1.2069,1.2028,1.2028,1.206,1.2166,1.2337,1.2418,1.254,1.2726,1.2602,1.2503,1.2305,1.1975,1.1578,1.2131,1.2069,1.2174,1.245,1.2889,1.3319,1.3604,1.4042,1.4456,1.4684,1.4976,1.5285,1.5601,1.6056,1.647,1.6738,1.6966,1.7136,1.7226,1.6925,1.6596,1.6548,1.6259,1.63,1.7055,1.7218,1.7283,1.7307,1.7266,1.7201,1.7112,1.7112,1.7112,1.7112,1.7112,1.7112,1.7112,1.7112,1.7112,1.7112,1.7112,1.7063,1.695,1.6592,1.6316,1.6113,1.5982,1.5967,1.5845,1.5845,1.5634,1.5317,1.5317,1.5171,1.4952,1.483,1.4635,1.4408,1.4237,1.3977,1.3717,1.3717,1.3628,1.349,1.336,1.3279,1.3222,1.3025,1.3019,1.2986,1.2986,1.2986,1.2986,1.2986,1.2946,1.2905,1.2905,1.2873,1.2774,1.2774,1.2774,1.2774,1.2774,1.2774,1.2774,1.2774,1.2774,1.2774,1.2774,1.2774,1.2774,1.2774,1.2718,1.2621,1.2564,1.245,1.232,1.2182,1.2134,1.2125,1.2174,1.2264,1.2385,1.262,1.25,1.2588,1.2774,1.2642,1.2444,1.2305,1.2107,1.1776,1.2336,1.2158,1.2418,1.2938,1.3352,1.3695,1.4278,1.4684,1.5041,1.5407,1.5626,1.5804,1.5999,1.6324,1.6576,1.6584,1.6885,1.7055,1.6806,1.6552,1.6259,1.6089,1.5601,1.5415,0.0,1.6146,1.656,1.708,1.6966,1.6942,1.7104,1.7112,1.7112,1.7112,1.7112,1.7112,1.7112,1.7112,1.7112,1.7112,1.7112,1.6933,1.6584,1.6227,1.6146,1.6284,1.6121,1.5958,1.5958,1.5958,1.5829,1.5504,1.5504,1.5285,1.4968,1.496,1.4732,1.4408,1.4237,1.405,1.3896,1.3896,1.3888,1.3888,1.388,1.3758,1.3558,1.355,1.349,1.3352,1.3352,1.3352,1.3352,1.3352,1.3214,1.3084,1.3084,1.2954,1.2774,1.2774,1.2774,1.2774,1.2774,1.2774,1.2774,1.2774,1.2774,1.2774,1.2774,1.2774,1.2774,1.2774,1.2832,1.2759,1.258,1.2556,1.262,1.2548,1.2393,1.2377,1.254,1.2393,1.2385,1.262,1.2234,1.2263,1.2774,1.2173,1.1975,1.2305,1.1578,1.1446,1.2299,1.2515,1.2929,1.3352,1.3912,1.4424,1.4716,1.5065,1.5333,1.5333,1.5277,1.522,1.5171,1.535,1.5626,1.5983,1.6341,1.6682,1.6982,1.682,1.6422,1.5772,1.5536,0.0,0.0,0.0,0.0,1.6706,1.6706,1.6803,1.7096,1.7112,1.7112,1.7112,1.7112,1.7112,1.7112,1.7112,1.7112,1.7112,1.6998,1.6812,1.6568,1.6324,1.6121,1.5959,1.6016,1.5828,1.5699,1.5821,1.565,1.5333,1.5333,1.5179,1.4968,1.4968,1.4822,1.4586,1.4408,1.4148,1.3904,1.3904,1.3904,1.388,1.3766,1.3623,1.355,1.3498,1.3417,1.3368,1.3368,1.3368,1.3368,1.3368,1.3327,1.3279,1.3279,1.323,1.3157,1.3035,1.3011,1.297,1.279,1.2774,1.2774,1.2774,1.2774,1.2774,1.2774,1.2774,1.2774,1.2774,1.2774,1.2767,1.258,1.2628,1.2515,1.2402,1.2442,1.2507,1.2628,1.2629,1.2686,1.2743,1.2612,1.2644,1.2774,1.2576,1.251,1.2642,1.2173,1.1909,1.2627,1.2929,1.3392,1.3744,1.4416,1.4927,1.5041,1.5301,1.5447,1.5195,1.4944,1.4724,1.4546,1.4659,1.4887,1.5236,1.5593,1.6016,1.656,1.6316,1.5943,1.5561,1.5285,1.5041,0.0,0.0,0.0,1.6332,1.6511,1.6706,1.7006,1.708,1.7112,1.7112,1.7112,1.7112,1.7112,1.7112,1.708,1.7015,1.6836,1.6657,1.6479,1.6292,1.6089,1.5878,1.5999,1.5918,1.5715,1.5821,1.5658,1.5342,1.5407,1.5236,1.4976,1.5041,1.4911,1.4692,1.457,1.4335,1.4083,1.4018,1.4002,1.3969,1.379,1.3734,1.3709,1.3595,1.3563,1.3563,1.3563,1.3563,1.3563,1.3563,1.3514,1.3465,1.3465,1.3417,1.3336,1.3214,1.3189,1.3157,1.3043,1.297,1.2905,1.2782,1.2774,1.2774,1.2774,1.2774,1.2774,1.2774,1.2774,1.2767,1.258,1.2628,1.2515,1.2402,1.2499,1.2596,1.2661,1.2775,1.2774,1.2774,1.27,1.27,1.2774,1.2576,1.251,1.2642,1.2305,1.1982,1.3303,1.3409,1.3744,1.4318,1.4854,1.5244,1.522,1.535,1.5366,1.4976,1.4611,1.431,1.414,0.0,1.4375,1.4448,1.4741,1.5171,1.5756,1.5252,1.5,0.0,0.0,0.0,0.0,0.0,0.0,1.5909,0.0,1.6641,1.6766,1.7023,1.7112,1.7112,1.7112,1.7112,1.7112,1.7112,1.7031,1.6774,1.6674,1.6487,1.6308,1.6129,1.5958,1.595,1.5958,1.604,1.595,1.5958,1.5837,1.5536,1.5699,1.5431,1.4984,1.5163,1.5009,1.4724,1.4724,1.4594,1.4408,1.4245,1.4188,1.4156,1.3985,1.3928,1.3928,1.392,1.3912,1.3912,1.3904,1.3904,1.3904,1.3904,1.3774,1.359,1.359,1.3522,1.3392,1.3384,1.3376,1.3368,1.3368,1.3214,1.3035,1.2807,1.2774,1.2774,1.2774,1.2774,1.2774,1.2774,1.2774,1.2767,1.2596,1.258,1.258,1.258,1.258,1.2653,1.2766,1.2774,1.2774,1.2774,1.2503,1.2503,1.2774,1.218,1.1982,1.2312,1.1975,1.185,1.342,1.3961,1.4473,1.4603,1.5041,1.5342,1.4935,1.4879,1.4732,1.4107,1.3693,1.3384,1.3206,1.3214,1.3595,1.4659,1.4903,0.0,1.66,1.6503,0.0,1.5861,1.5861,1.5707,1.5407,1.5577,0.0,0.0,1.6202,1.643,1.7015,1.7088,1.7112,1.7112,1.7112,1.7112,1.7112,1.7112,1.7088,1.7039,1.673,1.6552,1.6503,1.6186,1.5975,1.5853,1.5991,1.5967,1.5853,1.5991,1.5837,1.552,1.5569,1.5333,1.4968,1.5017,1.4976,1.4903,1.4903,1.4692,1.4424,1.4383,1.4367,1.4359,1.431,1.4294,1.427,1.4148,1.4107,1.4075,1.3937,1.3904,1.3904,1.3904,1.3863,1.3831,1.3831,1.3798,1.3725,1.3595,1.3465,1.3368,1.3368,1.3214,1.3076,1.3035,1.2921,1.2774,1.2774,1.2774,1.2774,1.2774,1.2774,1.2816,1.2775,1.2767,1.2767,1.2767,1.2767,1.2791,1.2766,1.2774,1.2774,1.2774,1.2708,1.2708,1.2774,1.2634,1.2568,1.2642,1.2305,1.2041,1.4058,1.4578,1.4944,1.4944,1.5106,1.513,1.4594,1.4351,1.4058,1.3356,1.3003,1.2718,1.2621,1.2605,1.297,1.4083,0.0,0.0,1.6219,1.6259,1.6146,1.6154,1.6243,0.0,1.5894,1.604,1.6267,0.0,1.637,1.6491,1.6974,1.7071,1.7112,1.7112,1.7112,1.7112,1.7112,1.7112,1.7071,1.6998,1.6795,1.6617,1.6454,1.6251,1.6064,1.5902,0.0,1.5991,1.5902,1.6008,1.5878,1.5634,1.5715,1.5528,1.5212,1.5293,1.522,1.5098,1.5179,1.5025,1.4757,1.4603,1.4554,1.4538,1.4456,1.4432,1.4391,1.4229,1.418,1.414,1.3953,1.3961,1.4002,1.392,1.3961,1.4002,1.392,1.3904,1.3872,1.3774,1.3677,1.3579,1.3506,1.3401,1.3279,1.3116,1.3011,1.2921,1.2782,1.2774,1.2774,1.2774,1.2774,1.2774,1.2774,1.2774,1.2774,1.2774,1.2774,1.2774,1.2774,1.2774,1.2774,1.2774,1.2774,1.2774,1.2774,1.2774,1.2774,1.2774,1.2642,1.2305,1.4814,1.5155,1.5301,1.5174,1.5098,1.4814,1.4237,1.3831,1.334,1.2782,1.2483,1.228,1.2304,1.2304,1.258,1.3417,1.366,1.4196,1.548,1.552,1.5658,1.63,1.6397,1.6405,1.6405,1.6405,1.6544,1.6774,1.6798,1.6798,1.6798,1.7031,1.7112,1.7112,1.7112,1.7112,1.7112,1.7112,1.7039,1.6798,1.6774,1.669,1.6373,1.6349,1.6243,1.6081,0.0,0.0,1.5966,1.5966,1.5943,1.5788,1.5951,1.5804,1.5536,1.5683,1.5528,1.5182,1.5423,1.5358,1.5155,1.4871,1.4781,1.4741,1.4562,1.4505,1.4464,1.4294,1.4245,1.4205,1.4018,1.4091,1.4172,1.401,1.4075,1.4131,1.3977,1.392,1.3904,1.3904,1.3904,1.3855,1.3701,1.359,1.3469,1.3214,1.3124,1.3043,1.2889,1.2848,1.2774,1.2774,1.2774,1.2774,1.2774,1.2774,1.2774,1.2774,1.2774,1.2774,1.2774,1.2774,1.2774,1.2774,1.2774,1.2774,1.2774,1.2774,1.2774,1.2774,1.2774,1.2642,1.5033,1.5431,1.561,1.5317,1.5098,1.4749,1.3928,1.3449,1.2994,1.2312,1.2117,1.2125,1.228,1.2304,1.2783,1.4237,1.4375,1.4789,1.6194,1.6365,1.6446,0.0,1.6885,1.6974,1.6974,1.6974,0.0,0.0,0.0,1.7063,1.7063,1.7096,1.7112,1.7112,1.7112,1.7112,1.7112,1.7112,1.7096,1.7063,1.6925,1.6733,1.6755,1.66,1.643,1.6259,0.0,0.0,1.5966,1.5966,1.5943,1.578,1.5813,1.5699,1.552,1.5553,1.5423,1.5166,1.5277,1.5163,1.5025,1.5122,1.5147,1.5114,1.4927,1.4871,1.4838,1.4667,1.4619,1.4578,1.4383,1.4367,1.4375,1.4343,1.4253,1.4172,1.414,1.401,1.3904,1.3904,1.3904,1.3896,1.3863,1.3742,1.355,1.3485,1.3287,1.3084,1.3051,1.2921,1.2774,1.2774,1.2774,1.2774,1.2774,1.2774,1.2774,1.2774,1.2774,1.2774,1.2774,1.2774,1.2774,1.2774,1.2774,1.2774,1.2774,1.2774,1.2774,1.2774,1.2774,1.2642,1.5593,1.5853,1.5829,1.5472,1.5033,1.4456,1.3563,1.3011,1.2532,1.2004,1.1898,1.1955,1.2134,1.2239,1.2678,1.3831,1.4018,1.4424,1.5577,1.5983,1.6259,1.6535,1.6812,1.7015,1.7104,1.7031,1.7015,0.0,0.0,1.7112,1.7112,1.7112,1.7112,1.7112,1.7112,1.7112,1.7112,1.7112,1.7112,1.7112,1.7023,1.6942,1.6766,1.6763,1.6625,1.6438,1.6349,0.0,1.617,1.5998,1.5991,1.5918,1.5918,1.5861,1.5788,1.5788,1.5618,1.5398,1.5488,1.5342,1.5122,1.5212,1.5171,1.5082,1.4992,1.4968,1.4927,1.4757,1.4708,1.4667,1.4481,1.4505,1.4529,1.4343,1.4164,1.4034,1.4034,1.3969,1.3904,1.3904,1.3904,1.3904,1.3904,1.3831,1.375,1.359,1.349,1.3311,1.3116,1.3019,1.2938,1.2782,1.2774,1.2774,1.2774,1.2774,1.2774,1.2774,1.2774,1.2774,1.2774,1.2774,1.2774,1.2774,1.2774,1.2774,1.2774,1.2774,1.2774,1.2774,1.2774,1.2708,1.5975,1.6121,1.5951,1.5553,1.4935,1.4196,1.3295,1.2686,1.2207,1.1849,1.1809,1.1882,1.206,1.2239,1.2596,1.3311,1.3547,1.3953,1.4838,1.5398,1.5845,1.6202,1.6568,0.0,1.7039,1.6933,0.0,0.0,0.0,0.0,1.7112,1.7112,1.7112,1.7112,1.7112,1.7112,1.7112,1.7112,1.7112,1.7112,1.7112,1.7039,1.6822,1.6822,1.6812,1.6625,1.6446,0.0,0.0,1.6113,1.5966,1.5966,1.5966,1.5966,1.5966,1.5966,1.5845,1.5585,1.5683,1.5504,1.5236,1.5195,1.5106,1.5017,1.4976,1.4968,1.4935,1.4797,1.4765,1.4732,1.4586,1.4651,1.4676,1.4318,1.4156,1.4042,1.3928,1.3961,1.4002,1.3969,1.3961,1.3961,1.3961,1.3928,1.3855,1.3717,1.3598,1.3453,1.3197,1.3157,1.3076,1.2856,1.2774,1.2774,1.2774,1.2774,1.2774,1.2774,1.2774,1.2774,1.2774,1.2774,1.2774,1.2774,1.2774,1.2774,1.2774,1.2774,1.2774,1.2774,1.2774,1.2774,1.5707,1.5934,1.5918,1.5398,1.4846,1.4196,1.3295,1.2686,1.2207,1.1849,1.1898,1.206,1.2247,1.2426,1.2775,1.3506,1.3566,1.3953,1.4838,1.5293,1.5675,1.6024,0.0,0.0,1.6774,1.6774,0.0,0.0,0.0,0.0,1.7112,1.7112,1.7112,1.7112,1.7112,1.7112,1.7112,1.7112,1.7112,1.7112,1.7112,1.7104,1.7088,1.7088,1.699,1.6733,0.0,0.0,0.0,1.6113,1.5966,1.5966,1.5966,1.5966,1.5966,1.5966,1.5918,1.5731,1.5585,1.5407,1.5212,1.5049,1.509,1.5179,1.5017,1.4968,1.5037,1.4944,1.4944,1.4935,1.4919,1.4927,1.4854,1.4497,1.4521,1.4497,1.401,1.4156,1.4335,1.418,1.4156,1.4156,1.4156,1.401,1.3896,1.388,1.3742,1.3571,1.3368,1.3344,1.3214,1.2807,1.2774,1.2774,1.2774,1.2774,1.2774,1.2774,1.2774,1.2774,1.2774,1.2774,1.2774,1.2774,1.2774,1.2774,1.2774,1.2774,1.2774,1.2774,1.2774,1.2774,1.5585,1.591,1.5837,1.5295,1.483,1.4196,1.3295,1.2686,1.2264,1.2125,1.206,1.2085,1.2272,1.245,1.2661,1.2946,1.3084,1.3352,1.3928,1.4318,1.4797,1.548,1.578,0.0,0.0,0.0,0.0,0.0,0.0,0.0,1.7112,1.7112,1.7112,1.7112,1.7112,1.7112,1.7112,1.7112,1.7112,1.7112,1.7112,1.7112,1.7112,1.7112,1.7071,1.699,0.0,0.0,0.0,1.6162,1.5966,1.5966,1.5966,1.5966,1.5966,1.5966,1.5934,1.5764,1.5691,1.548,1.5228,1.5155,1.5106,1.5057,1.4992,1.4968,1.4968,1.4968,1.4968,1.4968,1.4968,1.4887,1.4773,1.4635,1.457,1.4481,1.427,1.4335,1.4416,1.4343,1.4326,1.4326,1.4326,1.418,1.4066,1.4066,1.3912,1.3734,1.3555,1.3539,1.3441,1.3181,1.3059,1.2954,1.2782,1.2774,1.2774,1.2774,1.2774,1.2774,1.2774,1.2774,1.2774,1.2774,1.2774,1.2774,1.2774,1.2774,1.2774,1.2774,1.2774,1.2774,1.5244,1.5626,1.5594,1.5139,1.4676,1.4123,1.3222,1.2686,1.2369,1.232,1.2239,1.2231,1.2361,1.2523,1.2645,1.2645,1.2751,1.2962,1.3319,1.3636,1.4099,1.4838,0.0,1.5545,0.0,0.0,0.0,0.0,0.0,0.0,0.0,1.7112,1.7112,1.7112,1.7112,1.7112,1.7112,1.7112,1.7112,1.7112,1.7112,1.7112,1.7112,1.7055,1.7039,1.7015,0.0,0.0,0.0,1.617,1.5966,1.5966,1.5966,1.5966,1.5966,1.5966,1.5967,1.5845,1.5788,1.561,1.5382,1.5277,1.5147,1.5033,1.4984,1.4968,1.4976,1.5033,1.5049,1.5033,1.4984,1.4879,1.4773,1.4724,1.4643,1.4562,1.4456,1.4513,1.4578,1.4521,1.4513,1.4513,1.4513,1.4367,1.4237,1.4188,1.4066,1.3904,1.3606,1.3623,1.3628,1.3392,1.3303,1.3189,1.3011,1.2946,1.2913,1.2913,1.2798,1.2774,1.2774,1.2774,1.2774,1.2774,1.2774,1.2774,1.2774,1.2774,1.2774,1.2774,1.2774,1.2774,1.457,1.4976,1.5114,1.4578,1.431,1.3945,1.3043,1.2694,1.2515,1.2345,1.2442,1.2556,1.2628,1.271,1.2766,1.2766,1.2766,1.2962,1.3319,1.353,1.3782,0.0,0.0,1.4797,0.0,0.0,0.0,0.0,0.0,0.0,0.0,1.7112,1.7112,1.7112,1.7112,1.7112,1.7112,1.7112,1.7112,1.7112,1.7112,1.7112,1.7104,1.6846,1.6766,0.0,0.0,0.0,0.0,1.6121,1.5966,1.5966,1.5966,1.5966,1.5966,1.5966,1.5958,1.6016,1.5837,1.5772,1.5707,1.5358,1.5236,1.5204,1.5017,1.4968,1.5,1.5187,1.5236,1.5195,1.5009,1.496,1.4919,1.4749,1.4838,1.4862,1.4505,1.4708,1.4911,1.4741,1.4708,1.4708,1.4708,1.4554,1.4375,1.4205,1.418,1.4042,1.3623,1.379,1.3766,1.3409,1.353,1.3563,1.3384,1.3197,1.3092,1.3092,1.2929,1.2774,1.2774,1.2774,1.2774,1.2774,1.2774,1.2774,1.2774,1.2774,1.2774,1.2774,1.2774,1.2774,1.3863,1.4253,1.4586,1.4172,1.3945,1.3677,1.3133,1.2783,1.2588,1.2653,1.2613,1.2605,1.2726,1.28,1.2774,1.2774,1.2774,1.2815,0.0,0.0,0.0,1.4261,1.5268,1.6016,0.0,0.0,0.0,0.0,0.0,0.0,0.0,1.7112,1.7112,1.7112,1.7112,1.7112,1.7112,1.7112,1.7112,1.7112,1.7112,1.7112,1.7104,1.6933,0.0,0.0,0.0,0.0,0.0,1.6113,1.5966,1.5966,1.5966,1.5966,1.5966,1.5966,1.5966,1.5958,1.5975,1.5878,1.5731,1.5504,1.5342,1.5204,1.5017,1.4968,1.4976,1.5033,1.5139,1.5195,1.5017,1.4968,1.4952,1.4895,1.4927,1.4935,1.4822,1.4887,1.4952,1.4895,1.4887,1.4887,1.4887,1.4741,1.4562,1.4375,1.4351,1.427,1.4042,1.4058,1.405,1.3937,1.3863,1.3701,1.3392,1.3197,1.3092,1.3092,1.2929,1.2774,1.2774,1.2774,1.2774,1.2774,1.2774,1.2774,1.2774,1.2774,1.2774,1.2774,1.2774,1.2774,1.3222,1.3677,1.3961,1.3669,1.3571,1.3449,1.3084,1.2824,1.2702,1.275,1.2743,1.2702,1.275,1.2774,1.2774,1.2774,1.2774,1.2774,0.0,0.0,0.0,1.4335,0.0,0.0,0.0,0.0,0.0,0.0,0.0,0.0,0.0,0.0,1.7112,1.7112,1.7112,1.7112,1.7112,1.7112,1.7112,1.7112,1.7112,1.708,1.7006,1.6828,0.0,0.0,0.0,0.0,0.0,1.6089,1.5966,1.5966,1.5966,1.5966,1.5966,1.5966,1.5966,1.5966,1.5966,1.5967,1.5845,1.5666,1.5447,1.5204,1.5017,1.5017,1.5057,1.4984,1.5098,1.5195,1.5017,1.4968,1.4968,1.4968,1.4968,1.4968,1.4968,1.4968,1.4968,1.4968,1.4968,1.4968,1.4968,1.4879,1.4749,1.4562,1.4538,1.4473,1.4294,1.4221,1.418,1.418,1.401,1.3815,1.3587,1.3409,1.3271,1.3206,1.3035,1.2905,1.2774,1.2774,1.2774,1.2774,1.2774,1.2774,1.2774,1.2774,1.2774,1.2774,1.2774,1.2774,0.0,1.3027,1.3254,1.31,1.3189,1.323,1.2913,1.2774,0.0,1.2774,1.2774,1.2774,1.2774,1.2774,1.2774,1.2774,1.2774,0.0,0.0,1.3189,0.0,0.0,0.0,0.0,0.0,0.0,0.0,0.0,0.0,0.0,0.0,0.0,1.7088,1.7088,1.708,1.708,1.7088,1.708,1.708,1.7088,1.708,1.6998,1.6758,1.6649,0.0,0.0,0.0,0.0,0.0,1.5966,1.5966,1.5966,1.5966,1.5966,1.5966,1.5966,1.5966,1.5966,1.5966,1.5966,1.6016,1.5821,1.552,1.5204,1.5017,1.5106,1.522,1.5017,1.5106,1.5212,1.5017,1.4968,1.4968,1.4968,1.4968,1.4968,1.4984,1.4976,1.4968,1.4984,1.4976,1.4968,1.4968,1.4968,1.4911,1.4732,1.4716,1.4659,1.4473,1.431,1.4221,1.4221,1.4042,1.392,1.392,1.375,1.3571,1.3401,1.3214,1.3035,1.2865,1.279,1.2782,1.2774,1.2782,1.279,1.279,1.279,1.2782,1.2774,1.2782,1.279,1.2028,0.0,1.258,1.2661,1.2718,1.2767,0.0,1.2774,1.2774,1.2774,1.2774,1.2774,1.2774,1.2774,1.2774,1.2774,0.0,0.0,1.2774,0.0,0.0,1.4603,0.0,0.0,0.0,0.0,0.0,0.0,0.0,0.0,0.0,0.0,1.6917,1.6917,1.6779,1.6771,1.6917,1.6771,1.6771,1.6909,1.6771,1.6755,1.6758,1.6519,0.0,0.0,0.0,0.0,1.5966,1.5966,1.5966,1.5966,1.5966,1.5966,1.5966,1.5966,1.5966,1.5966,1.5966,1.5966,1.5909,1.5683,1.5423,1.5204,1.5017,1.5195,1.5382,1.5057,1.5204,1.5374,1.5049,1.4968,1.4968,1.4968,1.4968,1.5,1.5147,1.5065,1.5009,1.5147,1.5065,1.4968,1.4968,1.4968,1.4911,1.4732,1.4822,1.4838,1.4667,1.4611,1.4586,1.4586,1.4302,1.4115,1.4115,1.3823,1.3558,1.3579,1.3409,1.3222,1.3043,1.3035,1.297,1.2774,1.2962,1.3035,1.3035,1.3035,1.2962,1.2774,1.297,1.3035,1.1825,1.2036,1.2328,1.2426,1.2572,1.2718,1.275,1.2774,1.2774,1.2774,1.2774,1.2774,1.2774,1.2774,1.2774,1.2774,1.2774,0.0,0.0,0.0,1.4318,1.5,0.0,0.0,0.0,0.0,0.0,0.0,0.0,0.0,0.0,0.0,1.6725,1.673,1.6552,1.6544,1.673,1.6633,1.6633,1.673,1.6625,1.6584,1.6592,1.6397,0.0,0.0,0.0,0.0,1.5966,1.5966,1.5966,1.5966,1.5966,1.5966,1.5966,1.5966,1.5966,1.5966,1.5966,1.5966,1.5999,1.5723,1.5512,1.5333,1.5147,1.5228,1.5325,1.5049,1.5171,1.5325,1.5041,1.5025,1.5074,1.4984,1.4968,1.4992,1.509,1.5033,1.4992,1.509,1.5033,1.4968,1.4968,1.4968,1.4935,1.4838,1.4903,1.4927,1.4838,1.4757,1.4708,1.4708,1.4456,1.4294,1.4294,1.4042,1.3823,1.3582,1.3555,1.3417,1.323,1.3222,1.3173,1.3084,1.3173,1.3222,1.3222,1.3222,1.3173,1.3084,1.3173,1.3222,1.1857,1.2052,1.2304,1.2304,1.2556,1.2734,1.2832,1.2774,1.2774,1.2774,1.2774,1.2774,1.2774,1.2774,1.2774,0.0,0.0,0.0,1.3474,1.3717,1.4261,0.0,0.0,0.0,0.0,0.0,0.0,0.0,0.0,0.0,0.0,0.0,0.0,1.6544,1.6357,1.6341,1.6495,1.6503,1.6511,1.6535,1.6511,1.643,1.63,1.6276,1.6186,0.0,0.0,0.0,1.5966,1.5966,1.5966,1.5966,1.5966,1.5966,1.5966,1.5966,1.5966,1.5966,1.5966,1.6024,1.5975,1.5796,1.5618,1.5439,1.5252,1.5195,1.5163,1.5009,1.5114,1.5244,1.509,1.5147,1.5195,1.5041,1.4984,1.4976,1.5,1.4984,1.4976,1.5,1.4984,1.4968,1.4968,1.4968,1.4968,1.4968,1.4968,1.4968,1.4968,1.4838,1.4749,1.4749,1.4586,1.4473,1.4473,1.4318,1.4075,1.3679,1.3631,1.3604,1.3417,1.3384,1.3384,1.3417,1.3417,1.3417,1.3417,1.3417,1.3401,1.3368,1.3401,1.3417,1.1996,1.2142,1.2304,1.2304,1.2458,1.2645,1.28,1.2774,1.2774,1.2774,1.2774,1.2774,1.2774,1.2774,1.2774,0.0,0.0,1.3522,0.0,0.0,0.0,0.0,0.0,0.0,0.0,0.0,0.0,0.0,0.0,0.0,0.0,0.0,0.0,1.6349,1.6178,1.6097,1.6129,1.6129,1.6202,1.6341,1.6194,1.6186,1.63,1.6154,1.599,0.0,0.0,1.5966,1.5966,1.5966,1.5966,1.5966,1.5966,1.5966,1.5966,1.5966,1.5966,1.5966,1.5966,1.5943,1.5788,1.561,1.5431,1.5244,1.5065,1.5009,1.5,1.4976,1.5212,1.5463,1.5439,1.5333,1.5158,1.5204,1.5082,1.5009,1.5163,1.5074,1.5009,1.5171,1.5074,1.4968,1.4968,1.4968,1.4968,1.4968,1.4968,1.4968,1.4968,1.4944,1.4927,1.4927,1.4773,1.4667,1.4667,1.4497,1.431,1.4107,1.3945,1.3782,1.3612,1.3449,1.3441,1.3604,1.3604,1.3604,1.3604,1.3604,1.3522,1.3376,1.353,1.3604,1.2098,1.2581,1.3169,1.2493,1.2507,1.2735,1.2816,1.2774,1.2774,1.2774,1.2774,1.2774,1.2774,1.2913,1.3043,1.317,0.0,1.392,0.0,0.0,0.0,0.0,0.0,0.0,0.0,0.0,0.0,0.0,0.0,0.0,0.0,0.0,0.0,0.0,1.6089,1.5966,1.5966,1.5966,1.6089,1.6162,1.5998,1.6089,1.6162,1.5998,1.5966,1.5966,0.0,1.5966,1.5966,1.5966,1.5966,1.5966,1.5966,1.5966,1.5966,1.5966,1.5966,1.5966,1.5966,1.5926,1.5756,1.5683,1.5463,1.5228,1.5139,1.5041,1.5009,1.5204,1.5309,1.5342,1.5244,1.5228,1.5212,1.5114,1.5025,1.4992,1.5074,1.5025,1.4992,1.5074,1.5025,1.4968,1.4968,1.4968,1.4968,1.4968,1.4968,1.4968,1.4968,1.4968,1.4968,1.4968,1.4895,1.4846,1.4846,1.4684,1.4464,1.4196,1.4002,1.3863,1.3782,1.3701,1.3701,1.3782,1.3782,1.3782,1.3782,1.3782,1.3742,1.366,1.3742,1.3782,1.2289,1.2978,1.3867,1.2661,1.2605,1.2774,1.2774,1.2774,1.2774,1.2774,1.2774,1.2774,1.2774,1.2978,0.0,1.3636,1.4002,0.0,0.0,0.0,0.0,0.0,0.0,0.0,0.0,0.0,0.0,0.0,0.0,0.0,0.0,0.0,0.0,0.0,1.5983,1.5983,1.5983,1.5943,1.5885,1.5966,1.5966,1.5966,1.5966,1.5966,1.5966,1.5966,1.5966,1.5966,1.5966,1.5966,1.5966,1.5958,1.5999,1.5983,1.5991,1.6032,1.5966,1.5966,1.5966,1.5902,1.5723,1.5756,1.5504,1.5179,1.5228,1.5139,1.509,1.5374,1.5382,1.5293,1.5236,1.5293,1.5317,1.5139,1.5057,1.5017,1.4976,1.4968,1.4968,1.4968,1.4968,1.4968,1.4968,1.4968,1.4968,1.4968,1.5,1.5025,1.5025,1.5025,1.5025,1.5025,1.4992,1.4968,1.4968,1.4806,1.4594,1.4318,1.4091,1.3969,1.3969,1.3928,1.3904,1.3904,1.3904,1.3904,1.3904,1.3904,1.3904,1.3904,1.3904,1.3904,1.2536,1.3083,1.3729,1.2778,1.2694,1.2774,1.2774,1.2774,1.2774,1.2774,1.2774,1.2774,1.2774,1.2978,1.3271,1.3798,1.418,0.0,0.0,0.0,0.0,0.0,0.0,0.0,0.0,0.0,0.0,0.0,0.0,0.0,0.0,0.0,0.0,0.0,0.0,1.5788,1.5788,1.5634,1.5723,1.5966,1.5966,1.5966,1.5966,1.5966,1.5966,1.5966,1.5966,1.5966,1.5966,1.5966,1.5966,1.6032,1.5861,1.5788,1.5813,1.5983,1.5966,1.5966,1.5966,1.5821,1.5561,1.5723,1.5415,1.5017,1.5187,1.515,1.5228,1.5174,1.5374,1.5569,1.5886,1.5853,1.5691,1.552,1.5342,1.5171,1.5,1.4968,1.4968,1.4968,1.4968,1.4968,1.4968,1.4968,1.4968,1.4968,1.5114,1.522,1.522,1.522,1.522,1.522,1.5065,1.4968,1.4968,1.4806,1.47,1.4676,1.4351,1.4156,1.4156,1.3993,1.3904,1.3904,1.3904,1.3904,1.3904,1.3904,1.3904,1.3904,1.3904,1.3904,1.331,1.3603,1.3839,1.2678,1.2621,1.2798,1.297,1.388,1.4325,1.3219,1.3983,1.4512,1.3392,0.0,1.3579,1.4002,0.0,0.0,0.0,0.0,0.0,0.0,0.0,0.0,0.0,0.0,0.0,0.0,0.0,0.0,0.0,0.0,0.0,0.0,0.0,1.561,1.561,1.5545,1.5585,1.5715,1.5821,1.5878,1.5878,1.5991,1.5983,1.5878,1.5878,1.5878,1.5878,1.5878,1.5878,1.5869,1.5796,1.5772,1.5796,1.5975,1.5975,1.5894,1.6008,1.5886,1.5666,1.5626,1.5398,1.5147,1.522,1.5236,1.5285,1.5504,1.5618,1.5683,1.5707,1.5666,1.5593,1.5528,1.5463,1.539,1.5325,1.5309,1.5309,1.5309,1.5212,1.5171,1.5285,1.5212,1.5171,1.5293,1.5268,1.5236,1.5236,1.5139,1.5114,1.5228,1.5179,1.5139,1.5139,1.4968,1.4871,1.4871,1.4432,1.4229,1.4335,1.4058,1.3953,1.4075,1.3961,1.3961,1.4075,1.4075,1.4131,1.4229,1.4229,1.4229,1.4099,1.433,1.4261,1.2779,1.2845,1.3404,1.383,1.4891,1.5421,1.4068,1.46,1.4889,1.3599,1.3474,0.0,0.0,0.0,0.0,0.0,0.0,0.0,0.0,0.0,0.0,0.0,0.0,0.0,0.0,0.0,0.0,0.0,0.0,0.0,0.0,0.0,1.5431,1.5431,1.5374,1.5374,1.5431,1.5545,1.5634,1.5699,1.5821,1.5813,1.5691,1.5691,1.5691,1.5699,1.5748,1.574,1.5691,1.5691,1.5691,1.5715,1.5894,1.5918,1.5878,1.5999,1.5926,1.5764,1.5707,1.552,1.5333,1.539,1.5407,1.5455,1.5707,1.5813,1.5829,1.5715,1.5683,1.5666,1.561,1.5593,1.5585,1.5528,1.5512,1.5512,1.5512,1.5455,1.5431,1.5504,1.5455,1.5431,1.5504,1.5455,1.5407,1.5407,1.5301,1.5244,1.5317,1.522,1.5179,1.5236,1.5074,1.4968,1.4968,1.4578,1.4399,1.4513,1.4229,1.4131,1.4253,1.4131,1.4131,1.4261,1.4261,1.4318,1.4432,1.4432,1.4432,1.4842,1.5053,1.5082,1.3118,1.3508,1.4642,1.5414,1.573,1.573,1.5468,1.4318,1.3376,1.3376,1.3376,0.0,0.0,0.0,0.0,0.0,0.0,0.0,0.0,0.0,0.0,0.0,0.0,0.0,0.0,0.0,0.0,0.0,0.0,0.0,0.0,0.0,0.0,1.5236,1.5057,1.5057,1.5236,1.5236,1.5333,1.5512,1.5512,1.5512,1.5512,1.5512,1.5512,1.5528,1.5699,1.5666,1.5512,1.5512,1.5512,1.5536,1.5707,1.5886,1.5958,1.5958,1.5926,1.5804,1.5983,1.5804,1.5553,1.5723,1.5772,1.5772,1.5772,1.5902,1.5966,1.5966,1.5966,1.5999,1.5821,1.5772,1.5731,1.5561,1.552,1.552,1.552,1.5658,1.5723,1.5553,1.5666,1.5723,1.5553,1.5666,1.5772,1.5772,1.5772,1.5707,1.5536,1.5187,1.5041,1.5228,1.5074,1.4968,1.4968,1.4806,1.4708,1.4708,1.4529,1.4432,1.4432,1.4432,1.4432,1.4432,1.4432,1.4432,1.4432,1.4432,1.4432,1.3998,1.3594,1.2935,1.2493,1.3669,1.5206,1.6542,1.7093,1.7073,1.6375,1.4876,1.3782,1.3912,1.3937,0.0,0.0,0.0,0.0,0.0,0.0,0.0,0.0,0.0,0.0,0.0,0.0,0.0,0.0,0.0,0.0,0.0,0.0,0.0,0.0,0.0,0.0,1.5049,1.4992,1.4992,1.5049,1.5049,1.5139,1.5325,1.5455,1.5447,1.5325,1.5325,1.5325,1.5325,1.5374,1.5447,1.5504,1.5374,1.5325,1.5342,1.5528,1.5545,1.5496,1.5626,1.5715,1.5764,1.5691,1.5683,1.5707,1.5756,1.5772,1.5796,1.5926,1.6008,1.5966,1.5966,1.5966,1.595,1.5975,1.5967,1.5951,1.5902,1.5886,1.5926,1.6048,1.6016,1.6032,1.6227,1.6202,1.6129,1.6081,1.6008,1.5878,1.5626,1.5593,1.5569,1.552,1.5301,1.5179,1.5236,1.5074,1.4968,1.4968,1.4919,1.4887,1.4887,1.4594,1.4497,1.4627,1.4497,1.4497,1.4627,1.4627,1.4692,1.4806,1.4806,1.4806,1.4804,1.4036,1.2931,1.3271,1.4594,1.621,1.7256,1.7866,1.7886,1.7073,1.5949,1.5145,1.5267,1.5732,0.0,0.0,0.0,0.0,0.0,0.0,0.0,0.0,0.0,0.0,0.0,0.0,0.0,0.0,0.0,0.0,0.0,0.0,0.0,0.0,0.0,0.0,1.4862,1.4862,1.4895,1.4968,1.4895,1.496,1.513,1.5244,1.5236,1.513,1.513,1.5171,1.5236,1.5163,1.5236,1.539,1.5204,1.5179,1.5174,1.5366,1.5382,1.5366,1.548,1.5585,1.5666,1.5626,1.5691,1.5788,1.5861,1.5886,1.5902,1.6016,1.5966,1.5966,1.5966,1.5966,1.5966,1.5966,1.5966,1.5966,1.5966,1.5966,1.6097,1.6267,1.6276,1.63,1.6446,1.6438,1.6365,1.6219,1.6113,1.5967,1.5756,1.5666,1.5642,1.5723,1.5431,1.5268,1.5342,1.5114,1.4968,1.4968,1.4968,1.4968,1.4968,1.4757,1.47,1.4806,1.47,1.47,1.4814,1.4814,1.4862,1.4968,1.4968,1.4968,1.6175,1.5366,1.4213,1.4725,1.6148,1.7424,1.7736,1.8143,1.8269,1.75,1.7132,1.6959,1.7086,1.8156,0.0,0.0,0.0,0.0,0.0,0.0,0.0,0.0,0.0,0.0,0.0,0.0,0.0,0.0,0.0,0.0,0.0,0.0,0.0,0.0,0.0,0.0,1.4684,1.47,1.4789,0.0,1.4781,1.4789,1.4944,1.496,1.4968,1.4968,1.4968,1.5057,1.5204,1.5033,1.5065,1.5195,1.5033,1.5065,1.5212,1.5212,1.5317,1.5463,1.5463,1.548,1.552,1.5691,1.5764,1.5804,1.5991,1.5966,1.5966,1.5966,1.5966,1.5966,1.5966,1.5966,1.5966,1.5966,1.5966,1.5966,1.5966,1.5974,1.6121,1.6292,1.6462,1.6527,1.6381,1.6479,1.6462,1.6121,1.5974,1.5966,1.5966,1.5886,1.5837,1.6008,1.5569,1.5333,1.5504,1.5212,1.5017,1.5017,1.5,1.5,1.5017,1.4984,1.4968,1.4968,1.4968,1.4968,1.4968,1.4968,1.4968,1.4968,1.4984,1.4992,1.3444,1.3264,1.3221,1.4382,1.6979,1.9177,1.8578,1.8567,1.8288,1.6996,1.7056,1.7594,1.8673,0.0,0.0,0.0,0.0,0.0,0.0,0.0,0.0,0.0,0.0,0.0,0.0,0.0,0.0,0.0,0.0,0.0,0.0,0.0,0.0,0.0,0.0,1.4489,1.4489,1.4635,1.4724,0.0,1.4724,1.4724,1.4765,1.4903,1.4968,1.4968,1.4968,1.4992,1.5025,1.4984,1.4992,1.5017,1.4984,1.4992,1.5025,1.5025,1.5049,1.5082,1.5082,1.5179,1.5325,1.5512,1.5666,1.5804,1.5991,1.5966,1.5966,1.5966,1.5966,1.5966,1.5966,1.5966,1.5966,1.5966,1.5966,1.5966,1.5966,1.6154,1.63,1.6487,1.6552,1.6617,1.6714,1.6649,1.6503,1.6284,1.6129,1.5966,1.5966,1.5886,1.5788,1.5829,1.561,1.5472,1.5512,1.5447,1.5398,1.5398,1.526,1.5244,1.539,1.5122,1.4968,1.4968,1.4968,1.4968,1.4968,1.4968,1.4968,1.4968,1.5114,1.5179,1.3392,1.3071,1.3203,1.5548,1.8588,2.0684,1.9843,1.9651,1.9529,1.8888,1.8477,1.862,0.0,0.0,0.0,0.0,0.0,0.0,0.0,0.0,0.0,0.0,0.0,0.0,0.0,0.0,0.0,0.0,0.0,0.0,0.0,0.0,0.0,0.0,1.431,1.431,1.431,1.4408,1.4497,1.4578,1.4497,1.4497,1.4578,1.4667,1.4806,1.496,1.4879,1.4887,1.4968,1.4968,1.4968,1.4968,1.4968,1.4968,1.4968,1.4968,1.4968,1.4968,1.4968,1.5025,1.5139,1.5325,1.5504,1.5683,1.5861,1.5975,1.5966,1.5966,1.5966,1.5966,1.5966,1.5966,1.5966,1.5966,1.5966,1.5966,1.5966,1.6178,1.6332,1.643,1.6592,1.6682,1.66,1.6446,1.6316,1.6308,1.6227,1.617,1.617,1.6162,1.6129,1.6032,1.5869,1.5731,1.565,1.5561,1.5512,1.5512,1.5423,1.5415,1.5512,1.5333,1.5228,1.5228,1.5228,1.5228,1.5228,1.5228,1.5228,1.5236,1.5325,1.5374,1.3916,1.3742,1.405,1.7149,2.0002,2.166,2.0509,2.0577,2.0802,2.0674,2.0055,0.0,0.0,0.0,0.0,0.0,0.0,0.0,0.0,0.0,0.0,0.0,0.0,0.0,0.0,0.0,0.0,0.0,0.0,0.0,0.0,0.0,1.4223,1.4123,1.4131,1.4131,1.4131,1.4164,1.4245,1.4383,1.4245,1.4253,1.4383,1.4359,1.4538,1.4871,1.4757,1.4789,1.4919,1.4952,1.4968,1.4968,1.4968,1.4968,1.4968,1.4968,1.4968,1.4968,1.4968,1.4968,1.4992,1.5179,1.5342,1.5504,1.5707,1.5878,1.6008,1.5958,1.5966,1.5966,1.5966,1.5966,1.5966,1.5966,1.5966,1.5966,1.5966,1.6178,1.63,1.63,1.6552,1.6674,1.6397,1.6202,1.6137,1.6284,1.63,1.6292,1.6259,1.6389,1.643,1.6276,1.6129,1.5983,1.5837,1.5691,1.561,1.561,1.5577,1.5577,1.561,1.5577,1.5577,1.561,1.5545,1.5512,1.5512,1.5512,1.5512,1.5512,1.5545,1.5561,1.2631,1.4332,1.6444,1.7755,2.0069,2.1393,1.9185,1.9669,2.0261,0.0,0.0,0.0,0.0,0.0,0.0,0.0,0.0,0.0,0.0,0.0,0.0,0.0,0.0,0.0,0.0,0.0,0.0,0.0,0.0,0.0,0.0,1.5737,1.5008,1.4008,1.3937,1.3937,1.3937,1.4099,1.4188,1.4213,1.4188,1.4188,1.4205,1.4042,1.4164,1.4513,1.4651,1.4724,1.4757,1.4903,1.4968,1.4968,1.4968,1.4968,1.4968,1.4968,1.4968,1.4968,1.4968,1.4968,1.4992,1.5179,1.5252,1.5333,1.5675,1.5788,1.5845,1.5999,1.5966,1.5966,1.5966,1.5966,1.5966,1.5966,1.5966,1.5966,1.5966,1.6178,1.63,1.63,1.6341,1.6414,1.6527,1.6389,1.6276,1.63,1.63,1.6251,1.6097,1.6022,1.6105,1.5998,1.6056,1.595,1.5933,1.5991,1.5893,1.5893,1.5829,1.5813,1.5967,1.5821,1.5813,1.5893,1.5675,1.5512,1.5512,1.5512,1.5512,1.552,1.5666,1.574,1.3039,1.4909,1.6997,1.8288,2.0294,2.1753,2.086,2.1277,2.1627,2.0847,0.0,0.0,0.0,0.0,0.0,0.0,0.0,0.0,0.0,0.0,0.0,0.0,0.0,0.0,0.0,0.0,0.0,0.0,0.0,0.0,1.6963,1.6175,1.5129,1.375,1.3847,1.3904,1.3904,1.3985,1.4449,1.5229,1.5229,1.5721,1.6496,1.4714,1.4091,1.4432,1.4416,1.4521,1.4716,1.4789,1.4879,1.4968,1.4968,1.4968,1.4968,1.4968,1.4968,1.4968,1.4968,1.4968,1.4976,1.5057,1.5155,1.5268,1.5423,1.5545,1.5666,1.5845,1.5894,1.5918,1.6016,1.5966,1.5966,1.5966,1.5966,1.5966,1.5966,1.6178,1.6365,1.6568,1.6446,1.6397,1.6682,1.6495,1.63,1.63,1.63,1.6276,1.6202,1.6284,1.6308,1.6202,1.6186,1.6154,1.5974,1.5966,1.5966,1.5966,1.5967,1.5959,1.5958,1.5967,1.5967,1.5958,1.5894,1.5813,1.5813,1.5813,1.5813,1.5813,1.5894,1.5926,1.36,1.5185,1.6831,1.8163,1.9921,2.1254,2.1203,0.0,2.2362,0.0,0.0,0.0,0.0,0.0,0.0,0.0,0.0,0.0,0.0,0.0,0.0,0.0,0.0,0.0,0.0,0.0,0.0,0.0,0.0,0.0,1.7623,1.6704,1.5358,1.3571,1.3782,1.388,1.3839,1.4236,1.5239,1.6705,1.6291,1.6916,1.8309,1.5301,1.4258,1.4799,1.4359,1.4351,1.4643,1.4692,1.4806,1.4968,1.4968,1.4968,1.4968,1.4968,1.4968,1.4968,1.4968,1.4968,1.4968,1.4968,1.509,1.5236,1.5236,1.5366,1.5553,1.5723,1.5772,1.5813,1.5999,1.6081,1.6113,1.6113,1.6146,1.6154,1.5982,1.6146,1.6332,1.6649,1.6454,1.6357,1.6722,1.6519,1.6316,1.6365,1.6332,1.6316,1.6365,1.6414,1.643,1.6381,1.6292,1.6202,1.6121,1.599,1.5966,1.5966,1.5966,1.5966,1.5966,1.5966,1.5966,1.5966,1.5966,1.5966,1.5966,1.5966,1.5966,1.5966,1.5966,1.5966,1.3868,1.4973,1.6241,1.6988,1.8279,1.91,0.0,0.0,0.0,0.0,0.0,0.0,0.0,0.0,0.0,0.0,0.0,0.0,0.0,0.0,0.0,0.0,0.0,0.0,0.0,0.0,0.0,0.0,0.0,0.0,1.7736,1.7488,1.6147,1.3522,1.3717,1.3823,1.359,1.522,1.6785,1.8239,1.6785,1.6916,1.8309,1.5301,1.4688,1.5914,1.4749,1.4278,1.4456,1.4635,1.4806,1.4968,1.4968,1.4968,1.4968,1.4968,1.4968,1.4968,1.4968,1.4968,1.4968,1.4968,1.509,1.5236,1.5236,1.5366,1.5553,1.5723,1.5772,1.5813,1.5999,1.617,1.6292,1.6292,1.6422,1.6462,1.6121,1.5974,1.6113,1.63,1.6186,1.617,1.6535,1.643,1.6365,1.6544,1.6414,1.6365,1.6544,1.6276,1.6202,1.6527,1.6259,1.6121,1.6276,1.6137,1.5966,1.5966,1.5966,1.5966,1.5966,1.5966,1.5966,1.5966,1.5966,1.5966,1.5966,1.5966,1.5966,1.5966,1.5966,1.5966,1.3759,1.4842,1.6039,1.6349,1.7656,1.8641,1.7485,1.9532,0.0,0.0,0.0,0.0,0.0,0.0,0.0,0.0,0.0,0.0,0.0,0.0,0.0,0.0,0.0,0.0,0.0,0.0,0.0,0.0,0.0,0.0,1.7293,1.7385,1.6263,1.3505,1.4622,1.576,1.6667,1.8207,1.9298,1.9785,1.9228,1.9785,2.1183,1.7127,1.615,1.7419,1.5165,1.4213,1.4278,1.4456,1.4635,1.4814,1.4919,1.4968,1.4968,1.4968,1.4968,1.4968,1.4968,1.4968,1.4968,1.4968,1.5009,1.5065,1.5065,1.5187,1.5374,1.5553,1.5691,1.5813,1.5999,1.6178,1.6332,1.6454,1.6438,1.6365,1.6235,1.6211,1.6267,1.6446,1.6332,1.6251,1.6381,1.6446,1.643,1.6259,1.6276,1.6292,1.6243,1.6121,1.6097,1.6227,1.6219,1.6194,1.6146,1.6186,1.6162,1.5974,1.5966,1.5966,1.5966,1.5966,1.6097,1.6211,1.6105,1.6097,1.6211,1.6097,1.6105,1.6211,1.6097,1.5966,1.4222,1.5142,1.6056,1.6619,1.7617,1.8297,1.7662,0.0,0.0,0.0,0.0,0.0,0.0,0.0,0.0,0.0,0.0,0.0,0.0,0.0,0.0,0.0,0.0,0.0,0.0,0.0,0.0,0.0,0.0,0.0,1.7753,1.8017,1.7282,1.5114,1.6142,1.7547,1.9147,2.0132,2.0837,2.1402,2.0837,2.139,2.2722,1.8255,1.7025,1.8308,1.5478,1.4261,1.4278,1.4456,1.4635,1.4806,1.4919,1.4968,1.4968,1.4968,1.4968,1.4968,1.4968,1.4968,1.4968,1.4968,1.5049,1.5139,1.5074,1.5228,1.5447,1.5569,1.5683,1.5829,1.6073,1.6308,1.6535,1.6714,1.6665,1.6576,1.6576,1.6389,1.6251,1.6381,1.63,1.6219,1.6219,1.6316,1.6357,1.6243,1.6267,1.6324,1.6397,1.63,1.6267,1.6389,1.6397,1.6373,1.624,1.6365,1.6316,1.6146,1.6129,1.6105,1.5966,1.6022,1.6186,1.63,1.6194,1.6219,1.6397,1.6162,1.6105,1.6219,1.6162,1.6162,0.0,0.0,0.0,1.785,1.8034,1.8034,1.8431,0.0,0.0,0.0,0.0,0.0,0.0,0.0,0.0,0.0,0.0,0.0,0.0,0.0,0.0,0.0,0.0,0.0,0.0,0.0,0.0,0.0,0.0,2.0475,1.91,1.9489,1.9331,1.8508,1.8302,1.8992,2.0629,2.0698,2.1402,2.2859,2.139,2.1471,2.2735,1.8475,1.7377,1.8613,1.5738,1.4506,1.4522,1.4635,1.4806,1.496,1.496,1.4968,1.4968,1.4968,1.4968,1.4968,1.4968,1.4968,1.4968,1.4968,1.5204,1.5463,1.5293,1.5488,1.5764,1.5772,1.578,1.5869,1.6227,1.6584,1.6806,1.7071,1.7104,1.7104,1.7096,1.6544,1.5974,1.6064,1.5974,1.5974,1.5974,1.5982,1.6186,1.6527,1.643,1.6503,1.7031,1.6795,1.6714,1.7055,1.6787,1.6657,1.6741,1.669,1.6511,1.6324,1.6308,1.6235,1.6073,1.6219,1.6316,1.6316,1.6316,1.6405,1.6584,1.6227,1.5966,1.5974,1.6227,1.6405,1.6019,0.0,0.0,0.0,0.0,0.0,1.6654,1.8311,0.0,0.0,0.0,0.0,0.0,0.0,0.0,0.0,0.0,0.0,0.0,0.0,0.0,0.0,0.0,0.0,0.0,0.0,0.0,0.0,2.1309,2.0747,1.9112,1.8556,1.8789,1.9982,1.9935,2.0695,2.2229,2.2229,2.2516,2.2859,2.2448,2.2516,2.2791,2.0493,1.9783,2.0332,1.8559,1.7879,1.7882,1.5653,1.4732,1.4789,1.4919,1.4968,1.4968,1.4968,1.4968,1.4968,1.4968,1.4968,1.4968,1.4968,1.5033,1.513,1.5212,1.5398,1.561,1.574,1.5959,1.6243,1.6609,1.6693,1.6806,1.7071,1.7015,1.6885,1.6755,1.647,1.6267,1.6405,1.6324,1.6235,1.6235,1.6454,1.6617,1.6584,1.6649,1.6706,1.6722,1.6641,1.6617,1.6714,1.6755,1.6747,1.6665,1.673,1.6698,1.6519,1.6503,1.6479,1.6438,1.6479,1.6568,1.6698,1.6568,1.6592,1.6779,1.62,1.6113,1.6235,1.6284,1.6405,1.7063,1.7652,1.8372,1.8043,0.0,0.0,1.7685,1.8677,1.9622,0.0,0.0,0.0,0.0,0.0,0.0,0.0,0.0,0.0,0.0,0.0,0.0,0.0,0.0,0.0,0.0,0.0,0.0,0.0,2.139,2.1253,2.0459,1.9966,2.0262,2.1527,2.154,2.2022,2.2859,2.2928,2.2928,2.2928,2.2928,2.2928,2.2873,2.15,2.0981,2.1149,1.991,1.9478,1.9447,1.7585,1.6841,1.6699,1.5455,1.542,1.5956,1.5275,1.4968,1.4968,1.4968,1.4968,1.4968,1.4968,1.5017,1.5114,1.5301,1.548,1.5658,1.5837,1.6146,1.6487,1.6693,1.6822,1.6982,1.7088,1.7031,1.6933,1.6828,1.6657,1.6519,1.647,1.6316,1.6243,1.6389,1.6535,1.6641,1.669,1.6787,1.6844,1.6803,1.6803,1.6803,1.6803,1.6901,1.6917,1.6812,1.6901,1.6885,1.6706,1.669,1.6657,1.6584,1.6657,1.6747,1.6766,1.6747,1.6706,1.6738,1.6341,1.6243,1.6422,1.6422,1.656,1.8286,1.8729,1.9199,2.0411,2.0307,0.0,2.0127,2.0013,1.9786,0.0,0.0,0.0,0.0,0.0,0.0,0.0,0.0,0.0,0.0,0.0,0.0,0.0,0.0,0.0,0.0,2.1109,2.1109,2.1109,2.139,2.1817,2.2432,2.2432,2.2552,2.2914,2.2928,2.2928,2.2928,2.2928,2.2928,2.2928,2.2928,2.2928,2.2886,2.194,2.1545,2.1534,2.07,2.0316,2.0338,2.0113,1.9962,1.951,1.6635,1.6415,1.7474,1.6033,1.542,1.5267,1.5267,1.5113,1.4968,1.4968,1.5074,1.5244,1.5431,1.561,1.5788,1.6016,1.6316,1.6625,1.6803,1.6982,1.7112,1.7112,1.7112,1.7096,1.7063,1.695,1.6747,1.6397,1.6227,1.6227,1.6527,1.6479,1.6503,1.6836,1.6798,1.6933,1.7088,1.7112,1.7112,1.7112,1.7112,1.7112,1.7112,1.7112,1.7047,1.6806,1.6798,1.6803,1.6617,1.6771,1.6766,1.6766,1.6782,1.6795,1.6609,1.6422,1.643,1.6609,1.6609,1.6787,0.0,0.0,0.0,0.0,0.0,0.0,2.0267,2.0013,1.9733,0.0,0.0,0.0,0.0,0.0,0.0,0.0,0.0,0.0,0.0,0.0,0.0,0.0,0.0,0.0,0.0,2.1109,2.1109,2.1109,2.139,2.1976,2.2739,2.2552,2.2552,2.2914,2.2928,2.2928,2.2928,2.2928,2.2928,2.2928,2.2928,2.2928,2.2873,2.2885,2.3033,2.3281,2.3318,2.3443,2.3574,2.2297,2.0939,1.9736,1.9132,1.9057,1.9283,1.8981,1.8072,1.695,1.695,1.6109,1.4968,1.4968,1.4992,1.5057,1.5236,1.5423,1.5666,1.6121,1.6414,1.6625,1.6803,1.6982,1.7112,1.7112,1.7112,1.7031,1.6747,1.6771,1.6787,1.6568,1.6617,1.6674,1.6592,1.6787,1.6974,1.7047,1.7063,1.7071,1.7104,1.7112,1.7112,1.7112,1.7112,1.7112,1.7112,1.7112,1.7096,1.7063,1.7063,1.6982,1.6803,1.675,1.6766,1.6766,1.699,1.6974,1.6795,1.6617,1.6617,1.6803,1.6803,1.6909,0.0,0.0,0.0,2.1296,0.0,0.0,0.0,2.0334,1.9973,0.0,0.0,0.0,0.0,0.0,0.0,0.0,0.0,0.0,0.0,0.0,0.0,0.0,0.0,0.0,0.0,2.1109,2.1176,2.1323,2.1603,2.2017,2.2605,2.2645,2.2712,2.2859,2.2928,2.2928,2.2928,2.2928,2.2928,2.2928,2.2928,2.2928,2.2873,2.334,2.3634,2.3794,2.4222,2.4502,2.4562,2.3735,2.2905,2.1999,2.0414,2.0263,2.0864,2.0113,1.9283,1.8613,1.8613,1.8072,1.7236,1.6483,1.6186,1.6085,1.5528,1.5569,1.5869,1.6316,1.6438,1.6527,1.6885,1.6982,1.7006,1.7088,1.7047,1.6958,1.686,1.6779,1.6714,1.6714,1.6787,1.6852,1.6844,1.6917,1.7015,1.7096,1.7112,1.7112,1.7112,1.7112,1.7112,1.7112,1.7112,1.7112,1.7112,1.7112,1.7112,1.7112,1.7112,1.7071,1.6982,1.6982,1.6982,1.6982,1.7063,1.7071,1.6982,1.6893,1.6852,1.6766,1.6942,1.7023,0.0,0.0,0.0,0.0,0.0,2.0971,0.0,0.0,0.0,0.0,0.0,0.0,0.0,0.0,0.0,0.0,0.0,0.0,0.0,0.0,0.0,0.0,0.0,0.0,0.0,2.1109,2.1229,2.1601,2.1817,2.2111,2.2405,2.2699,2.2928,2.2928,2.2928,2.2928,2.2928,2.2926,2.2926,2.2928,2.2926,2.2953,2.2966,2.3514,2.3794,2.3888,2.4409,2.4636,2.4636,2.4636,2.4636,2.4341,2.1775,2.155,2.2521,2.1164,2.0564,2.0263,2.0263,2.0037,1.9585,1.8309,1.7883,1.776,1.6739,1.6457,1.6559,1.6927,1.6691,1.6454,1.6893,1.6958,1.6917,1.699,1.6925,1.6885,1.6982,1.6812,1.6674,1.6741,1.6798,1.6925,1.6998,1.6925,1.6885,1.699,1.7039,1.7063,1.7063,1.7088,1.7112,1.7112,1.7112,1.7112,1.7112,1.7112,1.7112,1.7112,1.7112,1.7096,1.7063,1.7063,1.7063,1.7063,1.7096,1.7112,1.7112,1.7112,1.7039,1.6822,1.7047,1.7112,0.0,0.0,0.0,0.0,2.2146,0.0,0.0,0.0,0.0,0.0,0.0,0.0,0.0,0.0,0.0,0.0,0.0,0.0,0.0,0.0,0.0,0.0,0.0,0.0,0.0,0.0,0.0,2.1601,2.1817,2.2111,2.2405,2.2699,2.2928,2.2928,2.2928,2.2928,2.2928,2.314,2.314,2.2928,2.314,2.3273,2.3287,2.3621,2.3915,2.4168,2.4489,2.4636,2.4636,2.4636,2.4636,2.4562,2.4179,2.4179,2.4341,2.4105,2.3129,2.1924,2.1924,2.1014,1.9736,1.9585,1.9724,1.986,1.9881,1.9115,1.8214,1.8541,1.7608,1.656,1.6625,1.686,1.7006,1.6714,1.6747,1.6725,1.6674,1.6738,1.6741,1.6766,1.6974,1.699,1.669,1.6763,1.6803,1.6665,1.6779,1.6798,1.6798,1.7015,1.7112,1.7112,1.7112,1.7112,1.7112,1.7112,1.7112,1.7112,1.7112,1.7039,1.6806,1.6798,1.6798,1.6798,1.7031,1.7112,1.7112,1.7112,1.7096,1.708,1.7104,1.7112,0.0,0.0,0.0,0.0,0.0,0.0,2.2413,0.0,2.1413,0.0,0.0,0.0,0.0,0.0,0.0,0.0,0.0,0.0,0.0,0.0,0.0,0.0,0.0,0.0,0.0,0.0,0.0,0.0,0.0,2.2044,2.2164,2.2605,2.2928,2.2928,2.2928,2.2953,2.3126,2.3086,2.3086,2.3126,2.3086,2.3153,2.334,2.3634,2.3928,2.4222,2.4516,2.4636,2.4636,2.4636,2.4636,2.4636,2.4636,2.4636,2.4636,2.4636,2.4179,2.3574,2.3574,2.3129,2.2446,2.1475,2.0821,2.0382,2.0468,2.0295,2.0099,2.0344,1.918,1.7971,1.8193,1.8299,1.8068,1.7004,1.7477,1.7887,1.6902,1.6714,1.6755,1.6966,1.6982,1.6917,1.6763,1.6885,1.6974,1.6901,1.695,1.7006,1.7006,1.7063,1.7112,1.7112,1.7112,1.7112,1.7112,1.7112,1.7112,1.7112,1.7112,1.708,1.7006,1.7006,1.7006,1.7006,1.7071,1.7112,1.7112,1.7112,1.7112,1.7112,1.7112,1.7112,2.1961,0.0,0.0,0.0,0.0,0.0,0.0,0.0,0.0,0.0,0.0,0.0,0.0,0.0,0.0,0.0,0.0,0.0,0.0,0.0,0.0,0.0,0.0,0.0,0.0,0.0,0.0,0.0,2.1577,0.0,2.1977,2.2472,2.2779,2.2928,2.2939,2.306,2.3193,2.314,2.318,2.3327,2.318,2.3273,2.3581,2.3794,2.4048,2.4329,2.4543,2.4636,2.4636,2.4636,2.4636,2.4636,2.4636,2.4636,2.4636,2.4636,2.4636,2.4636,2.4636,2.469,2.4534,2.3391,2.2529,2.2015,2.2015,2.1919,2.1922,2.2166,2.1044,1.9747,1.9917,2.0089,1.9684,1.7801,1.8363,1.8891,1.7165,1.6747,1.6747,1.7047,1.7006,1.6838,1.6838,1.699,1.7023,1.6974,1.7006,1.7039,1.7039,1.708,1.7112,1.7112,1.7112,1.7112,1.7112,1.7112,1.7112,1.7112,1.7112,1.7112,1.7112,1.7112,1.7112,1.7112,1.7112,1.7112,1.7112,1.7112,1.7112,1.7112,1.7112,1.7112,0.0,0.0,0.0,2.4278,0.0,0.0,0.0,0.0,2.27,0.0,0.0,0.0,0.0,0.0,0.0,2.1479,0.0,0.0,0.0,0.0,0.0,0.0,0.0,0.0,0.0,0.0,0.0,2.1109,2.139,2.1762,2.1977,2.2271,2.2565,2.2928,2.3153,2.318,2.2954,2.3447,2.3607,2.3327,2.3607,2.3888,2.4168,2.4182,2.4342,2.4623,2.4636,2.4636,2.4636,2.4636,2.4636,2.4636,2.4636,2.4636,2.4636,2.4636,2.4636,2.4636,2.4636,2.4823,2.5064,2.4988,2.5388,2.579,2.579,2.4875,2.3784,2.3968,2.2976,2.1795,2.1498,2.1937,2.183,1.9442,1.9184,1.9057,1.719,1.6766,1.6806,1.708,1.7104,1.7104,1.7104,1.6966,1.6803,1.6625,1.6747,1.6774,1.6774,1.7006,1.7112,1.7112,1.7112,1.7112,1.7112,1.7112,1.7112,1.7112,1.7112,1.7112,1.7112,1.7112,1.7112,1.7112,1.7112,1.7112,1.7112,1.7112,1.7112,1.7112,1.7112,1.7112,0.0,0.0,2.3133,2.3406,0.0,0.0,0.0,0.0,0.0,0.0,0.0,0.0,0.0,0.0,2.3221,2.2594,2.2814,0.0,0.0,0.0,0.0,0.0,0.0,0.0,0.0,0.0,0.0,2.1109,2.139,2.1748,0.0,2.2258,2.2552,2.2914,2.2966,2.3073,2.3166,2.338,2.3527,2.3621,2.3728,2.3928,2.4209,2.4209,2.4369,2.4636,2.4636,2.4636,2.4636,2.4636,2.4636,2.4649,2.485,2.493,2.4903,2.4716,2.4756,2.4957,2.5144,2.5277,2.5371,2.5371,2.5638,2.6037,2.6037,2.5898,2.5799,2.5889,2.4805,2.3607,2.3783,2.2944,2.1631,1.9796,1.9382,1.8971,1.719,1.6942,1.7039,1.7096,1.7112,1.7112,1.7112,1.7063,1.6998,1.6942,1.6982,1.7023,1.7023,1.7071,1.7112,1.7112,1.7112,1.7112,1.7112,1.7112,1.7112,1.7112,1.7112,1.7112,1.7112,1.7112,1.7112,1.7112,1.7112,1.7112,1.7112,1.7112,1.7112,1.7112,1.7112,1.7112,2.2606,2.2835,0.0,2.327,2.3338,0.0,2.3747,0.0,0.0,0.0,0.0,0.0,0.0,0.0,0.0,2.3501,2.3356,2.3232,0.0,2.3208,0.0,0.0,0.0,0.0,0.0,0.0,2.1614,2.1109,2.141,2.1692,0.0,0.0,2.2445,2.2914,2.2966,2.3073,2.3166,2.338,2.3527,2.3621,2.3821,2.4022,2.4209,2.4315,2.4462,2.4649,2.4743,2.4796,2.4796,2.4796,2.4796,2.481,2.501,2.5077,2.5064,2.4983,2.5064,2.5264,2.5451,2.5585,2.5678,2.5678,2.5865,2.6106,2.6106,2.644,2.676,2.644,2.5967,2.5607,2.5395,2.4732,2.3634,2.1927,2.149,2.0868,1.8399,1.7974,1.7885,1.7192,1.7112,1.7112,1.7112,1.7112,1.7112,1.7112,1.7112,1.7112,1.7112,1.7112,1.7112,1.7112,1.7112,1.7112,1.7112,1.7112,1.7112,1.7112,1.7112,1.7112,1.7112,1.7112,1.7201,1.7396,1.721,1.721,1.7396,1.7201,1.7112,1.7112,1.7112,1.7112]}]]